GFSSE_925_rhum_000.txt.gz
RH
70 79 88 73 77 77 89 89 86 79 77 85 86 91 95 93 92 91 88 87 86 78 63 68 85 90 98 96 97 85 80 82 81 70 64 57 58 79 90 92 75 87 79
59 73 84 75 77 87 96 92 90 88 87 86 82 78 83 79 85 87 91 87 81 81 73 64 79 82 87 92 86 86 88 95 93 74 67 63 59 68 93 94 83 73 82
58 71 82 86 83 96 97 95 92 87 91 82 79 83 75 71 76 85 87 83 80 79 67 72 80 77 81 86 88 89 94 92 92 85 72 64 66 71 82 78 77 73 85
58 75 83 89 89 94 95 98 95 91 86 82 76 76 71 73 85 80 80 74 75 72 75 69 68 66 69 66 70 84 85 85 85 86 76 72 66 65 73 84 75 77 85
68 83 84 84 91 89 95 98 98 95 85 80 78 76 76 80 84 78 66 70 68 73 73 64 62 71 84 86 95 93 90 86 80 69 58 67 71 70 70 76 72 78 74
77 88 87 85 84 83 93 97 97 96 90 83 84 75 70 76 83 80 75 70 70 73 66 67 72 85 89 91 95 95 94 90 84 78 72 66 62 53 63 85 82 72 76
82 87 85 80 76 84 86 94 96 96 92 86 82 78 69 75 75 77 75 76 75 77 80 88 94 94 94 95 93 92 96 87 89 83 71 70 71 70 79 81 80 74 73
70 85 83 83 77 83 86 90 90 96 93 86 80 86 85 69 71 78 80 78 79 85 94 95 97 96 96 95 96 96 83 78 76 72 71 70 71 73 96 93 87 84 81
67 80 83 84 80 80 88 84 80 89 95 85 88 91 90 72 68 74 82 86 89 89 77 85 94 95 90 87 84 83 83 83 84 81 78 77 78 78 99 96 95 92 88
75 77 83 89 84 82 90 83 78 76 83 82 83 81 76 67 68 65 70 82 73 71 76 84 85 85 86 85 85 85 84 84 84 81 80 80 79 87 97 96 96 96 93
89 82 87 96 84 89 89 85 79 71 79 85 81 82 75 65 59 70 72 72 74 79 84 86 90 90 85 82 83 80 76 66 59 60 66 69 75 87 92 91 94 95 94
99 98 99 100 93 91 90 87 82 78 82 83 86 81 72 63 69 77 78 76 79 82 86 89 87 84 80 71 63 53 47 45 44 44 51 61 63 79 80 77 84 89 86
88 100 99 100 99 92 91 90 85 83 84 85 88 81 76 72 74 77 81 83 84 86 85 85 78 58 50 47 42 38 35 36 38 39 39 43 45 63 74 75 76 77 86
74 87 91 97 93 91 91 86 83 86 86 85 82 79 82 80 82 85 87 81 85 88 86 54 49 46 41 35 31 28 26 26 26 30 40 38 48 70 70 71 78 83 76
59 63 76 86 86 83 90 81 83 84 83 82 83 82 84 83 87 92 78 73 64 53 48 45 39 33 28 23 20 19 20 19 25 38 34 42 41 44 74 70 66 64 63
35 39 53 71 82 80 78 79 79 83 85 86 86 88 83 78 85 81 66 52 46 43 39 31 22 19 18 18 17 18 20 21 32 22 32 30 31 30 60 59 60 57 62
25 28 32 55 74 80 80 84 89 89 88 84 73 78 81 87 81 64 52 42 33 26 20 17 17 17 17 17 16 16 16 22 16 24 24 22 23 22 25 41 55 56 62
25 30 34 56 73 81 88 94 95 88 88 77 79 86 84 72 63 49 36 23 20 20 19 18 17 16 15 13 14 14 14 29 21 19 23 20 21 23 23 20 18 35 55
28 38 46 70 79 86 95 94 88 89 87 83 84 77 65 62 42 25 22 25 24 22 19 15 14 12 17 12 13 13 16 30 31 23 17 21 20 22 22 20 16 15 22
42 45 62 83 87 92 94 91 89 84 80 74 64 58 52 33 22 27 28 26 21 18 15 12 11 11 16 18 14 12 23 40 38 32 22 22 20 24 21 18 18 15 22
59 66 82 91 97 93 92 86 78 76 71 63 52 42 26 22 28 30 28 24 19 16 14 13 11 11 16 23 23 18 20 26 26 30 13 20 22 20 15 20 16 15 16
65 78 95 96 96 91 86 84 82 71 56 46 32 24 24 27 28 29 26 22 17 14 13 13 13 14 18 26 26 48 55 30 20 13 17 19 14 19 15 18 16 13 22
69 77 98 97 88 81 81 73 66 50 35 28 25 25 25 26 27 26 22 19 16 14 14 16 17 19 24 21 36 29 40 48 56 29 19 24 24 27 26 26 20 23 22
71 74 90 90 77 82 75 70 64 40 30 26 25 25 24 25 24 22 20 17 15 14 14 15 18 21 24 29 24 24 26 33 52 59 31 24 33 30 32 28 27 25 23
76 82 83 77 76 74 70 69 52 37 26 24 26 25 24 23 21 19 18 15 14 13 14 15 18 22 25 28 29 31 32 32 43 54 45 41 38 36 35 33 30 29 28
86 80 76 73 69 64 66 59 59 43 25 26 26 26 24 22 20 19 17 15 14 13 14 16 21 24 27 27 28 30 34 41 46 48 59 48 47 40 41 38 33 32 33

GFSSE_925_rhum_003.txt.gz
RH
71 78 83 77 74 78 83 86 83 80 76 82 88 95 81 82 87 86 89 89 85 81 77 76 86 90 96 96 90 86 85 84 85 74 66 62 58 64 91 82 86 83 82
63 76 81 75 76 84 92 92 85 89 85 86 92 86 80 83 84 82 92 86 85 79 74 73 86 85 89 94 81 84 88 94 89 83 73 66 64 68 79 88 82 78 75
61 75 85 80 79 90 97 97 91 96 86 83 93 82 70 71 61 74 86 83 82 80 79 78 82 75 75 75 76 79 86 92 92 85 78 69 63 72 93 78 79 72 73
63 75 82 85 78 87 95 97 92 94 94 83 81 77 69 73 76 80 77 77 78 82 78 75 75 87 85 80 77 76 82 82 82 74 75 64 65 64 80 90 72 72 74
66 76 82 90 80 88 89 95 97 96 90 85 81 81 78 81 74 78 68 71 74 74 67 68 65 79 95 96 97 96 92 95 83 75 61 52 56 57 66 83 83 77 71
62 74 82 94 85 86 85 91 94 97 90 85 84 76 73 80 87 86 72 73 73 74 68 71 80 94 95 96 94 90 86 85 89 88 77 72 70 64 62 75 81 82 74
67 83 83 87 84 84 85 88 90 93 96 88 83 72 73 83 84 81 82 72 72 75 79 91 88 87 89 91 95 95 92 78 88 84 70 66 68 71 95 90 84 82 80
69 89 82 85 76 86 84 83 85 92 94 92 79 78 82 76 77 80 81 76 79 82 85 87 84 89 93 95 94 91 86 84 89 81 75 73 74 76 97 92 88 90 87
69 77 81 83 75 80 83 83 84 88 91 85 80 89 83 73 73 79 83 84 84 88 77 81 90 93 90 90 89 87 86 84 90 83 76 75 78 78 99 94 94 96 95
73 80 82 85 79 81 89 87 82 78 88 84 83 84 78 69 69 66 69 86 77 72 80 89 92 91 89 84 84 84 81 76 70 67 66 73 71 74 95 95 96 96 97
87 90 96 92 85 81 89 88 84 74 84 84 84 81 78 66 60 67 69 71 73 80 87 90 90 88 85 82 76 69 58 50 46 44 46 53 64 78 90 89 86 89 94
98 100 98 99 99 87 88 88 85 75 81 88 83 82 71 61 63 77 76 75 81 86 89 89 88 80 66 56 49 44 39 37 37 37 37 38 44 68 78 78 77 80 83
90 98 99 98 98 96 91 90 87 82 83 84 84 82 74 75 76 77 83 86 88 89 84 87 74 56 51 44 36 30 29 28 26 28 37 38 53 72 70 71 78 87 83
80 90 98 98 98 99 95 91 91 84 85 84 84 79 80 81 83 86 89 81 85 83 81 58 50 41 34 27 22 21 21 20 22 33 37 48 50 74 80 78 74 74 72
64 68 80 98 98 99 99 95 93 84 86 84 81 78 86 86 88 94 76 71 59 53 48 40 31 23 19 17 17 18 21 20 30 31 36 41 37 72 72 73 70 68 74
47 49 61 78 96 98 92 93 85 83 86 84 81 83 87 80 87 83 67 52 44 37 25 17 16 17 18 17 16 18 17 22 24 25 31 30 27 31 57 66 65 72 69
27 30 36 54 77 91 88 91 85 86 86 84 84 88 82 84 88 72 57 40 23 17 18 18 17 16 16 15 14 14 14 21 22 24 26 25 23 23 24 34 51 59 61
26 27 30 39 61 89 91 88 88 91 87 88 82 82 88 88 72 54 38 20 22 22 20 16 15 13 13 13 14 13 13 25 22 22 21 20 18 20 22 18 16 21 48
27 27 31 55 71 92 93 94 96 96 94 90 85 90 81 73 53 32 22 26 23 20 16 13 12 11 15 14 13 18 18 27 26 21 21 19 19 21 21 18 16 15 14
29 34 40 70 90 99 98 100 100 100 96 92 92 77 60 46 25 25 30 26 22 19 15 12 11 12 16 13 11 18 31 41 37 35 26 14 22 21 19 19 17 16 12
39 47 62 94 99 99 100 99 95 92 91 86 70 52 37 22 27 32 30 25 21 19 13 12 13 14 24 15 24 22 22 20 31 27 17 16 21 20 19 28 25 27 25
50 65 99 100 100 99 99 90 86 84 67 60 46 34 22 28 31 30 27 23 19 15 14 14 13 15 26 25 29 38 28 22 22 18 24 19 21 20 16 18 21 25 26
63 85 99 99 99 97 92 85 79 73 54 41 27 25 26 28 28 28 24 22 17 15 14 14 14 13 29 28 27 27 23 25 30 29 20 32 22 30 26 33 32 30 31
63 82 98 98 94 89 88 83 83 62 44 34 27 25 25 25 25 24 22 18 16 14 14 14 15 17 22 33 32 31 30 34 28 28 30 24 33 31 34 34 32 34 32
70 81 100 91 86 84 84 79 73 50 40 29 26 26 24 22 22 20 18 16 15 13 13 13 17 22 24 32 35 35 37 36 49 37 28 28 34 35 37 35 38 36 36
77 84 94 81 78 79 76 68 65 56 35 28 27 25 23 21 20 18 16 15 14 12 12 14 21 24 26 26 27 32 38 35 33 36 38 38 39 36 38 40 35 38 40

GFSSE_925_rhum_006.txt.gz
RH
63 81 80 75 73 89 92 85 77 81 80 83 88 94 88 92 85 85 88 90 86 79 74 77 86 91 98 97 95 98 92 86 86 77 70 60 53 71 93 84 85 77 78
61 77 75 76 75 92 92 86 79 82 81 87 94 87 86 81 81 80 82 84 86 79 75 78 87 87 92 94 89 89 93 94 91 82 69 65 64 68 84 78 79 86 66
63 75 85 77 76 89 95 87 86 88 79 95 82 66 59 60 62 72 85 79 79 81 78 82 83 79 77 63 69 74 80 87 90 77 60 62 62 65 88 86 80 76 68
63 74 78 82 81 84 95 96 96 96 83 86 85 61 70 74 67 81 82 76 80 83 80 85 90 93 92 93 92 87 83 76 69 59 54 54 59 60 80 85 81 80 72
66 73 77 81 82 83 90 93 97 96 89 79 66 74 80 80 84 85 72 77 77 63 66 75 82 93 94 94 93 83 85 86 84 74 65 64 64 56 59 82 82 84 85
64 72 88 80 84 81 82 84 92 95 88 85 82 76 80 82 84 80 73 73 71 72 69 78 84 84 84 88 95 92 84 79 77 69 68 69 76 73 83 88 79 80 84
67 74 92 80 85 82 82 80 86 88 91 85 76 72 81 89 86 82 84 74 73 76 79 89 82 84 87 90 97 95 90 81 83 74 74 73 75 73 95 90 89 86 84
72 76 83 84 88 78 87 81 81 80 92 82 74 76 89 86 78 79 82 76 81 84 86 71 84 88 89 93 92 90 85 82 77 75 76 76 80 77 96 88 82 85 92
74 74 76 90 87 79 88 85 77 77 91 75 71 76 81 79 72 84 88 86 94 85 68 85 90 91 90 86 81 78 78 75 79 73 75 69 77 75 95 91 92 95 96
72 73 72 74 76 93 90 87 78 80 82 70 80 81 76 72 69 66 80 92 82 70 83 90 91 88 86 83 79 75 68 60 55 56 54 65 60 75 93 91 92 91 90
72 72 71 71 76 83 91 89 81 79 89 76 79 76 71 73 76 76 69 68 70 80 86 88 88 84 77 63 57 52 48 47 45 43 42 44 42 72 80 81 80 78 80
68 76 85 75 78 80 87 91 85 80 86 84 84 85 75 74 70 80 75 68 79 85 86 84 84 68 53 49 45 41 37 34 32 34 38 36 39 68 70 72 76 84 90
60 69 88 89 86 82 83 86 88 77 82 83 84 81 73 73 79 77 78 81 88 89 73 65 55 47 43 36 33 29 30 27 27 33 46 42 51 70 71 85 80 79 78
59 67 77 93 99 92 83 82 80 76 78 80 83 80 73 72 80 78 82 84 74 69 57 49 43 35 28 24 23 24 26 24 30 33 45 48 78 83 81 78 76 75 81
53 62 70 83 96 96 96 82 81 73 77 79 82 75 73 77 81 78 69 69 52 45 40 36 29 23 21 21 20 23 25 24 27 32 41 38 56 72 76 75 76 78 76
44 52 62 73 95 100 96 88 82 74 76 82 78 76 81 79 84 84 71 60 43 33 25 23 24 25 22 20 20 20 23 25 27 31 37 43 27 34 62 64 63 66 66
30 38 50 65 81 99 98 94 80 80 85 82 78 83 87 81 82 78 61 43 30 27 26 25 23 24 22 20 20 20 22 25 26 30 32 33 34 28 26 34 44 51 53
26 28 33 52 72 99 100 92 88 82 83 78 80 90 89 81 83 68 45 32 29 28 26 24 22 22 22 22 21 20 22 26 25 26 28 27 31 30 30 20 15 13 15
28 27 34 42 57 75 86 97 92 86 93 96 88 90 88 85 72 46 33 31 28 26 25 22 23 24 24 23 20 16 27 30 27 26 26 28 32 31 31 31 21 21 17
29 30 32 45 57 72 91 99 100 97 93 93 88 89 85 69 45 33 32 29 27 27 24 24 24 26 26 23 23 20 33 40 33 34 30 22 27 27 30 31 25 24 28
33 37 41 51 70 93 99 100 96 87 93 91 88 80 66 46 28 32 31 30 29 28 27 25 26 25 25 25 19 20 22 25 37 30 22 24 25 25 23 23 24 25 24
33 43 50 59 86 98 98 97 94 84 76 74 76 53 38 26 32 33 32 30 29 29 30 29 29 24 24 27 23 24 20 18 21 19 25 22 23 22 23 24 28 26 27
35 44 56 69 90 87 99 91 80 68 69 58 41 32 28 30 31 31 30 30 29 31 32 30 28 24 22 27 29 23 20 20 20 19 21 26 21 23 26 29 29 27 29
35 46 64 84 82 92 92 78 68 68 64 53 43 37 29 30 31 29 28 29 28 30 30 25 26 27 27 26 28 26 25 24 22 24 22 21 24 26 29 30 29 29 29
32 56 77 91 82 91 85 79 72 67 62 44 36 30 30 32 31 28 28 26 27 28 28 28 30 29 30 28 29 27 26 27 30 31 28 24 27 29 30 31 31 30 29
35 66 87 90 83 82 85 80 71 57 46 39 35 32 32 31 30 28 27 27 27 28 30 31 34 35 33 32 31 31 31 29 27 29 30 30 31 30 30 30 31 31 32

GFSSE_925_rhum_009.txt.gz
RH
55 85 79 77 78 79 95 92 93 89 84 83 92 95 96 96 94 91 92 89 81 78 74 79 88 94 98 98 99 96 95 95 83 75 63 56 47 66 92 89 85 80 82
55 81 77 74 72 95 94 94 84 83 85 87 92 93 95 90 91 92 86 86 80 79 75 81 86 87 89 91 91 91 91 93 89 72 49 67 67 72 89 83 79 86 72
58 73 83 73 71 91 96 89 86 88 92 89 76 72 74 81 85 83 77 78 80 77 80 84 85 83 84 78 75 76 80 80 65 47 53 56 55 55 84 87 87 81 73
56 69 74 76 77 82 96 96 95 84 92 88 75 63 74 77 84 82 80 78 80 78 80 86 89 91 92 92 86 83 84 80 68 59 52 45 50 56 52 86 87 80 83
55 63 72 77 79 78 86 91 95 90 78 80 64 77 77 81 85 79 77 82 71 65 76 81 87 88 86 89 89 78 78 77 70 75 61 63 66 69 56 76 75 79 86
53 58 80 76 80 74 76 80 94 92 79 74 83 87 84 83 86 80 78 75 72 68 71 81 83 83 82 91 95 93 76 68 66 61 62 63 69 73 74 93 90 82 81
52 63 84 78 79 79 77 74 78 89 86 84 80 83 91 96 84 82 87 75 76 79 84 76 81 84 82 92 95 90 79 75 81 68 68 70 72 75 83 92 86 87 89
52 62 83 81 82 80 78 83 77 78 88 78 84 87 94 84 77 79 83 77 85 90 83 83 88 88 92 90 86 81 76 72 73 64 68 68 73 74 94 87 86 92 92
52 58 82 88 90 79 83 88 78 74 84 77 84 90 86 76 77 89 86 85 91 89 73 88 90 86 84 81 77 71 65 57 62 57 58 56 70 66 92 89 92 94 93
52 55 61 79 82 88 89 87 79 68 73 66 74 79 77 73 68 75 83 91 84 72 84 85 85 82 79 72 63 56 51 52 47 44 42 53 40 71 84 84 83 81 80
54 55 54 57 62 81 93 88 81 71 77 69 74 72 66 72 74 77 84 72 69 78 82 84 82 72 57 52 47 41 39 37 34 34 34 42 33 67 68 72 76 79 84
52 54 54 55 58 78 84 92 86 84 90 82 81 73 65 61 64 72 74 66 75 82 81 76 71 53 47 44 38 30 29 29 27 28 40 43 47 66 65 84 88 84 86
46 52 59 57 62 67 77 87 78 70 76 74 71 72 60 61 69 71 73 77 81 82 68 60 51 44 38 30 25 24 25 25 26 28 46 37 81 80 86 84 80 84 86
42 49 64 64 67 68 71 82 72 70 70 73 69 67 60 63 68 64 66 75 70 60 54 49 42 32 23 21 20 21 23 22 25 26 46 42 78 85 83 81 86 82 81
37 46 57 66 78 71 67 74 76 70 64 64 67 68 58 62 68 68 65 60 52 46 41 34 26 24 22 22 20 19 22 22 24 27 40 38 56 72 74 73 75 74 74
32 42 51 61 78 86 80 74 76 69 61 64 68 66 61 63 69 65 60 52 43 35 26 24 24 24 22 20 19 18 20 21 24 28 34 39 29 34 51 60 58 58 57
26 34 42 52 64 85 88 84 74 66 62 72 71 64 64 74 70 62 62 48 34 29 27 25 22 22 22 21 20 20 20 22 24 28 31 33 36 31 24 20 21 27 33
22 25 33 44 54 75 90 82 79 68 67 77 71 71 78 72 64 64 47 37 31 28 26 25 24 24 24 24 23 18 19 22 24 25 27 27 31 29 30 29 18 17 23
24 24 25 32 48 63 92 88 83 73 75 76 74 80 79 67 76 69 45 34 29 28 28 25 27 28 27 24 20 17 28 29 26 24 25 27 30 30 32 31 26 24 25
23 25 24 30 36 52 80 92 86 78 81 83 85 80 72 77 63 39 34 30 30 30 28 29 29 28 28 24 21 20 28 34 28 30 32 19 25 26 28 27 25 26 26
23 26 27 27 38 46 64 93 93 91 92 84 75 72 69 59 41 35 32 32 32 32 32 31 30 29 28 26 21 24 22 23 34 35 21 22 21 22 23 24 26 28 27
26 28 29 32 39 51 80 95 94 91 82 72 64 68 67 53 36 33 34 34 34 34 35 34 32 26 27 28 25 25 27 21 21 20 22 22 22 22 24 26 29 28 28
27 28 29 36 46 68 92 96 93 86 71 61 58 59 49 37 34 34 35 35 36 37 37 34 31 28 27 28 28 25 28 28 23 19 21 22 24 23 25 28 29 29 28
27 30 32 40 55 75 92 92 84 78 70 61 53 43 32 32 34 34 35 35 36 36 34 27 29 29 28 28 28 25 26 24 27 28 21 24 23 25 27 28 29 30 30
22 29 37 44 61 71 90 85 78 67 72 54 44 32 33 34 33 33 33 34 34 33 32 32 31 30 30 29 30 30 28 27 28 30 36 28 28 28 29 29 29 29 29
23 30 43 50 67 74 91 82 70 66 59 51 41 36 33 32 32 32 32 33 33 34 35 34 34 35 33 32 31 31 32 32 30 32 36 34 34 32 30 29 27 28 29

GFSSE_925_rhum_012.txt.gz
RH
84 77 75 72 70 78 88 93 86 73 82 91 95 95 95 95 94 94 91 83 82 77 79 85 92 95 96 98 98 96 97 78 76 67 46 62 58 80 88 94 81 89 88
79 81 81 81 76 87 92 88 80 75 84 90 94 96 96 94 94 89 87 82 78 77 81 84 86 87 87 89 88 88 81 69 60 40 46 68 67 56 89 92 76 77 71
84 90 84 79 72 91 93 88 81 83 95 85 83 90 88 91 85 78 78 80 76 80 85 87 89 92 91 88 76 65 63 60 42 45 52 61 67 56 63 87 87 76 79
79 85 81 71 75 92 91 82 79 94 89 76 75 78 83 87 81 80 78 77 77 78 82 86 86 84 80 72 83 89 92 75 60 64 58 52 60 61 56 66 85 82 88
73 79 80 76 74 84 92 95 88 85 92 81 77 83 85 88 84 81 86 79 71 77 76 82 82 80 74 66 74 74 72 62 69 67 63 64 62 80 68 82 69 75 83
66 73 77 76 74 76 79 86 96 77 82 82 87 86 80 87 85 79 86 74 73 74 87 96 95 91 75 86 95 84 73 71 74 68 67 68 70 72 71 94 89 89 83
60 72 71 75 76 75 77 76 80 72 83 85 80 89 96 87 78 80 80 75 79 86 89 88 92 84 88 92 85 77 72 67 71 68 68 71 76 77 90 86 85 91 92
70 79 73 74 78 74 74 76 73 68 71 84 81 90 87 75 76 88 80 75 83 89 74 89 83 88 84 80 76 71 63 55 67 63 63 68 73 78 90 87 90 96 92
71 82 75 78 78 76 75 74 74 71 68 81 84 90 82 72 86 95 87 82 92 76 86 84 81 79 78 74 66 57 51 50 48 46 53 56 53 62 83 86 87 86 84
56 76 82 82 87 84 83 79 72 68 62 75 82 80 78 71 75 86 88 91 85 73 80 82 79 72 58 51 46 36 42 42 38 38 38 42 42 61 68 73 77 80 81
52 71 81 86 86 85 91 86 77 64 61 64 74 73 71 71 72 80 90 82 67 74 80 78 75 56 49 50 41 31 31 31 28 29 32 37 38 64 66 81 89 88 92
52 53 70 74 82 76 91 90 80 68 65 65 70 68 58 72 75 82 73 63 73 81 74 64 50 47 46 39 30 26 26 27 26 28 37 39 54 73 88 88 87 94 90
50 52 53 54 63 68 86 88 90 84 81 76 77 68 67 62 67 74 57 73 80 75 64 56 44 41 28 22 21 21 22 24 23 29 37 36 75 88 83 86 90 88 89
46 50 53 55 62 73 81 82 80 75 78 73 73 72 61 62 60 69 76 82 68 62 53 48 36 24 22 22 21 20 21 22 24 28 39 37 75 84 83 85 82 81 82
42 48 56 58 64 67 68 75 73 71 73 69 70 68 61 67 67 66 70 64 53 47 40 28 24 24 24 21 19 18 19 22 24 28 36 38 50 71 73 70 68 66 64
30 44 57 63 66 69 70 68 74 67 69 67 66 68 60 64 70 65 61 51 46 38 29 24 22 22 22 21 20 19 19 21 24 29 36 37 33 29 30 50 54 53 54
24 35 48 60 66 72 73 74 70 70 69 61 65 68 60 64 63 67 60 45 34 30 26 24 21 22 23 23 22 21 19 22 24 28 31 31 32 31 30 29 26 44 45
22 27 40 54 66 78 81 77 73 68 69 64 65 64 65 70 67 68 54 38 34 28 25 24 25 25 25 23 20 17 18 22 25 26 27 28 30 30 33 32 29 35 38
22 22 33 44 60 71 82 81 75 70 70 64 71 66 72 71 67 68 43 37 29 26 27 26 29 27 23 20 19 18 26 29 26 24 26 27 27 26 28 27 27 27 34
20 22 23 37 49 69 86 82 77 74 70 68 76 73 79 72 67 60 40 32 29 30 29 30 30 28 25 19 21 23 26 32 26 26 32 20 25 24 24 25 24 26 30
19 21 24 26 37 71 88 87 89 83 77 82 81 84 79 69 58 42 34 30 32 33 33 31 30 27 25 16 20 23 25 27 37 35 25 22 22 22 24 24 27 28 28
25 22 25 27 30 45 82 82 95 90 87 84 82 77 72 62 40 40 32 32 34 35 36 32 27 26 27 22 24 31 39 30 22 23 21 22 22 22 23 25 28 28 29
26 27 28 28 33 35 65 93 94 93 82 74 73 68 55 42 39 36 32 34 36 37 35 32 28 25 28 28 22 27 40 43 32 23 25 23 24 23 24 27 28 29 29
28 26 27 29 31 41 77 94 92 84 74 68 67 60 41 39 35 34 34 35 37 37 34 30 27 24 27 28 28 26 25 25 40 44 26 23 27 27 28 29 29 29 29
19 28 26 29 36 66 84 91 90 82 76 66 63 53 38 34 34 35 35 36 36 35 31 30 29 25 24 28 29 29 29 28 28 38 52 39 30 31 32 32 30 28 27
19 18 32 30 44 74 83 91 87 80 70 62 55 40 36 34 34 34 34 34 34 34 31 29 28 28 28 29 29 30 31 34 36 38 50 44 43 38 37 34 28 27 27

GFSSE_925_rhum_015.txt.gz
RH
84 80 84 95 79 80 88 85 80 83 95 96 96 96 96 95 94 92 86 84 80 83 86 88 95 98 98 96 97 97 78 61 65 41 46 60 59 85 90 89 77 74 72
77 84 86 93 81 84 78 67 66 65 88 94 94 93 93 94 92 88 84 80 81 82 83 88 91 93 92 90 82 68 64 61 35 46 66 68 67 74 90 90 77 76 74
79 90 84 84 75 76 70 64 61 89 91 96 97 96 96 89 85 80 80 77 82 84 86 89 93 92 88 76 66 60 56 38 48 56 61 67 69 75 63 77 81 74 80
77 89 83 79 72 71 71 67 90 92 80 81 88 90 88 83 79 77 76 78 80 84 86 85 86 76 62 76 86 93 64 63 66 67 60 58 73 73 69 69 83 88 85
78 85 81 72 73 74 83 74 95 91 80 75 82 87 89 83 83 87 81 81 85 90 95 94 84 74 66 71 70 63 57 66 70 66 67 67 65 78 74 82 65 63 76
79 79 75 73 74 77 79 76 83 95 85 85 86 88 90 86 84 91 79 71 72 82 95 94 87 79 83 87 78 71 68 71 72 70 69 72 75 88 86 93 86 86 92
83 77 78 76 76 75 76 80 67 85 86 91 91 91 92 92 85 93 75 74 74 81 87 92 92 86 88 83 75 68 62 64 73 71 72 74 80 84 91 85 83 91 88
79 76 74 76 76 76 74 74 60 78 90 89 92 95 87 80 88 94 77 78 85 70 84 80 85 86 81 76 67 58 52 63 53 56 66 73 71 79 86 78 88 90 78
75 74 75 76 77 75 75 74 62 61 80 83 84 80 73 73 84 97 80 84 82 61 83 79 78 76 69 58 48 48 52 48 45 50 58 54 50 65 73 80 83 83 82
75 74 75 76 81 78 78 78 74 56 65 74 77 77 72 76 90 91 85 88 82 62 78 78 74 63 52 47 34 36 36 33 31 38 40 39 42 65 70 75 80 88 92
81 74 72 78 83 81 83 84 76 62 56 73 75 77 74 70 85 89 88 87 71 68 78 76 65 50 50 45 33 28 29 30 28 31 34 39 53 62 92 91 92 94 93
87 80 74 80 83 83 84 85 81 66 55 65 70 70 71 74 74 78 85 76 64 79 74 55 49 46 42 31 23 24 24 24 25 34 38 41 78 89 84 95 91 88 95
62 82 80 78 82 82 83 83 82 72 58 57 60 61 64 75 83 81 73 65 81 70 61 54 44 32 22 21 21 20 22 23 24 33 36 41 87 85 80 87 90 90 89
52 59 76 82 80 83 75 79 81 78 72 63 68 63 67 73 78 74 60 80 76 68 53 42 29 24 22 22 20 19 19 22 25 38 39 39 82 83 83 82 78 76 75
54 53 55 70 73 83 78 72 80 78 74 69 77 74 69 64 61 68 79 76 59 50 44 38 27 24 22 20 18 19 19 22 25 36 39 35 56 70 68 65 63 62 61
44 52 53 58 63 66 74 72 70 76 74 73 76 75 62 61 67 73 72 59 53 47 38 28 22 21 21 20 20 20 20 22 24 36 37 36 32 32 52 52 51 52 52
29 48 52 55 63 66 71 70 64 70 72 70 73 70 64 64 71 69 64 53 48 38 31 23 21 22 22 22 21 20 20 22 25 32 32 33 31 31 36 44 43 45 46
24 43 52 56 62 71 72 72 66 69 72 70 64 65 63 64 71 67 61 52 40 33 25 26 26 25 22 17 16 16 18 22 26 28 28 29 30 29 30 36 35 41 43
22 24 54 59 60 66 73 75 70 69 71 70 62 66 62 64 67 65 64 50 39 28 26 29 30 26 18 15 18 20 28 27 26 27 26 28 27 25 26 24 24 22 30
21 21 27 63 58 62 67 72 74 70 70 70 64 65 64 64 66 68 57 43 32 28 31 32 30 26 17 17 22 24 26 31 26 26 27 24 25 24 23 24 23 24 27
20 20 22 49 70 71 80 85 82 78 69 70 65 68 68 66 67 63 49 39 29 31 33 33 30 26 18 15 18 26 26 38 34 32 26 22 23 22 22 23 24 27 27
23 22 23 28 68 74 69 82 86 82 77 76 69 74 74 72 67 58 49 35 31 34 36 33 29 27 25 17 22 36 39 31 24 25 24 22 23 23 24 27 29 29 29
20 23 24 27 59 78 74 89 90 95 92 86 81 76 75 71 65 53 43 34 34 36 36 32 28 27 26 25 20 24 34 40 35 25 27 24 25 27 28 29 28 30 30
20 20 24 26 35 76 80 88 89 90 88 82 81 79 78 63 44 41 35 33 36 37 36 34 29 27 24 25 27 24 23 24 37 34 27 26 29 28 26 26 31 30 27
18 18 19 29 28 43 74 68 89 93 89 78 78 70 63 39 37 36 34 35 37 36 35 34 30 26 25 24 25 26 27 29 31 39 48 39 30 28 31 32 28 30 28
21 20 19 19 32 36 72 77 84 89 84 77 70 60 46 39 37 34 34 36 37 34 34 33 31 29 25 24 26 27 28 32 37 39 52 50 45 39 38 32 29 34 31

GFSSE_925_rhum_018.txt.gz
RH
91 86 88 96 96 90 94 95 96 94 94 96 96 96 97 96 94 91 87 82 87 87 86 88 93 98 95 96 96 92 66 61 53 34 56 60 82 88 92 91 77 76 76
83 84 87 94 96 92 90 83 84 84 87 95 96 95 96 95 90 88 84 84 83 83 85 93 96 95 93 92 83 75 63 52 36 62 66 63 70 88 91 75 76 76 73
80 84 89 91 91 83 79 67 72 86 89 92 94 94 96 92 88 84 79 82 83 83 86 94 97 96 94 89 71 56 42 41 58 60 61 65 68 80 82 78 77 74 82
78 87 90 88 74 70 76 87 91 94 94 95 96 96 89 83 79 76 77 83 84 86 85 88 90 85 82 71 63 58 58 63 68 66 60 60 70 79 72 61 84 90 82
84 87 90 81 73 75 70 97 90 85 91 92 93 90 85 80 79 76 79 82 86 92 94 94 87 71 64 64 61 56 67 70 71 67 68 69 72 86 85 80 71 66 72
88 85 85 77 72 73 70 96 92 84 84 86 87 89 86 85 89 83 84 87 90 95 94 87 79 78 80 80 76 71 72 76 75 72 72 75 80 94 94 90 86 86 87
85 82 79 76 72 71 72 89 93 88 86 90 91 92 90 87 92 91 76 78 94 98 94 96 83 84 83 78 70 63 63 72 68 74 77 82 87 91 90 82 80 91 89
78 78 76 77 77 74 77 71 87 84 91 93 93 94 92 89 93 96 78 77 92 91 91 94 90 88 78 68 58 53 63 56 54 67 80 79 75 80 86 84 83 84 76
73 74 79 79 77 75 75 71 74 85 92 89 86 90 90 86 89 96 87 93 83 89 89 88 84 76 63 43 39 49 51 46 45 60 62 54 56 66 71 77 81 84 86
82 76 80 83 80 76 76 65 64 84 83 83 86 79 75 78 87 90 89 90 78 88 81 79 74 58 50 37 34 35 34 32 38 44 41 41 46 63 76 84 89 85 87
94 82 81 82 82 76 77 75 68 63 77 76 76 77 72 87 94 92 84 89 76 71 80 77 62 52 52 42 30 29 29 28 28 35 39 48 70 88 90 90 96 96 98
97 97 83 82 83 81 81 80 80 65 66 74 72 77 72 79 92 91 88 86 67 76 78 64 50 46 42 32 23 23 24 24 28 39 39 60 93 82 89 84 85 89 96
83 93 88 84 83 84 85 83 81 71 60 70 70 72 72 73 80 86 88 80 69 80 59 50 45 34 23 22 21 20 22 23 29 36 48 73 88 84 76 78 88 84 84
87 83 82 84 86 86 83 84 80 76 64 60 68 69 71 79 80 84 81 66 80 69 61 53 35 26 22 22 19 19 20 22 32 40 46 62 84 84 82 78 74 71 68
71 82 85 80 84 88 84 85 82 76 70 58 56 63 68 69 77 82 66 78 79 69 52 42 32 26 23 20 19 19 20 23 33 40 43 54 72 72 68 65 64 60 61
56 64 69 84 82 88 81 85 82 77 74 72 65 71 65 69 71 78 71 85 72 56 42 36 28 22 21 20 21 20 21 24 32 39 37 35 35 53 56 52 53 53 55
28 47 62 63 62 85 85 79 78 78 77 73 72 77 72 68 66 66 78 83 50 43 42 31 22 22 23 21 21 20 21 23 30 38 35 32 30 32 44 48 49 50 51
26 28 61 69 66 70 83 79 78 74 74 72 73 77 75 63 64 71 78 58 49 45 39 25 24 26 22 16 16 18 20 23 29 32 31 30 30 29 31 30 26 36 48
24 25 30 72 65 62 70 76 77 72 68 71 73 77 73 63 68 71 63 55 50 46 32 27 29 26 17 15 18 20 31 26 29 29 29 30 27 25 23 23 23 22 27
22 24 25 38 72 67 60 64 82 78 68 70 73 74 66 64 70 69 62 57 51 42 27 31 31 24 16 18 23 26 31 29 28 28 28 27 26 24 23 24 24 25 26
24 23 28 28 67 79 78 89 92 79 69 73 74 72 63 65 67 67 59 56 49 38 30 33 30 23 16 18 24 28 34 31 29 31 28 25 24 24 25 26 28 29 30
22 22 24 27 45 79 73 67 85 81 74 71 75 70 63 66 68 65 61 56 45 32 33 34 31 26 19 17 24 35 38 31 30 30 26 24 24 25 27 28 28 31 31
23 21 21 26 38 56 77 84 64 87 90 89 83 74 70 69 66 64 62 55 42 33 34 34 33 30 24 21 18 25 45 41 35 28 27 26 28 28 28 26 29 29 27
20 19 19 19 28 61 82 89 65 72 90 85 76 74 71 71 65 63 61 54 41 34 35 34 32 31 26 25 23 21 21 23 34 28 28 31 30 28 26 26 27 28 30
20 19 20 20 28 54 83 89 80 83 82 82 81 81 78 70 68 61 52 46 36 36 36 35 33 31 27 25 24 25 26 29 30 39 41 37 31 27 26 29 29 31 32
23 22 20 21 25 44 74 92 79 87 84 86 86 81 74 66 57 51 49 41 37 37 36 34 32 30 29 25 23 22 24 30 38 40 51 51 47 36 34 30 30 34 32

GFSSE_925_rhum_021.txt.gz
RH
87 88 82 95 98 98 97 96 95 92 91 95 97 98 98 97 88 82 78 86 90 87 85 92 96 91 90 94 97 79 67 61 46 44 53 57 87 89 97 90 79 82 87
82 86 86 97 99 97 97 98 88 85 87 93 96 97 98 95 93 89 86 88 87 83 81 84 93 98 96 96 80 73 63 44 50 58 58 59 68 90 90 79 76 82 64
78 87 88 94 97 97 98 97 88 86 88 90 96 96 95 92 91 85 84 83 83 82 85 87 96 95 95 94 80 77 60 56 58 57 61 62 68 82 82 78 78 80 81
79 87 86 89 94 95 88 89 95 93 94 86 93 96 93 90 82 79 84 85 86 88 92 96 96 93 90 89 88 78 78 68 72 63 59 64 76 82 74 65 86 89 79
87 87 84 89 92 80 89 93 95 94 94 90 95 93 87 80 78 79 83 87 89 90 92 90 70 58 59 61 63 72 72 72 73 69 69 71 82 93 94 85 74 68 68
95 88 84 85 80 76 82 98 95 94 96 94 89 83 83 80 78 81 84 90 93 94 93 85 74 76 77 76 74 72 71 76 73 71 73 76 84 94 94 88 84 89 85
95 89 87 78 75 74 88 92 87 90 94 97 96 91 87 90 85 83 73 74 84 91 90 88 88 88 85 78 70 66 70 75 72 74 78 86 91 89 89 80 79 89 90
89 90 85 75 74 71 82 88 88 86 92 93 90 91 89 91 94 82 69 72 87 88 86 89 90 88 79 66 56 58 64 60 64 80 84 83 74 75 80 89 78 83 75
84 86 81 75 75 71 69 82 87 86 92 91 86 91 86 89 94 88 80 80 84 83 84 88 85 79 59 38 46 52 51 47 52 64 64 56 58 66 72 77 79 82 93
87 81 72 78 79 75 77 68 76 83 88 84 84 85 86 86 90 87 77 86 71 86 81 81 79 59 45 35 36 37 34 36 45 47 42 39 41 65 87 91 85 92 94
90 84 81 85 82 78 74 68 64 77 86 84 85 80 78 78 88 92 81 91 71 81 84 81 67 56 52 41 30 30 29 29 31 36 40 69 78 92 96 90 94 99 98
98 88 86 89 84 80 78 68 62 77 80 78 81 80 75 81 88 93 87 93 81 77 83 72 52 47 44 35 24 23 24 24 31 41 60 72 90 91 75 77 82 92 93
88 91 88 88 86 83 83 77 72 68 74 77 75 78 74 86 97 98 93 96 81 84 78 57 48 40 27 22 21 20 21 24 34 40 73 77 86 84 76 76 85 82 81
97 86 83 84 88 86 83 80 78 77 67 71 74 76 77 76 92 97 95 92 76 84 62 52 43 29 24 22 20 19 20 25 38 45 61 76 89 84 81 76 73 70 68
100 95 86 83 87 88 87 82 82 80 71 57 66 76 77 75 80 86 90 84 77 75 64 56 35 30 24 21 19 19 20 28 40 46 61 71 77 73 69 66 62 61 64
87 92 85 88 85 86 89 86 84 80 75 64 54 63 74 74 79 82 87 74 85 75 56 44 36 28 22 20 20 20 21 28 38 42 43 47 52 59 57 56 58 57 60
53 64 71 76 79 86 88 89 88 83 81 72 66 55 61 70 70 76 84 74 82 73 48 38 33 23 23 22 21 21 22 27 38 38 36 33 34 39 50 56 55 54 61
29 31 52 70 72 81 91 94 88 87 84 76 73 67 64 67 70 73 82 83 77 54 42 37 27 24 24 18 19 20 23 25 37 37 33 31 30 30 32 27 32 42 50
27 28 29 52 72 76 94 87 86 86 86 78 76 70 73 77 74 72 75 83 64 46 40 36 27 27 20 16 18 20 26 26 36 36 31 31 28 26 24 23 23 24 34
28 27 29 32 48 70 74 86 92 95 90 82 77 75 73 78 76 69 72 80 55 45 40 32 30 27 18 18 23 31 33 30 31 33 31 30 27 25 24 24 25 26 27
27 27 28 33 50 77 90 100 100 99 94 85 80 75 74 77 74 68 73 62 51 47 48 33 31 23 17 24 28 30 36 31 31 29 31 28 27 25 26 27 28 28 28
22 25 26 30 32 70 88 87 85 79 87 80 80 77 75 75 71 69 69 61 54 45 40 33 32 25 18 23 25 33 41 36 35 34 30 28 26 27 28 27 28 29 28
22 23 23 23 28 55 77 95 90 87 89 95 88 84 78 76 69 68 67 63 56 51 46 35 33 29 21 20 23 27 48 43 37 31 29 27 28 29 28 27 28 26 27
23 20 20 22 23 34 69 97 92 84 89 86 82 81 79 82 70 69 67 63 59 52 41 36 34 32 28 22 21 20 20 26 34 33 33 31 31 30 29 29 28 27 28
23 22 21 21 23 26 59 83 87 84 76 71 82 86 85 82 76 70 68 63 58 49 41 35 34 33 30 27 25 24 25 26 27 34 36 36 34 32 30 30 29 30 32
22 22 22 22 22 25 40 86 85 85 84 84 89 92 88 81 75 72 66 61 56 49 41 35 34 33 31 29 26 23 23 29 36 38 48 47 45 33 31 29 32 33 32

GFSSE_925_rhum_024.txt.gz
RH
81 85 78 85 86 92 98 97 94 90 90 92 93 95 99 98 93 88 89 93 89 88 89 90 92 90 90 94 97 86 68 57 49 55 54 64 90 94 95 82 82 85 83
78 87 78 86 90 93 98 94 87 85 83 91 97 98 99 96 93 89 91 90 86 83 83 93 94 98 95 96 86 70 57 44 57 58 57 55 64 91 93 87 86 78 77
83 83 81 92 93 94 97 93 83 76 80 88 94 98 97 95 91 89 86 84 81 76 81 82 91 97 95 89 88 77 73 60 56 58 58 63 71 78 84 79 86 85 84
82 84 85 92 94 93 93 85 82 78 82 88 94 97 93 92 84 84 84 83 80 80 80 86 96 95 93 92 88 90 86 64 62 60 64 67 81 88 81 72 82 70 75
88 86 84 89 94 97 90 90 82 82 86 82 92 96 92 80 80 85 86 88 90 88 87 87 72 66 73 89 92 88 75 72 68 68 71 77 86 95 94 86 81 76 65
92 89 85 86 90 80 82 88 95 94 92 88 92 93 84 81 82 85 89 93 95 96 94 77 78 85 86 90 75 71 72 74 73 71 75 82 91 93 90 83 79 89 86
93 91 89 83 77 73 81 87 86 90 93 97 89 88 83 81 83 86 77 77 90 90 88 83 82 88 90 80 71 66 73 74 74 74 80 87 87 85 86 80 82 86 90
91 91 88 81 69 66 89 87 85 86 90 94 90 91 90 88 86 85 66 75 89 92 87 88 91 86 73 61 54 62 64 63 77 80 86 78 71 72 75 78 68 78 76
93 90 86 78 69 67 90 83 79 83 87 88 88 89 91 92 93 85 70 70 81 82 83 92 86 75 50 42 49 51 49 52 62 69 62 54 58 66 73 76 76 90 97
92 87 80 75 71 66 74 83 80 78 83 84 82 82 86 87 85 82 74 70 79 86 85 84 78 58 40 34 37 35 36 44 46 45 40 40 61 87 96 91 98 97 97
99 90 83 81 79 76 71 74 77 73 81 80 82 90 89 92 97 92 78 87 72 85 79 80 71 57 50 39 30 29 28 28 31 36 50 68 92 94 94 98 98 98 94
98 98 85 82 83 80 78 75 68 69 80 81 83 88 83 82 91 95 84 91 79 82 86 77 56 50 44 37 25 22 23 25 31 43 71 84 90 88 76 80 91 90 89
100 97 88 83 86 83 83 78 66 66 74 74 81 83 79 78 86 97 95 94 92 83 85 70 50 42 30 23 21 20 20 25 34 44 59 84 85 76 75 74 80 75 70
99 95 89 86 88 87 82 79 67 67 70 71 72 76 79 80 97 98 99 96 94 80 82 58 47 36 29 23 20 19 19 26 42 56 73 88 87 81 78 75 73 71 72
97 94 90 86 89 89 88 84 78 74 72 64 70 74 75 76 88 100 100 98 94 81 74 56 46 33 29 22 19 19 21 33 43 51 70 79 78 75 71 66 64 66 68
83 88 94 91 91 91 90 89 85 82 77 70 63 69 75 76 74 84 93 95 87 82 70 61 39 34 25 21 20 20 23 33 41 48 60 65 61 62 61 62 60 62 66
63 72 78 84 91 90 91 90 88 84 83 78 72 62 73 76 75 79 84 91 78 83 69 48 38 32 23 22 21 21 24 32 41 41 40 41 45 48 60 60 56 63 59
28 44 68 67 79 89 92 90 90 89 84 82 79 69 63 74 76 77 84 88 75 84 69 44 37 29 24 22 20 22 23 31 40 39 36 34 33 36 40 38 43 49 54
29 29 33 60 70 74 94 96 90 89 89 86 83 78 71 66 67 71 74 84 79 83 60 44 38 27 24 18 18 22 24 27 41 39 34 33 32 30 25 22 22 24 32
26 30 30 32 49 61 81 99 100 100 97 96 88 84 80 73 66 70 74 84 84 74 47 40 34 29 22 19 24 31 30 31 42 40 34 33 28 27 24 24 25 25 25
25 28 29 31 30 51 100 99 99 100 100 99 92 87 82 79 75 78 76 84 84 70 53 41 32 28 21 23 29 37 34 33 34 37 34 33 29 26 25 25 26 26 25
23 25 27 30 32 47 80 98 100 99 100 92 86 84 86 83 80 81 78 73 80 61 44 41 36 26 20 26 27 34 49 39 36 32 33 32 29 26 27 27 27 26 24
26 24 22 25 28 48 77 90 100 98 99 100 100 91 90 87 80 80 81 71 76 64 49 47 37 31 22 26 24 29 50 45 41 35 32 30 29 28 28 28 27 25 24
27 26 24 23 24 30 67 98 100 97 97 97 84 78 84 90 84 79 82 76 71 63 53 56 44 33 27 20 22 27 23 28 42 38 34 31 30 30 30 30 29 27 27
27 25 25 24 24 24 28 77 92 100 90 81 91 90 91 89 87 82 80 75 70 63 55 54 46 33 31 26 20 24 24 25 24 33 38 40 35 33 34 34 31 30 31
24 36 31 24 22 24 28 48 88 92 96 90 89 92 97 96 90 87 83 74 70 64 57 52 48 37 33 31 24 22 22 26 32 34 43 44 40 33 35 34 33 32 34

GFSSE_925_rhum_027.txt.gz
RH
81 83 78 78 79 78 81 89 87 88 89 89 89 91 93 97 96 93 95 91 82 91 91 92 90 87 86 88 94 80 69 74 63 60 62 81 95 94 93 83 81 82 77
78 81 79 79 81 81 84 83 84 85 88 85 90 86 91 97 93 92 94 89 82 87 91 92 93 97 93 92 82 71 67 58 59 60 56 58 82 93 94 86 79 76 82
82 91 81 79 82 85 86 88 78 77 85 87 95 98 98 96 92 92 88 83 78 90 96 97 97 96 95 82 78 85 74 56 57 58 63 76 74 80 88 86 89 87 85
87 92 85 84 88 94 89 82 78 73 76 83 96 98 97 94 89 84 84 80 86 90 82 82 95 94 83 86 90 93 62 63 59 61 66 81 89 92 84 80 77 71 78
93 84 82 85 88 94 88 81 79 77 78 77 90 96 96 83 85 86 88 89 81 78 79 80 73 79 83 92 95 92 70 68 66 69 73 80 92 93 93 88 83 80 68
97 89 84 86 88 91 83 81 79 74 75 78 88 93 84 82 87 88 91 91 83 80 76 84 92 90 90 86 78 71 71 71 70 72 77 84 91 87 88 79 91 85 93
93 86 87 86 84 76 73 75 78 77 78 80 94 89 83 84 87 91 95 93 89 93 94 94 89 88 81 73 66 69 73 73 74 74 79 79 83 82 87 88 91 90 95
96 91 88 84 75 72 79 82 80 72 91 88 87 88 84 86 88 93 94 93 91 88 94 92 95 78 65 55 57 62 67 70 77 80 82 68 69 72 75 71 70 89 90
98 98 95 93 72 70 86 76 81 86 92 83 86 88 90 87 89 89 78 87 86 82 87 97 81 64 42 45 50 52 53 58 68 71 60 50 51 67 76 80 88 97 96
96 91 89 81 77 91 90 75 66 71 82 86 80 84 87 83 77 70 67 78 83 84 88 85 73 49 36 36 37 38 43 48 48 44 40 48 88 96 97 96 97 98 96
100 95 92 86 78 74 83 82 75 71 74 77 82 78 84 95 95 82 72 66 86 84 78 78 67 53 47 35 31 29 29 29 33 40 54 84 94 94 97 98 95 93 89
99 99 95 86 81 79 79 82 83 80 83 81 77 83 84 90 95 96 79 81 73 83 83 78 63 55 48 37 25 22 23 26 34 64 88 88 92 92 92 92 90 87 87
97 99 97 87 85 86 83 79 81 77 75 79 77 81 87 88 92 98 94 92 90 78 81 73 53 45 35 25 22 21 22 28 36 54 76 78 78 74 81 79 81 80 76
98 98 99 95 85 88 85 83 74 70 74 80 81 83 86 77 80 91 99 92 96 79 81 72 52 41 31 26 21 19 20 30 49 62 84 84 83 81 77 76 76 75 78
100 100 100 98 93 90 89 87 80 67 68 69 76 81 81 78 79 94 92 96 95 86 81 64 49 38 34 27 20 19 22 34 50 59 80 82 79 77 71 68 69 71 70
86 93 93 92 99 98 90 88 85 80 68 69 71 73 76 79 78 98 96 98 98 91 80 64 54 38 35 24 20 20 26 36 49 59 72 73 66 66 66 64 64 69 69
40 70 80 86 91 100 97 90 88 84 80 75 75 72 73 78 79 85 98 100 97 89 81 68 49 38 31 23 21 22 27 37 49 53 56 56 56 54 66 62 66 62 63
30 32 46 72 88 97 99 99 90 91 88 84 81 79 73 72 80 79 83 92 90 86 80 62 44 37 28 24 22 22 28 37 44 43 42 43 44 50 51 50 53 57 58
31 30 30 43 68 88 96 100 98 96 91 89 86 84 80 72 75 81 80 85 89 85 83 60 41 35 27 23 21 23 25 36 43 41 38 36 35 36 28 23 23 27 30
27 29 27 29 35 47 90 99 99 98 99 99 92 88 85 82 72 77 83 82 90 88 86 57 40 34 27 21 21 27 26 33 44 43 37 35 33 29 25 22 23 24 24
26 25 25 30 31 50 98 100 100 100 99 99 100 93 89 86 81 74 76 81 83 89 84 60 38 33 25 22 31 39 35 39 47 45 37 35 31 28 25 24 24 25 24
26 24 24 24 29 33 70 90 96 98 99 100 100 99 91 89 87 81 73 75 78 90 80 51 41 33 25 25 34 43 39 38 38 38 39 36 32 28 26 26 26 26 24
30 28 26 25 25 29 43 85 97 95 98 99 100 99 93 93 91 87 80 79 79 86 81 64 46 40 27 28 24 32 42 36 39 38 35 36 32 29 28 27 27 26 25
26 31 28 27 27 29 34 86 94 91 91 97 100 100 100 95 94 93 86 86 86 81 78 72 57 43 36 29 28 28 27 32 37 37 41 39 34 31 30 29 29 28 26
36 32 37 28 28 27 30 67 95 96 92 94 98 99 100 100 100 98 91 87 91 78 73 69 56 44 38 31 26 28 29 28 26 31 36 38 43 38 33 33 33 31 29
40 36 35 39 35 27 30 54 99 99 98 100 99 100 100 100 100 100 98 90 89 87 73 74 58 48 46 32 28 24 23 30 34 34 32 36 35 42 37 37 37 34 31

GFSSE_925_rhum_030.txt.gz
RH
72 78 81 74 78 73 81 86 85 89 86 88 88 84 95 96 97 97 88 69 81 94 90 88 82 82 88 92 88 86 81 72 61 64 84 93 94 92 93 84 72 65 80
69 74 75 76 78 77 78 82 86 87 89 87 89 84 88 95 94 96 86 80 92 93 90 92 96 90 93 86 82 87 88 67 61 60 59 59 87 93 91 78 71 80 82
71 71 77 77 77 75 77 83 86 87 87 84 94 91 86 94 94 94 86 81 93 96 98 98 96 95 90 82 84 82 62 56 55 58 63 58 64 84 87 90 88 89 84
71 71 73 78 78 79 79 78 75 78 78 81 96 97 96 94 91 85 81 90 96 98 98 95 94 84 86 88 90 86 63 56 55 59 60 67 68 88 85 77 66 71 76
71 69 75 79 82 85 83 80 77 76 78 86 92 98 96 88 85 84 82 99 96 87 79 79 81 88 91 93 96 73 67 64 65 67 72 76 70 80 91 84 84 80 67
70 68 83 83 84 91 83 81 77 78 81 81 85 91 83 86 87 89 94 87 84 79 77 85 87 89 86 89 84 74 72 70 71 69 74 78 73 86 81 97 95 89 95
68 69 80 85 86 89 82 79 78 78 78 76 86 84 83 87 89 92 90 78 73 63 83 95 95 80 74 69 68 69 70 72 70 72 74 70 71 82 85 88 90 97 97
71 72 76 88 85 76 74 78 78 76 79 78 85 84 86 88 90 95 92 86 91 93 93 96 87 68 59 55 58 67 69 72 74 75 70 61 64 72 74 76 88 96 96
74 80 73 81 86 71 68 71 68 67 88 79 82 81 86 87 91 95 92 90 93 86 94 95 74 55 46 48 54 56 57 60 60 60 53 48 45 72 77 80 96 97 94
80 80 74 72 76 78 87 85 81 87 88 79 79 83 84 80 79 77 80 80 80 88 94 82 66 41 37 39 40 42 45 44 49 49 46 55 93 98 96 93 98 98 94
95 85 79 70 70 71 75 80 82 87 84 82 78 78 86 75 81 81 79 78 89 88 84 76 62 47 42 36 32 31 33 40 42 49 53 79 92 97 98 97 96 92 89
96 96 95 79 73 74 77 78 74 72 78 81 84 86 71 72 74 73 77 75 91 84 78 75 63 55 48 37 32 26 36 41 44 56 67 92 94 92 93 92 91 89 88
91 98 100 88 78 76 77 76 74 70 68 70 73 76 71 79 90 90 84 85 84 90 79 72 57 41 36 30 30 34 39 42 45 54 74 86 83 88 87 84 84 84 83
90 93 99 98 90 84 79 80 75 73 72 72 74 74 75 80 85 85 87 84 89 82 71 60 45 38 33 29 28 33 39 44 47 50 76 80 81 81 78 80 81 82 80
91 94 96 100 99 97 89 84 76 74 72 68 72 74 74 75 78 78 84 92 90 85 73 60 45 36 31 29 27 32 38 46 49 52 66 83 79 76 71 72 74 73 74
68 79 94 100 99 100 95 88 87 82 74 70 70 74 78 74 77 76 91 97 94 89 77 58 44 37 34 30 26 33 40 48 49 52 57 73 71 69 68 66 69 71 70
38 49 69 88 97 99 99 89 90 91 89 80 78 75 77 76 75 76 85 99 92 92 78 59 45 38 34 30 27 33 40 46 51 52 53 54 60 62 66 66 73 66 67
28 31 44 68 84 97 99 100 99 93 92 88 81 79 81 78 74 75 80 97 98 92 76 59 48 40 36 31 28 30 39 47 47 47 50 48 48 55 57 63 60 62 61
27 27 29 41 66 78 99 100 98 100 95 87 84 83 83 85 80 74 75 84 90 88 71 59 48 42 38 33 30 30 35 42 45 45 44 46 48 47 44 41 40 39 38
28 29 30 31 39 55 79 100 100 100 99 93 91 90 87 88 87 85 76 78 83 86 71 59 49 42 38 34 26 31 33 40 44 42 41 41 44 46 42 42 35 37 23
28 31 32 32 34 39 56 88 98 100 100 100 98 98 92 90 90 92 87 84 84 82 75 62 52 42 39 34 36 36 36 38 44 44 40 38 39 38 35 34 33 34 31
26 27 29 29 31 33 43 56 68 88 97 100 100 99 98 93 91 94 92 90 84 82 77 65 51 45 40 39 34 33 33 33 36 42 41 37 35 35 35 35 34 35 33
29 32 31 30 30 32 36 50 65 78 85 89 98 99 98 99 93 92 96 92 88 80 76 67 56 49 44 42 37 31 37 34 31 37 41 40 35 36 35 36 36 35 34
41 44 41 34 33 32 36 46 58 69 75 72 75 89 98 98 99 95 98 96 92 83 75 70 65 61 48 45 42 38 37 37 33 38 37 38 37 36 35 38 35 37 39
47 50 47 44 38 33 36 43 58 65 63 64 71 82 89 99 99 100 100 99 98 85 77 78 68 58 50 48 45 40 38 35 35 32 36 38 38 37 35 36 36 37 40
48 49 48 41 40 44 38 38 50 62 65 67 76 84 89 96 100 100 100 99 100 95 83 79 77 64 52 46 46 40 36 35 33 31 30 34 36 37 38 38 39 39 40

GFSSE_925_rhum_033.txt.gz
RH
62 79 79 74 69 77 84 86 90 86 82 84 86 87 94 96 89 92 85 86 94 90 86 88 92 90 93 88 87 87 78 58 53 54 66 90 92 91 84 68 68 71 89
60 75 75 74 73 71 83 85 85 86 88 88 84 85 94 92 97 88 87 87 90 92 86 94 90 93 88 87 90 88 66 54 51 56 64 64 87 90 81 59 74 86 85
58 70 75 74 74 80 74 83 84 87 84 84 80 89 92 93 96 83 84 92 91 92 97 96 96 92 85 83 83 80 61 52 50 57 55 58 72 81 84 79 74 90 87
57 66 69 74 74 75 76 84 85 87 83 81 86 92 93 95 92 84 83 92 99 99 99 97 89 84 87 89 90 87 59 49 51 58 55 58 70 86 88 86 68 64 73
55 61 73 75 76 77 77 76 75 81 82 79 91 95 95 90 84 81 96 98 96 87 82 77 69 81 84 94 90 76 63 59 63 62 67 71 65 81 86 94 93 81 73
54 58 80 80 80 80 77 78 76 77 77 84 87 90 87 86 86 87 94 88 83 78 74 74 76 75 81 79 76 69 68 64 66 64 67 68 74 84 91 94 91 87 94
52 62 78 81 81 81 79 77 78 79 80 85 82 80 87 88 90 95 94 86 83 74 73 88 79 73 72 70 68 69 70 69 67 65 65 62 74 76 78 86 96 97 97
53 62 76 81 83 83 81 78 78 83 80 77 81 82 88 90 92 86 76 73 65 74 93 92 76 64 57 57 60 67 66 69 62 64 59 58 53 71 73 70 95 97 94
56 58 68 78 86 76 76 78 76 76 81 77 78 75 88 90 92 77 74 77 81 84 96 85 64 51 46 50 54 56 52 59 52 54 41 44 44 78 78 84 97 96 93
60 60 59 64 71 74 78 70 79 78 81 81 78 70 81 85 85 89 84 89 90 90 96 79 59 39 38 40 40 40 38 41 43 44 43 66 95 97 97 95 98 96 92
64 64 57 57 60 63 69 81 72 72 90 82 76 76 74 72 80 68 86 78 82 90 92 78 59 42 39 36 33 30 33 36 38 44 54 80 96 98 98 97 95 93 90
84 69 61 56 56 59 62 75 78 82 91 79 76 90 70 63 66 64 78 78 92 90 87 76 63 51 46 41 36 24 34 36 40 50 78 90 93 93 94 95 93 92 90
85 89 86 65 60 60 62 64 62 61 67 68 76 81 67 61 68 70 77 79 94 87 89 78 67 54 41 34 31 32 34 37 40 48 82 91 90 90 88 88 87 88 87
82 87 91 86 67 63 63 65 62 61 61 59 62 63 70 65 71 80 74 71 69 75 68 66 52 41 39 34 31 31 35 38 40 45 76 81 89 86 84 84 86 85 83
69 84 89 96 87 70 67 66 65 64 63 61 61 62 61 64 75 79 84 82 77 78 65 60 48 40 36 32 30 31 34 39 42 47 75 82 80 77 74 76 79 76 80
60 71 84 92 97 92 76 71 72 66 64 62 60 61 62 60 63 66 71 83 83 83 73 64 52 40 35 33 30 30 34 40 42 45 65 82 78 68 70 72 72 73 75
42 50 61 77 92 96 84 78 75 75 70 65 62 63 64 64 62 63 65 74 81 88 77 68 53 41 37 35 31 31 36 40 44 45 52 62 69 64 64 70 75 69 70
28 30 37 52 72 82 82 78 76 72 77 75 70 65 66 66 66 63 63 79 80 93 82 72 56 44 40 37 33 31 36 40 43 43 46 50 53 60 64 73 66 66 64
25 26 27 31 46 61 70 85 95 86 75 74 72 69 68 71 69 67 65 68 79 89 85 73 58 48 43 38 35 31 33 39 41 40 44 45 44 52 53 60 61 58 48
22 23 24 25 27 38 53 70 88 96 98 82 69 68 69 71 75 72 70 67 86 89 85 71 60 50 45 41 34 31 32 36 39 39 39 41 42 47 44 50 38 32 26
24 25 26 27 27 29 34 46 88 96 98 100 93 70 72 74 76 79 77 70 71 82 84 70 61 51 46 40 32 34 35 34 40 40 37 38 38 43 44 43 42 37 29
23 24 25 27 28 29 30 32 43 74 88 95 96 97 94 84 80 80 84 82 75 77 79 73 62 53 47 40 40 41 44 36 35 39 39 37 35 38 36 35 36 35 33
31 33 30 28 28 28 29 30 36 49 64 79 91 96 98 99 89 81 83 89 84 79 81 76 66 56 51 44 43 42 49 47 36 36 40 40 36 35 35 36 35 34 36
40 45 40 39 33 30 30 30 34 42 56 66 67 73 86 92 96 94 84 87 88 86 87 80 71 60 55 50 46 41 37 38 46 49 39 41 39 35 36 36 36 36 36
43 48 47 40 35 36 33 33 34 39 46 55 60 61 64 77 89 94 92 88 94 91 90 84 75 63 61 59 53 46 42 36 39 43 50 42 40 38 36 36 38 36 38
46 49 48 43 37 35 38 40 35 39 42 49 54 57 62 69 79 84 91 92 94 92 95 89 81 70 70 64 58 51 44 42 40 38 45 44 43 40 37 36 36 37 38

GFSSE_925_rhum_036.txt.gz
RH
78 66 70 70 74 81 80 84 86 86 87 91 94 95 86 89 85 84 88 88 86 94 95 91 95 92 90 90 87 64 54 50 47 47 62 89 91 83 80 81 83 86 90
77 78 77 70 70 78 80 82 85 85 85 85 87 86 83 85 86 86 84 86 94 87 93 94 92 89 92 91 88 72 50 46 55 65 64 58 80 86 77 74 74 88 86
77 81 76 75 70 77 88 80 84 86 87 85 84 90 93 98 90 84 93 90 95 90 97 97 91 89 90 89 87 78 48 50 60 64 68 68 62 81 75 56 72 88 82
73 77 76 74 74 77 77 82 81 87 81 76 81 92 91 97 88 82 93 98 95 99 98 79 84 89 88 91 87 53 44 57 61 65 68 74 79 90 90 95 70 73 91
66 69 77 76 77 75 77 84 86 80 75 75 84 92 96 90 82 95 98 98 89 84 76 66 81 83 88 82 71 58 55 64 65 68 68 68 72 88 95 96 93 83 84
60 70 76 75 75 77 77 74 74 78 72 70 82 86 89 86 86 97 94 85 80 75 72 68 72 71 70 69 64 63 62 66 65 66 67 71 73 89 94 95 90 96 99
68 75 75 80 80 77 74 72 75 79 77 69 78 84 88 90 95 96 88 82 79 78 91 94 73 65 64 62 63 63 64 68 66 66 63 65 66 74 83 94 97 96 96
70 78 80 80 81 80 76 74 73 82 81 74 75 83 91 93 94 96 84 81 78 93 92 74 62 55 52 53 64 63 63 67 64 62 57 54 47 72 72 91 97 96 94
62 74 82 82 82 81 79 77 75 76 76 73 75 66 88 93 95 95 91 75 73 88 90 72 56 48 46 52 55 54 62 52 54 48 52 54 46 79 77 96 96 95 95
57 67 77 83 82 77 79 79 79 76 79 74 77 65 67 64 75 88 84 87 86 92 92 73 52 39 40 40 40 38 36 43 42 42 46 68 90 94 96 97 97 95 82
60 59 63 71 71 71 67 73 79 78 83 73 74 73 61 60 55 64 85 83 87 90 91 75 54 41 40 37 34 28 36 37 40 48 58 82 95 91 95 96 85 95 93
67 61 56 59 62 64 71 65 64 71 73 75 72 78 63 72 62 67 78 82 81 90 86 78 62 48 45 40 35 26 33 36 43 71 69 85 95 87 87 90 91 94 92
76 73 64 56 56 60 64 68 78 84 80 75 74 75 68 66 66 68 72 72 81 89 83 78 67 55 42 39 31 32 34 36 44 58 74 89 94 93 93 91 91 90 90
80 78 71 68 60 59 61 67 64 68 70 79 79 74 69 64 68 69 73 72 67 79 81 76 62 48 42 37 32 32 34 38 40 55 70 83 92 90 88 88 89 88 89
78 82 84 79 73 63 62 63 63 61 62 61 63 72 72 64 67 66 72 73 68 75 71 68 61 47 41 36 31 31 33 39 42 55 64 80 87 84 82 84 84 84 85
66 79 84 85 78 76 68 65 66 65 63 62 61 62 65 68 66 65 71 82 80 71 71 68 61 47 39 34 32 30 32 38 43 50 67 69 82 75 72 77 77 79 83
58 66 77 82 87 85 80 74 70 70 67 65 62 61 62 62 66 72 71 71 80 83 76 71 64 53 39 35 34 30 33 38 43 45 60 61 79 72 60 73 75 74 76
31 42 64 78 82 84 87 86 77 72 72 70 67 63 62 63 63 63 64 70 68 72 83 76 69 55 41 37 34 30 33 38 43 45 54 59 55 64 58 73 77 72 72
24 26 27 41 74 76 80 79 82 78 78 74 74 72 67 65 66 66 64 65 73 70 75 80 76 60 44 40 36 32 32 37 42 43 45 51 52 52 56 71 69 69 64
22 24 24 26 29 34 63 73 78 79 77 82 79 75 72 70 69 68 68 66 68 77 75 77 79 63 50 43 38 34 31 35 40 42 42 45 46 54 54 50 58 56 41
23 24 24 26 26 26 29 42 71 80 80 76 84 79 74 70 70 76 72 72 73 75 76 76 80 64 53 46 38 31 33 33 37 40 40 41 43 44 49 48 45 44 30
23 24 25 26 28 28 29 30 36 73 76 71 73 70 76 79 76 74 79 78 75 82 84 83 76 67 56 47 37 37 56 42 35 38 41 38 39 40 44 46 44 35 37
38 37 36 31 28 28 28 29 30 31 50 80 86 85 78 78 87 86 82 76 80 78 84 88 76 69 57 49 40 46 68 64 45 36 39 40 38 38 41 42 37 37 35
46 48 45 40 38 33 29 29 30 32 37 46 71 76 80 78 77 79 88 95 80 84 79 81 85 74 61 52 43 44 45 41 54 51 38 41 39 37 37 38 35 35 35
47 50 50 46 38 35 39 37 33 34 35 38 43 61 68 70 74 85 84 88 98 86 90 86 87 82 67 62 56 48 50 43 41 54 57 46 42 40 36 36 35 35 35
48 50 50 44 43 40 37 37 41 37 36 40 43 53 58 59 64 72 80 78 82 88 93 96 95 92 76 67 61 60 53 52 48 47 60 53 47 46 41 37 37 37 36

GFSSE_925_rhum_039.txt.gz
RH
87 75 64 72 87 82 84 86 85 87 89 90 97 87 80 88 85 80 83 88 97 94 93 95 92 93 92 89 74 53 56 75 62 55 50 76 85 92 93 94 87 89 85
71 70 67 84 80 79 85 82 84 84 86 85 92 90 88 87 88 79 81 95 96 96 92 92 93 94 93 91 66 48 48 61 65 66 52 41 65 80 84 75 89 83 84
71 77 70 73 72 74 78 79 81 86 86 83 89 84 96 89 83 94 88 95 94 98 96 92 92 91 90 81 50 46 60 64 70 70 75 64 60 84 75 65 89 89 86
75 76 75 69 74 87 72 73 79 82 81 70 74 88 97 87 83 92 98 97 98 98 93 84 85 88 84 51 38 52 62 66 75 72 76 85 74 93 97 80 83 96 84
75 78 78 74 72 72 77 73 73 75 71 71 77 84 90 83 92 99 99 96 91 81 85 80 86 89 73 58 48 57 65 69 67 74 77 71 82 94 97 97 92 94 95
76 76 78 79 74 75 82 73 75 75 70 73 78 77 85 87 96 98 95 82 78 75 59 59 66 63 62 59 56 65 67 69 70 70 67 69 75 92 97 93 99 94 96
75 76 77 78 78 77 76 74 76 74 72 73 74 80 89 90 96 94 84 82 79 68 60 61 62 60 60 60 60 66 69 70 66 66 63 54 69 79 92 96 97 96 86
74 75 74 78 79 77 74 74 74 75 71 73 73 88 92 95 96 96 81 77 72 90 74 64 54 49 49 58 58 65 69 67 64 59 55 49 60 74 80 96 97 94 95
74 77 79 81 80 77 75 75 77 73 75 72 72 74 84 82 95 97 87 81 91 93 77 60 51 45 46 49 51 59 56 56 56 45 53 52 62 79 92 96 96 96 96
70 71 78 82 82 81 78 76 75 76 74 71 74 64 72 60 62 76 78 85 88 91 84 62 45 40 41 41 39 44 47 44 41 44 47 78 89 85 96 97 98 96 94
73 71 72 75 79 80 78 78 79 76 75 74 74 69 56 58 64 67 78 80 83 88 88 69 47 39 38 37 32 30 37 38 43 49 57 79 88 96 93 94 81 92 96
72 76 72 70 61 60 67 77 79 79 80 76 72 75 57 50 50 65 79 80 79 86 85 77 56 45 45 41 31 31 34 38 45 59 68 78 95 77 91 79 83 96 93
73 76 76 66 62 68 72 56 75 79 76 78 73 74 74 64 66 65 71 78 72 86 83 77 65 52 44 40 34 32 34 36 52 57 73 82 91 88 94 95 95 94 92
74 74 74 66 64 66 70 67 56 66 75 80 74 74 72 69 74 74 68 69 69 73 80 75 70 61 45 39 33 32 33 34 41 58 65 77 87 92 92 92 91 92 92
70 70 70 72 65 66 65 66 65 68 73 68 75 77 73 66 72 69 69 70 69 58 70 73 71 53 44 40 37 32 33 36 41 58 60 74 82 86 88 89 88 89 89
77 75 63 71 71 68 70 67 66 64 65 64 69 72 76 69 68 69 69 73 72 71 71 72 71 61 48 41 36 31 32 36 41 55 61 71 78 83 80 83 84 86 85
68 71 72 59 70 72 70 66 67 67 66 63 62 62 65 73 71 68 68 70 78 79 74 72 70 64 51 41 35 33 31 34 41 51 63 63 69 79 72 77 80 83 84
63 71 71 73 68 69 75 72 68 71 69 67 65 64 62 62 64 67 70 69 68 78 80 78 69 67 60 44 36 35 31 33 39 44 57 62 60 69 71 72 78 78 80
31 53 65 74 74 72 69 71 72 73 70 70 73 68 64 62 62 63 67 69 71 72 78 78 79 71 65 46 38 36 32 32 38 44 46 59 59 55 61 60 78 76 77
24 26 28 44 76 72 72 76 75 77 76 77 76 77 72 70 67 64 64 65 66 69 72 75 75 77 74 60 42 39 36 32 36 43 45 48 54 53 48 53 75 69 69
23 24 25 25 28 41 77 87 85 84 77 70 71 73 78 77 77 72 68 68 68 67 70 74 77 79 79 57 46 40 37 33 34 38 43 45 48 51 53 52 54 64 61
26 25 25 25 26 27 30 33 55 79 80 76 72 68 64 67 72 73 74 74 75 70 71 79 83 83 81 62 48 41 49 40 33 35 40 42 44 45 51 56 51 50 52
37 36 37 35 31 28 28 29 29 31 57 74 71 72 70 67 62 62 64 69 83 82 77 79 81 89 76 67 57 48 72 66 50 36 35 41 41 43 44 47 51 47 44
46 47 46 43 38 36 36 33 29 30 33 33 41 65 66 67 73 72 67 67 71 87 94 89 83 83 85 73 56 47 51 48 59 56 40 38 44 40 42 43 44 46 42
48 49 48 46 42 41 39 41 41 38 34 33 34 39 43 58 72 69 72 75 77 80 88 100 95 95 91 82 71 54 53 57 45 58 68 60 43 44 40 40 42 42 38
50 50 50 50 49 47 46 45 43 44 45 43 38 38 41 46 64 66 64 72 80 76 81 84 95 100 99 93 79 71 56 56 65 60 77 69 62 50 45 42 43 42 36

GFSSE_925_rhum_042.txt.gz
RH
89 80 72 85 80 84 84 84 84 87 89 93 98 90 82 87 83 87 90 96 96 96 93 92 93 95 93 88 87 89 92 92 85 55 56 80 94 91 92 94 88 84 88
86 81 70 84 83 82 82 84 84 87 87 93 95 99 89 82 76 90 96 96 96 91 91 91 93 94 91 88 77 87 92 70 66 59 46 49 68 89 94 91 79 85 85
77 85 77 87 84 83 83 86 85 86 85 89 96 97 86 75 74 94 96 97 97 95 94 93 92 90 79 51 55 67 68 68 70 75 68 63 75 83 75 79 92 88 89
66 86 88 86 82 83 80 82 86 86 90 82 82 91 81 68 92 95 96 96 97 96 89 87 88 85 56 52 64 67 71 77 76 77 79 74 92 97 81 78 96 89 94
74 75 78 76 82 78 73 80 81 83 79 76 76 84 80 88 97 97 99 96 86 80 66 74 78 58 47 45 62 68 73 76 72 74 75 74 79 97 97 89 97 96 96
75 72 72 80 83 72 73 79 80 79 71 73 73 66 88 94 99 95 93 87 79 71 70 57 55 55 52 50 66 70 71 73 74 74 72 68 69 97 96 98 92 96 91
81 81 80 75 74 80 76 78 76 76 72 75 70 85 91 96 96 96 82 75 69 54 64 60 57 56 55 55 66 69 72 71 70 68 62 50 73 91 98 96 98 95 80
78 81 82 80 77 78 76 76 77 75 71 73 70 91 92 94 98 98 82 77 66 54 60 60 53 51 53 55 64 70 70 68 65 61 53 48 67 75 96 97 95 93 93
77 78 77 77 78 78 76 73 76 77 72 72 70 84 91 87 93 99 92 94 93 86 69 56 49 45 48 53 60 69 61 63 56 48 50 51 70 78 94 97 96 90 96
77 77 78 79 79 76 76 75 74 78 75 72 70 54 67 68 89 81 74 70 87 88 70 56 45 43 45 47 52 65 51 47 43 45 50 75 84 91 96 97 96 93 96
79 78 80 79 80 76 75 78 78 77 77 73 72 58 50 47 58 62 59 66 86 89 81 60 42 40 40 38 36 45 41 39 43 48 58 81 90 94 97 83 79 84 97
84 81 76 76 78 80 76 78 82 81 81 76 74 73 52 49 51 58 69 73 82 89 88 74 51 42 41 39 31 30 36 39 45 54 63 78 94 94 87 78 81 92 97
79 77 76 73 68 73 78 77 79 81 83 80 75 73 72 51 54 67 78 81 79 78 86 81 68 50 46 41 32 29 34 37 44 63 71 76 93 91 82 85 88 97 94
82 78 77 75 68 62 64 67 72 77 81 83 78 74 75 63 65 70 66 66 68 66 78 77 72 64 53 42 39 33 33 35 41 58 69 72 79 89 92 95 95 94 93
78 83 79 76 72 69 72 64 62 68 72 74 79 76 75 72 67 71 71 69 68 69 64 67 68 67 59 46 40 34 33 34 38 51 66 75 73 82 93 92 91 90 91
71 73 76 80 74 70 73 71 67 63 62 71 75 74 75 76 67 70 70 71 71 71 66 61 68 67 61 48 42 40 33 33 36 44 61 71 77 78 85 90 88 86 88
64 60 64 71 75 79 72 71 70 68 67 68 69 68 70 73 75 69 70 70 72 72 72 71 73 74 70 60 46 40 34 32 34 40 52 68 72 77 79 86 85 84 86
73 70 62 63 68 73 77 74 71 71 70 70 66 65 65 66 72 74 71 70 72 74 76 76 74 75 74 65 56 45 37 33 32 36 47 65 69 71 74 74 82 83 84
67 70 71 69 66 66 72 74 72 69 74 74 68 64 65 65 64 67 72 71 71 74 80 82 80 78 76 64 65 55 38 35 32 34 41 57 66 65 64 68 72 79 83
36 56 75 79 78 77 74 74 76 77 73 73 70 69 72 67 65 64 65 64 66 73 75 78 84 82 82 76 64 54 42 36 33 33 38 45 57 63 60 60 66 77 77
26 26 27 47 76 83 86 86 83 82 79 74 72 74 73 74 79 79 74 68 67 69 69 72 74 82 80 83 68 48 42 42 38 34 36 43 48 58 61 55 54 67 73
30 30 32 31 30 30 39 65 85 89 88 84 81 74 72 74 74 72 72 72 76 74 73 75 81 89 88 88 70 52 50 49 41 39 34 38 42 48 57 56 53 54 67
38 39 37 36 36 37 32 30 30 32 45 65 67 71 64 69 75 75 71 73 73 73 75 75 79 86 96 89 82 65 68 68 58 40 36 35 40 44 50 56 56 56 58
48 46 44 44 41 40 41 41 39 34 33 31 33 34 36 55 68 73 76 75 74 78 84 81 86 95 99 96 86 70 67 56 67 71 44 39 37 45 46 50 56 59 57
49 47 46 46 46 45 42 41 42 44 46 45 41 38 36 37 45 43 67 80 70 66 76 77 84 95 97 100 94 78 66 72 65 66 72 62 49 40 44 46 49 55 57
53 51 51 52 54 53 53 52 50 51 50 48 48 51 52 46 41 46 60 66 77 74 76 77 81 91 92 99 100 95 84 79 85 75 86 82 85 64 52 51 53 54 54

GFSSE_925_rhum_045.txt.gz
RH
85 84 77 83 82 78 83 88 89 90 92 98 94 82 77 78 83 76 96 90 96 93 92 93 96 96 92 90 94 90 88 76 53 56 68 86 94 90 93 95 77 84 93
86 84 74 85 81 84 85 82 86 88 88 94 96 96 84 80 83 90 95 95 91 92 90 92 96 94 82 78 92 84 78 66 60 46 45 55 70 93 92 76 84 85 91
88 80 84 78 85 82 84 83 85 86 88 90 97 90 80 74 94 96 96 97 96 95 93 93 93 90 85 77 89 90 87 72 74 67 62 72 90 69 74 78 85 90 82
76 76 87 81 80 80 78 84 84 86 89 84 91 79 69 75 92 96 94 95 94 94 86 87 87 83 72 76 80 75 75 71 72 73 67 80 89 94 72 81 96 92 91
83 74 89 82 84 78 79 82 85 88 85 83 81 70 62 92 92 88 91 90 76 65 58 73 62 58 67 72 72 75 73 71 72 73 72 65 86 98 94 91 96 98 96
80 84 86 82 81 79 84 86 86 82 78 80 71 58 73 95 91 91 96 84 75 56 44 46 51 48 51 68 73 75 71 69 71 73 68 53 88 95 95 93 96 96 92
79 81 81 79 78 77 86 83 84 76 73 72 65 78 94 100 88 95 87 78 69 46 49 50 53 53 53 67 71 73 73 72 72 69 59 46 58 95 95 95 94 87 79
74 73 77 84 73 79 86 87 83 76 72 70 58 90 91 90 93 100 84 79 66 66 67 61 57 54 55 61 69 72 71 71 68 64 51 47 52 84 98 98 87 84 92
82 83 79 77 84 84 84 82 78 77 72 69 57 71 93 90 97 99 84 76 76 87 75 62 55 52 58 60 67 71 67 68 62 52 50 50 54 76 96 97 92 86 96
85 83 82 79 76 80 81 77 75 75 73 71 63 60 69 76 89 94 78 76 78 70 58 52 48 49 53 58 63 66 56 56 50 46 48 62 75 89 98 98 96 88 96
82 81 80 78 75 78 79 77 79 79 76 74 70 58 63 65 81 71 71 68 88 84 71 53 41 40 42 44 47 60 48 43 42 46 56 78 82 97 92 81 77 81 90
84 81 80 79 77 78 77 79 81 79 81 76 74 65 54 52 59 64 60 66 88 90 88 73 50 41 40 38 35 36 39 38 40 50 60 77 90 97 94 78 80 85 93
80 83 83 80 78 75 76 79 83 85 85 81 76 74 64 51 55 60 66 69 73 83 84 82 72 52 44 43 40 26 33 35 38 48 63 73 80 96 79 81 81 87 97
82 79 77 79 76 77 75 78 81 85 85 84 79 77 75 65 49 52 62 71 71 70 69 78 76 70 57 49 42 38 33 34 36 44 61 69 77 94 90 90 96 97 95
82 78 75 78 74 74 78 75 76 76 82 81 80 78 76 75 62 54 59 61 64 69 65 68 71 72 68 60 52 41 35 34 34 37 50 68 72 79 92 94 94 93 92
82 78 75 79 73 70 68 71 68 68 70 76 75 78 77 76 75 60 66 69 71 71 70 69 64 62 67 62 51 44 40 38 34 35 42 61 73 78 80 93 92 90 88
81 82 80 75 77 72 70 71 72 66 69 67 67 71 76 75 77 76 67 69 69 69 72 75 73 70 75 75 66 59 48 42 34 33 36 49 65 76 82 87 91 89 86
68 72 74 80 82 82 71 69 74 72 71 70 70 70 70 72 74 76 78 74 71 71 72 76 76 76 77 78 76 67 59 57 40 34 34 39 54 71 78 80 80 88 85
63 65 68 73 76 78 81 78 75 74 73 72 71 72 70 70 70 70 73 73 74 74 73 76 78 80 80 78 77 73 59 52 55 42 36 34 39 56 68 72 72 78 83
69 68 71 73 76 78 79 84 85 84 82 82 81 78 74 70 68 68 71 71 75 79 79 80 82 82 84 82 81 80 69 59 52 48 42 37 36 42 58 67 67 69 76
39 55 72 76 78 82 85 87 85 82 81 82 81 80 80 76 76 76 73 70 71 76 74 77 84 93 95 94 92 83 78 66 50 43 38 40 39 38 47 62 66 66 71
32 32 32 41 46 53 66 87 92 89 86 84 80 80 81 83 81 79 77 73 73 78 80 78 82 92 95 98 93 74 77 66 58 55 50 45 41 39 42 53 65 65 64
39 37 35 34 32 31 30 32 37 45 49 62 80 81 80 85 85 85 87 88 86 86 84 80 82 89 98 96 97 87 79 82 69 56 53 48 44 40 43 53 62 67 61
51 49 47 44 41 39 38 36 35 33 34 32 32 33 34 36 41 52 65 72 75 79 82 77 78 90 95 100 99 96 88 78 72 79 54 47 45 45 49 51 53 62 67
52 49 49 49 49 51 47 44 44 46 47 46 46 44 39 34 34 36 43 42 57 82 81 82 85 88 90 99 100 98 91 89 85 76 84 75 63 56 53 45 45 53 61
56 54 54 53 55 55 55 56 55 55 54 52 51 52 54 55 53 46 43 57 64 72 81 81 83 84 85 87 100 95 97 89 88 88 92 84 83 73 72 77 83 84 73

GFSSE_925_rhum_048.txt.gz
RH
83 81 73 88 82 87 93 95 94 92 98 98 89 80 73 67 61 95 88 96 95 95 95 97 95 95 95 97 98 78 84 68 46 49 71 89 91 91 92 77 68 80 90
82 82 73 85 81 78 83 82 86 88 88 94 95 79 73 68 81 96 96 91 91 90 91 95 96 93 92 94 93 78 68 59 47 42 45 53 68 92 84 83 76 86 89
85 85 77 85 76 75 82 83 85 86 89 87 82 82 77 75 95 96 97 97 97 94 92 93 94 92 90 94 92 72 68 67 63 58 65 88 95 64 67 72 81 82 86
84 82 83 80 83 83 80 82 84 88 90 88 90 79 72 91 95 94 98 94 97 87 88 89 83 79 69 80 78 73 70 69 70 64 64 79 98 82 76 95 96 90 92
85 79 83 81 82 80 81 82 83 89 86 94 83 68 84 92 95 91 94 85 76 50 80 83 79 70 76 78 77 72 70 72 72 70 61 78 95 97 92 94 97 97 95
79 84 88 81 80 78 83 83 88 84 83 85 66 63 93 92 90 93 90 80 74 44 58 66 61 66 72 74 73 72 69 68 71 67 52 66 91 95 92 95 97 98 96
80 89 85 84 81 78 82 84 86 80 78 75 56 64 95 83 81 88 92 83 71 58 62 62 61 56 67 75 75 74 73 72 71 64 50 47 78 96 96 96 92 91 87
80 90 84 83 81 77 87 88 82 78 75 70 50 54 91 82 85 99 83 76 54 61 65 64 62 63 65 73 75 72 72 73 69 60 49 48 48 89 95 90 86 83 91
82 85 79 77 77 79 88 86 83 78 75 68 50 68 75 85 90 98 88 75 53 57 56 49 49 56 60 63 72 70 69 70 63 54 49 51 53 78 95 89 89 85 95
82 80 88 80 81 85 80 81 79 79 73 68 59 78 86 83 87 91 78 78 66 65 56 51 48 46 52 56 64 69 58 58 48 43 46 65 71 86 95 85 82 82 91
93 84 80 78 87 88 85 80 79 76 76 74 68 55 69 73 86 91 77 73 87 79 63 52 43 43 45 48 52 62 55 45 39 42 50 72 76 96 88 75 76 79 82
92 87 84 81 77 82 84 81 81 79 80 77 74 62 48 51 68 74 72 68 95 89 83 71 49 41 40 39 38 37 41 37 37 41 52 68 81 97 80 77 75 82 88
86 86 84 81 78 80 82 81 82 82 83 80 78 73 60 48 54 61 57 60 78 88 84 82 73 57 45 43 42 38 28 33 34 38 49 65 77 91 84 80 80 81 85
85 83 83 83 82 79 80 80 83 84 86 84 80 78 74 64 51 53 57 67 68 71 74 75 78 75 67 55 48 43 40 34 34 36 43 61 72 77 85 88 85 88 96
84 81 82 82 78 80 78 79 83 85 85 83 83 80 78 75 70 53 49 58 64 70 69 69 71 76 74 69 65 58 47 39 35 35 36 48 64 74 90 92 97 91 91
80 79 77 75 74 74 76 78 76 77 76 81 83 81 80 78 77 74 60 59 65 66 69 72 74 77 74 71 69 60 51 44 41 39 35 38 50 63 74 92 91 90 86
78 75 78 75 76 74 70 67 71 71 71 73 71 74 77 80 77 77 77 67 66 69 72 74 75 78 77 74 75 73 67 63 53 48 39 34 38 49 61 78 93 91 90
80 80 79 77 77 79 74 70 72 74 69 69 70 68 71 75 76 77 77 76 74 73 73 74 74 76 78 79 78 78 77 72 63 57 45 41 36 38 49 62 76 89 89
77 80 84 84 81 78 77 73 71 72 76 72 73 72 72 74 74 76 76 74 75 78 79 80 78 77 78 80 81 82 81 80 74 63 59 55 50 41 39 49 66 75 80
71 73 80 80 82 83 87 87 82 79 78 79 77 76 75 76 77 76 74 73 75 79 80 82 83 83 84 85 89 89 88 86 83 74 64 56 47 42 41 43 55 69 75
63 68 72 81 84 87 90 92 93 91 90 87 83 82 84 84 85 82 78 75 76 78 75 77 85 88 92 95 100 95 94 90 79 79 76 66 52 44 40 45 57 67 71
37 44 55 67 77 83 91 93 94 93 93 90 87 87 88 90 92 93 90 87 85 86 84 85 86 95 100 99 98 91 90 77 70 66 65 63 56 47 44 43 47 64 74
38 38 38 38 37 37 41 50 60 67 70 71 75 84 88 91 94 97 97 96 94 96 95 89 88 92 100 99 99 97 90 88 74 68 58 63 55 51 49 47 45 47 62
48 45 40 38 37 37 36 34 33 34 35 35 36 35 35 35 36 39 45 55 69 79 88 85 87 91 98 99 98 98 98 94 91 91 67 61 68 66 63 58 54 48 53
54 49 47 45 43 43 42 41 42 44 46 46 45 43 42 42 41 39 37 38 48 54 60 88 96 92 92 99 99 98 97 97 95 92 95 82 72 69 73 72 67 66 51
58 56 55 52 52 52 52 51 50 51 51 50 50 49 48 47 47 50 53 51 55 69 78 79 97 94 88 85 90 100 99 91 92 95 97 90 87 81 77 76 77 76 75

GFSSE_925_rhum_051.txt.gz
RH
81 91 76 81 88 86 89 98 97 99 97 99 84 74 68 69 85 95 98 97 96 95 97 90 95 99 99 99 86 62 56 48 45 68 64 82 92 87 81 61 74 92 87
79 93 75 83 88 86 89 87 89 94 96 95 90 78 71 75 96 93 90 92 90 90 92 95 94 95 96 95 78 68 62 50 44 48 58 62 79 86 86 70 80 95 96
79 94 84 84 85 86 83 86 88 86 89 83 82 79 71 79 97 89 96 96 91 91 93 95 95 96 96 94 82 73 68 65 59 66 76 95 83 80 77 87 81 86 94
82 92 94 83 81 80 84 84 85 88 87 74 76 74 78 90 96 96 97 96 86 88 91 87 87 94 89 75 70 68 68 68 66 58 81 97 95 91 92 97 90 94 96
92 80 91 79 80 81 82 82 85 88 78 79 74 67 90 93 93 98 86 75 51 73 75 74 76 74 73 72 68 68 69 70 68 53 69 97 98 95 95 97 100 98 96
85 86 84 81 84 84 83 84 84 78 72 71 61 92 88 86 91 79 87 77 48 60 77 63 66 73 73 71 70 68 65 67 65 53 44 87 98 96 98 95 94 96 92
86 87 92 87 82 83 84 85 84 74 74 65 51 93 90 82 80 85 87 77 46 59 68 68 60 66 70 73 72 71 72 69 64 52 43 44 84 96 97 92 91 92 88
86 94 94 85 79 81 83 87 82 75 74 63 48 80 80 79 83 94 82 71 42 52 58 57 54 53 63 66 68 67 69 68 63 50 45 46 48 93 97 85 88 92 94
82 94 94 90 78 81 87 88 78 76 75 63 48 85 83 80 83 91 77 69 58 66 63 59 57 58 60 65 68 65 66 65 55 48 43 55 55 79 94 80 80 87 93
90 89 84 89 75 81 92 82 82 79 75 68 51 68 86 87 90 98 84 69 64 70 58 53 51 52 56 56 61 65 56 53 42 41 46 64 68 87 85 74 76 82 85
92 88 85 87 76 81 85 80 81 78 76 73 62 57 66 72 74 89 82 76 68 69 60 53 46 45 47 49 49 54 57 46 37 39 47 67 74 91 85 75 72 77 82
98 92 91 86 85 87 85 82 82 80 79 77 72 60 55 55 66 72 73 70 88 90 81 70 51 42 41 40 39 37 36 36 34 36 45 58 75 89 83 78 72 77 80
92 89 85 82 87 89 89 85 83 81 83 80 78 72 56 48 55 62 63 61 80 89 86 84 77 64 50 44 44 42 37 28 32 34 39 52 59 80 86 83 81 78 81
93 88 86 84 82 83 87 86 83 83 83 83 80 78 72 61 47 50 52 54 60 67 75 79 78 78 74 69 61 54 48 43 37 35 36 39 50 72 76 81 79 81 90
90 87 86 84 83 81 83 84 85 85 85 84 84 81 78 73 69 57 48 52 62 69 70 71 71 71 74 73 68 66 60 54 44 38 38 36 39 52 67 92 95 90 85
88 86 84 84 85 82 78 78 79 83 83 85 85 83 80 78 76 73 70 55 56 63 66 71 74 76 78 77 73 71 70 63 58 51 47 41 36 40 52 67 91 92 89
88 83 81 80 81 79 74 74 74 74 75 76 77 80 82 80 80 79 79 78 68 66 71 73 75 77 78 78 78 76 76 75 71 68 60 54 45 37 40 50 79 91 92
87 82 80 80 79 80 74 70 69 71 73 72 74 76 75 76 79 82 82 78 76 78 76 76 76 78 77 77 78 77 78 80 80 78 74 65 59 52 43 42 50 75 90
84 82 84 84 82 79 78 75 73 72 74 74 72 72 72 73 74 78 79 78 78 80 81 82 82 82 81 82 79 80 82 83 84 84 81 78 64 55 49 44 47 60 76
82 81 83 86 84 83 81 82 82 78 75 74 75 74 74 75 76 79 81 80 80 82 82 80 82 83 85 88 91 91 90 92 92 88 84 83 81 66 57 51 43 50 67
72 81 81 85 84 85 88 93 92 88 82 80 79 78 79 80 85 86 87 84 82 80 78 80 87 88 93 91 100 97 86 86 81 71 69 70 73 75 65 51 44 45 55
48 64 70 78 87 90 91 92 93 90 90 90 89 91 93 94 95 97 97 95 94 90 86 88 90 100 100 100 99 98 90 72 67 64 62 62 59 61 59 54 50 48 46
42 45 50 58 68 78 88 96 98 98 96 93 93 94 96 96 98 100 100 100 100 100 100 98 99 100 100 98 98 98 90 80 76 70 69 63 67 65 62 61 60 56 50
48 45 42 42 40 39 37 38 38 39 38 38 38 38 38 37 37 38 39 44 51 65 81 85 93 99 100 100 98 89 98 97 94 91 72 67 71 73 68 70 73 68 58
54 49 47 44 42 42 41 41 41 42 44 45 45 44 46 48 51 52 53 48 43 45 53 58 66 93 100 100 95 92 96 97 99 94 91 84 76 74 80 76 75 74 74
58 56 53 49 48 48 46 45 46 47 49 50 50 48 46 45 45 49 51 55 58 64 66 73 81 91 100 100 100 98 99 94 91 92 93 92 88 81 78 77 80 77 75

GFSSE_925_rhum_054.txt.gz
RH
72 79 82 83 86 88 87 89 88 89 91 96 97 97 93 97 95 97 97 96 93 89 90 92 88 92 96 95 90 82 75 61 56 53 69 86 88 84 78 76 90 85 95
64 73 82 82 85 87 86 88 90 90 90 92 97 96 94 94 96 93 92 89 89 90 89 93 96 97 96 96 89 82 62 51 60 67 72 64 66 83 64 72 88 94 97
66 69 86 82 85 84 87 88 89 86 89 89 96 94 93 98 92 96 95 90 90 93 95 95 98 98 96 93 80 68 59 54 58 73 80 69 71 89 98 84 81 86 92
66 70 75 80 81 83 86 88 88 88 81 81 83 77 90 98 97 98 96 86 89 92 94 96 97 93 79 73 66 66 64 62 50 76 71 74 74 93 98 94 97 99 98
67 68 77 81 81 85 84 87 85 83 69 69 70 70 78 96 97 96 77 59 77 86 86 88 82 72 71 66 66 66 68 61 53 56 77 92 84 96 98 95 96 97 98
67 69 86 80 80 82 84 83 84 73 65 54 64 88 82 95 96 83 75 40 45 68 73 70 70 70 65 67 66 62 62 60 60 50 60 82 93 97 98 96 93 95 91
65 72 89 82 82 82 82 85 83 71 68 46 83 85 88 90 81 82 77 53 49 54 50 47 56 58 62 65 65 65 64 60 54 51 50 55 87 99 95 87 90 92 96
67 74 85 91 84 83 85 85 78 72 67 47 84 81 88 84 81 89 80 64 64 63 62 59 54 60 65 66 64 66 65 60 55 51 55 54 55 97 90 82 89 93 96
72 73 84 88 90 83 86 86 75 71 66 45 87 89 82 80 82 85 76 59 72 72 61 58 58 56 57 64 65 62 62 54 48 50 54 61 55 86 87 76 80 84 89
82 81 79 81 82 86 92 84 77 76 71 54 64 85 82 81 86 97 81 64 64 62 54 52 52 58 58 57 60 60 52 45 46 53 56 71 68 81 91 73 75 73 73
75 80 75 79 73 76 94 84 83 79 74 66 57 69 81 72 81 90 87 67 70 64 56 51 48 49 50 51 48 50 52 44 40 43 53 57 72 84 93 84 83 74 72
72 74 77 79 76 75 96 84 85 78 83 81 77 72 62 67 72 78 82 70 79 84 75 63 50 45 45 48 46 39 38 37 36 44 50 46 66 81 97 87 84 80 80
66 71 77 83 81 78 85 86 83 82 80 83 82 77 66 67 75 75 73 74 77 87 83 84 82 69 59 52 50 45 42 38 36 41 46 39 49 68 93 92 83 80 81
70 73 81 82 84 80 82 82 80 77 78 80 83 80 74 68 70 66 64 66 71 75 77 79 72 72 75 71 62 56 53 50 44 40 44 40 40 53 89 95 78 78 77
78 78 81 82 82 82 84 84 82 79 80 78 83 84 78 75 74 68 61 62 66 70 71 74 76 72 73 73 72 70 67 61 53 45 45 46 38 40 54 76 96 97 92
82 80 81 84 83 82 81 83 84 81 77 79 80 82 84 79 78 76 72 67 62 69 72 75 75 77 76 77 76 74 73 70 62 55 52 53 56 43 38 48 67 89 94
85 84 80 82 82 79 77 78 77 79 80 77 79 82 84 82 81 79 76 76 73 71 75 78 79 81 81 79 79 76 76 73 71 66 62 58 58 60 54 41 46 84 89
85 88 85 86 85 82 76 76 73 72 75 75 77 80 83 81 83 83 81 80 79 79 80 79 78 78 79 78 76 74 74 75 75 74 73 68 62 61 62 62 47 49 85
84 90 90 89 85 83 83 80 79 76 78 76 76 78 82 83 83 84 82 82 82 82 82 82 81 82 80 77 76 76 75 77 78 76 74 73 72 71 66 62 62 49 52
82 88 93 94 90 89 87 86 84 82 78 75 76 78 79 81 84 85 84 85 86 85 85 83 87 85 86 81 78 82 79 80 82 79 71 68 69 71 71 69 68 68 62
67 80 87 92 90 92 89 86 85 88 85 84 86 87 85 85 85 89 91 90 90 91 87 86 86 88 89 96 99 92 79 74 71 66 67 64 63 65 66 67 67 65 64
40 71 79 84 83 87 84 85 85 84 85 84 91 97 96 97 98 99 100 100 100 99 97 94 94 97 100 100 100 99 76 52 55 64 63 61 60 59 61 62 63 62 65
43 53 63 75 89 94 97 96 96 96 95 89 95 98 96 98 98 99 100 99 99 100 97 96 99 100 100 98 96 94 74 54 62 59 65 62 62 61 63 66 66 69 70
52 54 55 57 66 76 83 79 78 75 69 57 55 50 46 43 42 41 40 51 76 90 94 97 100 99 100 96 99 99 88 87 84 84 68 63 69 67 68 70 69 70 71
51 52 57 51 46 42 40 46 46 46 48 44 44 44 48 48 46 49 52 54 52 56 70 79 83 90 98 99 96 99 98 100 98 94 83 64 67 62 66 72 75 76 80
64 55 56 58 53 48 45 44 50 53 54 55 58 58 58 59 54 51 50 60 66 88 84 83 87 98 99 100 98 98 93 88 90 86 88 82 77 73 76 80 79 81 81

GFSSE_925_rhum_057.txt.gz
RH
63 88 85 89 85 84 83 87 87 87 86 90 97 95 95 95 97 96 95 89 86 93 95 96 95 95 95 89 85 68 58 46 50 55 52 62 84 85 81 83 82 85 96
59 82 84 87 88 85 84 88 87 86 84 89 95 96 95 96 92 91 88 88 92 89 88 92 93 94 96 94 92 75 57 61 70 70 70 64 78 87 68 81 81 87 96
57 77 91 81 84 85 86 87 86 81 83 87 96 94 93 94 96 94 88 89 93 92 93 92 93 94 96 86 72 59 52 49 74 72 64 67 90 93 78 78 95 99 98
55 72 80 82 85 85 88 88 87 86 76 91 92 91 98 98 96 95 86 92 94 96 97 98 96 95 85 76 71 64 54 45 69 67 74 76 85 96 97 98 91 96 92
53 62 82 86 84 84 86 87 84 79 70 76 78 86 99 96 96 79 76 84 83 88 96 94 83 75 66 64 61 61 52 50 48 64 81 76 81 97 91 88 96 97 96
53 58 77 81 83 81 82 81 81 68 65 58 68 79 96 96 90 80 49 54 60 68 68 64 65 63 64 63 59 57 52 51 46 46 64 86 87 98 97 95 92 95 95
50 70 86 81 85 83 81 79 77 68 54 57 79 77 95 93 84 82 60 69 70 68 65 65 61 62 62 61 61 59 53 49 46 48 48 56 92 98 93 87 85 95 95
52 72 82 84 82 83 84 83 72 70 48 82 84 74 91 80 78 84 66 58 70 69 61 52 56 60 62 60 60 60 55 53 45 47 54 55 62 96 88 74 74 77 74
55 62 83 93 92 86 86 83 73 67 47 90 90 93 82 77 80 83 67 53 62 58 56 55 57 57 59 61 58 56 52 42 44 50 51 57 53 89 86 75 70 65 61
56 64 78 80 84 90 94 83 72 73 52 75 89 87 80 78 80 79 72 60 66 57 52 49 49 54 53 51 53 53 47 42 42 46 51 54 66 81 98 86 78 74 70
72 65 78 76 67 75 85 84 79 78 68 50 78 84 78 69 81 76 91 68 65 61 55 50 47 44 44 44 41 40 40 41 36 40 48 46 64 80 96 94 85 79 77
71 77 82 77 57 77 88 83 88 82 79 75 67 61 61 57 61 68 82 65 64 72 66 55 46 42 43 46 44 42 37 35 34 39 44 40 46 71 96 99 87 85 82
64 70 75 77 63 77 85 93 90 80 73 70 67 62 51 56 68 70 70 74 77 69 85 76 76 68 54 52 48 45 44 43 37 37 41 41 37 48 87 91 96 84 80
55 56 59 75 76 74 80 87 78 75 63 68 69 68 61 55 61 57 56 57 62 67 67 68 63 61 64 64 58 55 52 50 48 42 41 43 40 38 65 97 87 82 81
60 61 64 70 72 72 80 79 80 72 64 62 66 70 65 63 65 57 51 52 53 55 59 60 66 62 63 64 64 64 63 61 58 51 48 49 54 46 39 50 94 97 94
72 69 70 70 71 73 74 77 80 74 60 60 63 68 71 67 67 66 60 56 52 56 61 63 64 66 67 66 66 66 66 66 66 60 56 54 56 60 56 43 44 84 89
73 73 71 74 73 73 75 70 70 69 61 61 63 67 70 70 70 68 67 66 65 60 63 65 68 70 70 70 68 67 67 68 67 66 65 63 60 60 62 62 52 48 84
70 74 73 73 70 67 64 66 65 61 63 63 63 66 70 68 72 72 71 72 71 70 71 71 70 69 68 67 66 66 66 66 65 66 67 68 69 64 62 63 64 57 56
69 74 76 79 78 73 71 69 67 63 65 63 64 66 70 72 71 74 73 72 73 74 73 73 73 72 72 72 74 71 68 68 65 67 68 68 68 70 71 68 65 64 64
68 71 80 82 83 80 78 76 73 72 68 66 66 67 69 71 74 75 74 73 73 76 78 77 75 77 78 76 75 74 73 74 71 72 69 65 60 64 68 70 70 70 68
63 71 76 83 85 85 84 83 78 78 74 69 70 70 73 75 75 77 79 78 77 78 78 77 76 78 80 82 87 90 82 70 65 65 60 58 57 59 62 64 66 66 64
36 65 71 78 83 85 87 84 77 74 72 70 74 81 84 83 84 85 86 88 89 90 88 86 86 86 86 92 95 97 83 55 54 59 59 60 60 60 61 60 63 62 64
32 48 66 70 74 76 83 81 84 87 85 88 86 92 93 89 87 94 98 98 98 96 96 95 94 92 96 91 95 92 78 63 58 55 62 62 61 62 64 66 67 68 70
38 48 55 64 78 83 92 92 89 85 82 76 68 66 67 63 61 57 54 54 61 80 91 90 94 93 90 93 97 95 86 83 81 76 65 63 62 60 60 63 67 69 73
47 56 55 57 58 63 71 70 72 69 55 52 52 52 53 56 50 48 51 59 64 67 61 66 73 81 89 91 84 78 82 91 92 96 88 70 63 62 60 68 73 75 79
56 60 58 55 55 55 53 53 49 48 49 52 54 53 52 55 59 59 53 52 69 79 85 86 88 87 90 90 90 89 90 92 93 93 94 78 82 70 67 65 75 79 82

GFSSE_925_rhum_060.txt.gz
RH
93 75 74 78 84 85 88 86 87 87 84 86 94 90 98 96 94 94 89 87 90 96 96 96 95 94 90 83 78 70 51 53 63 61 64 64 72 82 79 80 76 95 90
86 79 77 77 84 85 84 86 85 86 83 75 96 98 95 93 91 87 88 93 90 85 84 91 94 95 94 88 79 49 67 69 69 71 75 83 85 68 72 86 96 96 96
87 86 82 81 85 87 84 86 86 82 79 72 98 93 95 92 91 87 90 93 89 86 86 91 95 96 91 79 54 37 69 72 73 78 83 88 88 86 96 91 94 98 97
85 86 87 83 87 87 89 84 82 77 71 74 96 96 98 94 89 87 91 95 99 98 94 96 94 80 69 64 55 39 60 65 75 72 77 86 96 98 98 96 98 98 97
80 83 89 84 88 89 84 81 79 64 67 71 93 94 94 97 89 83 89 90 95 96 93 80 66 63 62 58 52 47 47 46 64 74 71 75 79 96 97 90 84 94 96
68 78 81 86 87 85 83 80 73 63 60 61 82 96 94 93 78 63 62 72 80 83 72 66 60 61 61 56 54 48 49 48 47 51 77 80 84 96 93 87 96 95 93
76 78 83 84 85 85 83 81 68 62 53 55 66 97 94 81 80 54 55 69 66 66 66 62 62 61 58 60 57 48 46 47 48 50 51 60 91 96 88 75 66 74 71
76 87 80 83 84 83 84 80 70 51 75 80 71 90 88 77 77 64 53 60 62 58 54 57 57 59 57 56 55 49 46 48 47 50 59 54 74 96 88 77 69 69 69
73 84 91 88 81 83 84 77 70 51 86 83 74 88 81 76 78 64 46 54 55 52 50 50 48 49 52 52 50 46 38 43 47 49 61 61 54 97 90 79 75 75 72
67 77 86 91 88 86 83 75 69 50 84 90 93 90 79 77 77 70 52 54 55 49 46 44 44 45 43 42 42 42 40 39 38 42 54 52 64 82 98 88 79 78 74
71 73 86 82 87 87 85 74 76 69 48 86 87 83 77 76 69 72 85 56 54 49 45 42 40 40 39 42 38 35 39 38 36 38 46 51 48 75 93 96 85 81 77
75 78 77 70 74 86 84 72 72 75 65 52 60 74 55 72 75 83 81 72 50 55 52 48 42 38 45 45 43 42 38 36 34 36 41 44 36 52 85 94 93 86 80
74 76 76 63 72 76 83 83 84 74 76 72 65 53 55 57 62 70 66 54 46 57 65 73 71 64 56 53 48 49 45 47 42 38 39 42 41 37 50 87 97 89 80
73 72 68 67 78 84 84 83 82 70 71 69 69 65 56 55 60 59 66 62 64 74 72 76 70 67 64 65 63 58 56 53 53 49 44 43 46 49 39 78 91 84 81
65 70 71 63 69 74 84 79 73 66 68 66 67 70 66 60 59 58 55 55 56 58 60 63 65 66 62 65 65 66 65 65 63 59 52 50 51 56 54 42 85 86 92
69 65 69 66 67 73 79 83 67 64 65 61 64 69 69 66 66 65 56 52 52 54 59 61 64 66 68 67 67 67 67 68 68 67 64 60 58 58 59 60 49 72 86
74 72 68 67 65 67 78 79 77 65 66 60 62 66 70 70 69 68 67 65 63 55 59 63 66 68 69 70 69 69 68 68 66 68 68 68 65 65 64 61 61 58 77
72 76 76 75 76 74 72 75 73 66 64 61 62 64 68 70 71 71 70 71 70 69 68 69 70 70 70 68 63 64 64 66 64 67 66 68 69 70 69 68 65 65 64
68 72 72 74 71 66 67 66 66 65 62 63 64 65 68 71 69 73 74 74 74 73 73 73 72 71 70 72 73 73 73 66 68 67 68 69 69 67 66 72 71 70 67
66 71 75 75 76 72 71 69 68 65 63 65 65 65 68 72 73 73 74 73 70 70 75 76 77 74 73 75 73 76 76 74 76 74 73 69 67 60 64 68 70 71 71
65 68 75 81 82 80 78 76 75 74 72 68 67 66 68 71 71 74 77 73 74 78 77 78 78 75 73 74 82 78 81 81 76 74 68 60 60 59 60 61 64 64 64
36 69 74 81 84 84 83 82 79 77 75 73 70 70 74 78 76 75 77 79 80 83 81 81 84 85 81 83 89 94 94 71 58 54 64 59 60 61 61 61 64 65 67
28 44 72 78 83 85 88 86 82 84 81 78 81 82 80 83 82 83 84 84 85 88 87 82 87 93 99 94 90 86 87 89 72 62 61 63 63 64 66 66 68 69 71
31 34 58 77 75 80 84 86 88 87 87 85 82 87 86 88 81 79 76 69 70 77 85 86 77 77 91 87 90 87 77 85 91 82 65 66 62 61 60 65 70 72 75
36 38 51 64 81 86 89 90 90 87 77 68 68 66 62 51 47 44 45 50 55 60 62 59 64 76 85 86 85 75 77 69 78 91 91 73 66 63 63 66 71 75 76
45 46 48 53 59 63 71 78 72 73 56 55 51 45 50 51 52 49 49 49 53 64 72 82 84 85 86 88 82 82 78 89 97 98 98 90 81 69 70 69 70 74 77

GFSSE_925_rhum_063.txt.gz
RH
88 75 82 85 84 87 92 93 87 80 83 96 97 98 95 94 94 92 96 94 94 97 94 96 93 86 81 76 64 63 77 79 84 92 69 69 81 91 89 90 90 90 95
84 77 79 83 89 88 86 86 85 79 78 92 99 93 92 88 87 90 94 89 92 93 92 93 94 88 77 49 73 77 78 77 76 92 88 66 77 95 98 90 93 90 93
77 72 73 85 85 84 85 86 84 78 78 95 92 94 93 86 88 89 88 87 81 82 90 92 93 90 56 40 69 72 67 77 76 89 90 88 96 96 95 91 97 94 90
77 72 79 85 85 87 87 85 81 72 77 93 88 92 94 86 90 92 97 92 89 90 95 95 91 78 58 41 59 55 70 75 74 84 80 83 93 97 97 95 95 96 89
82 81 84 86 87 87 85 82 65 59 70 95 88 92 96 86 90 93 95 98 95 96 95 80 70 63 56 45 46 47 52 71 73 72 75 76 84 93 96 95 87 88 91
93 82 87 88 88 86 83 74 56 59 64 93 93 93 93 88 91 88 89 89 87 88 78 69 64 59 53 46 48 49 48 48 51 68 76 82 86 95 95 87 86 83 78
89 82 89 88 88 86 83 69 57 56 57 87 95 91 90 70 56 63 49 63 66 69 63 66 61 56 54 49 42 47 48 47 48 51 52 54 84 96 90 84 84 84 82
85 83 90 85 86 85 82 69 55 55 56 73 95 85 76 73 51 46 52 56 57 57 55 55 56 53 50 48 43 43 47 48 50 56 60 54 79 96 91 82 85 89 86
78 85 88 87 84 83 79 71 52 82 72 72 92 85 75 71 64 41 47 50 51 46 45 45 46 47 46 44 41 36 43 45 47 54 61 52 63 97 90 82 82 85 82
81 77 88 88 86 84 78 68 54 81 81 79 93 86 78 73 70 48 49 49 44 43 42 41 42 41 41 38 37 35 40 39 38 44 56 51 58 84 96 92 82 82 77
81 79 86 86 85 83 76 70 52 75 85 89 94 82 78 67 59 59 47 48 47 42 40 38 36 36 38 42 40 36 37 36 36 38 44 48 38 62 87 94 88 85 77
87 84 80 81 84 84 77 71 72 53 68 83 82 76 70 80 77 69 73 61 44 43 42 41 40 38 45 44 44 44 41 41 36 36 38 42 42 38 60 93 90 90 78
70 75 76 72 82 78 74 72 72 73 61 52 51 50 68 75 78 71 70 56 41 47 53 69 68 63 60 58 51 53 50 48 49 42 39 40 43 46 40 57 95 92 81
66 65 66 78 84 84 74 74 73 70 74 73 66 54 58 66 62 62 64 63 60 70 72 74 69 70 66 64 65 63 62 59 59 57 51 48 47 51 54 49 91 88 82
68 67 62 78 84 81 78 80 75 68 74 72 70 67 58 57 56 62 64 64 59 61 66 70 69 67 66 64 66 66 67 67 67 66 63 58 58 56 57 60 73 93 93
68 73 61 67 76 81 75 75 69 66 71 69 67 70 67 64 62 57 56 55 54 56 59 61 62 66 69 70 70 69 69 69 69 69 69 68 66 65 63 64 62 66 86
73 76 71 63 68 71 70 72 66 63 64 64 66 68 69 68 67 67 61 59 56 53 55 62 65 68 68 68 68 68 64 63 69 61 64 64 67 61 63 67 65 64 66
72 67 70 66 72 69 68 71 66 64 63 65 64 66 69 70 70 71 69 70 68 68 65 64 66 70 72 71 66 64 66 70 71 67 69 70 71 71 67 64 71 68 68
72 73 69 69 74 72 73 73 75 66 61 62 63 64 67 69 70 72 73 73 74 74 72 73 72 72 69 64 64 64 70 74 74 72 72 72 72 67 57 65 71 71 72
71 73 75 74 74 70 73 72 72 71 65 65 64 65 67 70 70 71 74 76 70 69 70 72 72 72 69 67 70 73 69 71 75 75 73 77 69 62 62 64 64 70 71
68 71 72 76 74 71 69 68 67 67 65 64 65 65 65 66 70 70 73 72 70 72 71 73 77 81 70 68 69 70 72 61 67 60 65 77 66 60 60 61 62 64 64
66 67 68 74 76 75 74 72 73 71 70 71 69 68 67 71 71 71 75 76 75 74 75 76 79 82 77 69 78 92 94 68 60 64 68 64 62 62 62 66 68 67 68
48 68 71 70 74 80 79 78 79 79 77 75 74 74 73 72 72 75 79 79 79 80 79 78 79 81 80 74 78 83 92 88 84 65 66 64 64 65 67 67 68 68 70
31 52 72 72 74 79 83 85 86 82 85 86 82 86 82 81 81 84 83 86 87 89 90 87 86 84 81 87 91 93 90 83 90 84 67 68 66 62 68 66 68 70 72
30 38 64 80 79 76 72 76 76 88 90 84 84 86 87 84 81 63 51 45 48 53 56 59 61 66 84 93 86 86 87 78 74 85 90 76 69 67 71 70 72 72 74
42 44 54 71 85 90 95 96 90 90 80 72 71 69 63 53 47 47 46 48 48 52 62 69 80 84 86 90 93 90 78 82 94 93 98 89 80 82 78 76 76 76 74

GFSSE_925_rhum_066.txt.gz
RH
82 87 84 92 92 90 92 95 97 90 92 96 97 97 96 95 96 92 97 98 94 94 95 90 82 81 85 88 93 85 87 94 87 68 75 84 96 99 97 90 85 89 94
88 85 86 90 95 92 92 93 81 74 92 95 91 86 88 93 97 98 97 95 92 92 92 88 81 82 92 96 92 79 78 88 88 70 85 94 92 96 96 91 86 84 93
89 88 88 88 90 88 86 84 75 93 96 90 94 87 87 89 92 89 87 93 90 93 93 89 83 78 77 76 70 77 78 79 90 88 92 94 92 95 94 91 95 97 97
89 88 88 86 86 86 85 83 73 96 79 90 95 87 88 89 83 89 88 85 95 95 95 87 56 44 69 62 65 80 80 78 81 84 84 80 87 95 95 94 94 95 81
94 87 87 85 87 87 84 81 70 92 86 88 93 88 89 91 94 96 92 94 96 94 83 60 54 43 51 52 55 72 79 82 83 81 81 81 79 94 92 92 86 86 88
91 88 86 87 86 84 82 69 66 91 92 90 81 88 88 90 95 96 95 96 90 77 62 55 52 45 46 48 47 48 51 61 71 74 74 79 85 88 88 87 87 85 80
90 89 88 88 86 85 80 59 66 91 89 92 94 84 89 91 91 93 94 90 80 70 59 55 52 48 43 46 48 47 47 49 52 56 53 63 89 91 90 89 92 90 83
92 92 90 90 86 83 72 61 64 77 91 93 86 75 64 58 80 89 91 91 83 70 60 56 51 49 45 40 47 48 48 50 55 58 61 57 80 95 87 81 86 90 79
88 93 93 90 86 82 66 55 57 64 86 96 85 74 67 47 43 44 43 42 47 50 51 51 48 46 43 40 37 44 44 46 46 56 60 52 72 97 92 84 84 83 72
82 90 92 90 89 80 69 48 68 64 78 94 89 72 71 68 43 48 48 45 44 44 43 41 41 40 39 38 36 39 40 39 39 46 53 51 55 85 91 92 88 84 74
99 88 87 92 91 82 70 55 77 72 77 94 93 78 76 69 61 44 49 47 44 40 39 38 36 36 38 39 38 38 37 36 36 39 43 44 42 47 75 90 91 89 83
100 96 88 86 90 83 70 54 76 80 82 86 90 81 75 68 64 62 50 44 45 42 40 38 37 39 43 43 42 44 43 48 40 37 38 42 44 43 46 84 96 91 88
78 92 83 82 86 82 75 71 56 76 86 88 83 77 74 78 75 74 70 60 44 48 50 59 61 55 59 60 54 55 55 52 53 51 46 43 44 46 54 47 82 93 91
85 75 81 79 80 82 74 73 72 62 52 62 63 70 69 70 74 71 64 59 45 59 61 72 70 71 66 66 67 66 66 66 64 64 60 54 52 53 54 58 76 87 90
77 78 74 83 74 77 76 74 74 71 72 71 65 54 61 65 64 62 64 67 61 68 69 72 70 68 68 66 66 68 69 69 69 69 69 69 66 63 62 62 63 83 90
66 80 81 74 72 78 79 73 74 70 71 74 72 69 60 58 59 59 62 64 61 59 61 64 64 67 70 72 72 71 70 70 69 69 65 67 69 67 62 64 66 66 78
84 78 76 77 70 70 78 74 73 69 71 74 73 71 68 68 66 65 58 56 55 55 58 62 64 66 70 71 71 70 70 66 62 70 72 67 66 65 67 68 64 72 74
60 71 76 77 72 68 73 73 72 69 66 69 69 71 70 70 69 69 63 62 62 60 56 58 64 68 70 72 65 62 64 67 70 75 74 75 73 63 69 69 64 72 72
68 71 69 75 71 73 71 71 67 65 62 64 67 68 68 70 70 71 71 71 72 71 72 69 68 68 64 64 64 63 65 65 66 71 74 76 80 77 66 60 73 72 71
70 67 72 70 70 69 71 70 71 68 67 65 61 61 66 68 71 71 73 74 75 72 71 70 70 67 71 71 71 69 62 60 65 62 64 69 83 77 61 66 66 65 68
75 68 66 67 71 65 65 74 76 77 68 68 63 66 67 63 68 71 72 74 76 71 69 72 71 71 70 68 71 69 68 64 62 62 62 65 75 67 63 61 62 63 64
64 66 64 66 68 72 71 74 76 73 71 67 65 65 64 64 67 69 71 74 75 70 70 71 76 79 80 71 76 87 94 75 62 65 67 74 65 63 64 64 64 62 63
70 66 65 61 65 68 72 77 75 70 71 73 71 71 74 72 72 75 75 77 78 74 75 78 78 81 81 83 84 85 92 92 86 69 67 64 63 65 68 64 63 64 68
51 63 67 69 71 70 70 77 72 72 72 72 71 74 82 84 80 74 75 78 79 79 81 83 91 91 92 85 77 79 94 95 90 90 72 73 70 71 70 70 70 72 74
31 44 68 72 59 61 66 69 68 70 64 62 66 82 85 86 89 87 86 83 78 64 52 47 50 54 62 78 90 88 85 90 92 91 92 78 76 73 76 74 77 77 77
34 32 48 81 78 75 66 74 74 64 69 86 86 90 88 80 80 76 54 43 39 40 43 48 58 70 80 86 87 93 99 89 87 91 97 89 84 85 82 81 82 81 80

GFSSE_925_rhum_069.txt.gz
RH
82 88 86 91 94 91 92 99 95 88 94 93 94 98 96 93 98 96 98 89 95 93 85 81 82 86 94 96 98 99 100 94 75 77 94 92 96 94 93 83 77 95 93
84 88 87 90 94 93 92 95 75 91 93 93 96 96 98 96 96 99 95 91 91 92 84 83 92 92 94 96 85 84 88 74 80 93 92 90 88 92 90 88 83 86 98
92 89 90 88 90 91 90 78 78 96 88 89 88 93 97 98 97 97 94 91 94 91 84 85 94 94 86 80 82 79 82 81 89 90 86 83 88 95 93 95 97 97 97
89 90 91 89 91 90 80 77 92 94 84 90 86 90 93 96 95 89 95 93 93 93 91 86 80 75 70 80 81 79 81 84 85 81 79 72 83 92 93 90 90 91 88
91 90 90 89 87 87 83 81 95 79 88 91 89 90 88 89 92 87 97 96 96 93 58 42 68 66 62 72 80 78 79 82 82 82 80 70 65 89 88 87 78 81 83
85 82 89 87 85 86 86 80 90 96 96 88 91 93 94 97 90 89 99 99 87 65 49 42 44 53 52 54 59 65 73 79 77 68 68 77 73 92 90 92 91 85 83
84 85 86 87 87 86 84 74 90 88 91 90 92 93 94 94 97 94 100 94 65 51 44 42 41 46 48 48 47 46 48 51 57 58 58 72 88 94 94 94 91 80 82
86 89 89 87 86 86 71 73 90 86 90 88 87 93 94 96 96 96 98 97 92 58 49 46 43 40 41 46 48 48 48 54 57 60 56 61 84 94 90 85 85 82 69
90 88 90 89 88 79 64 67 86 89 91 85 72 63 69 63 68 67 63 68 76 70 57 52 48 46 42 40 46 46 45 46 46 57 54 50 71 93 91 90 87 85 72
92 93 93 91 88 79 67 64 68 86 97 87 78 66 47 47 59 55 51 57 51 50 51 48 46 44 43 41 40 41 40 38 39 46 51 50 54 86 91 89 90 88 83
99 98 94 92 87 72 60 60 63 76 97 92 78 69 71 53 49 47 49 47 48 46 45 44 43 40 38 36 36 40 38 36 36 39 43 45 46 50 58 77 90 89 90
100 99 100 92 86 76 61 70 82 72 97 100 83 80 75 68 53 47 51 48 44 42 41 39 39 40 44 44 43 42 45 50 42 39 40 42 44 47 56 60 89 93 93
99 100 100 93 86 77 62 69 85 81 85 97 90 81 77 71 66 66 56 50 50 46 44 46 48 46 53 57 53 55 57 57 56 59 55 49 50 49 53 59 67 84 90
72 90 98 92 85 78 69 56 73 85 90 93 92 82 74 79 78 77 73 64 46 50 54 68 70 68 66 67 68 68 68 69 69 69 68 67 62 58 57 62 69 78 79
80 80 81 88 88 78 72 72 65 61 74 85 86 81 69 70 72 70 70 68 58 55 67 75 72 71 70 69 68 69 70 71 70 69 68 70 70 68 65 63 66 70 78
58 40 57 66 84 87 75 72 73 70 59 59 61 57 59 61 61 62 62 67 64 63 69 69 69 70 71 73 74 74 72 72 72 72 70 69 70 71 61 66 66 71 70
66 51 82 71 84 82 88 84 77 76 74 72 74 70 65 62 62 61 61 63 62 60 60 63 65 67 69 73 73 72 71 68 63 67 62 71 65 69 70 68 71 73 75
72 76 69 79 67 84 74 80 89 82 72 72 72 73 72 67 66 64 66 59 57 57 57 58 62 68 70 71 70 63 60 63 63 64 65 76 80 69 74 72 70 69 73
62 62 69 83 68 55 66 76 76 75 74 72 71 72 72 72 70 68 70 64 66 67 65 64 67 68 68 63 62 63 65 63 61 59 61 61 69 73 80 65 64 72 72
73 69 68 66 57 60 64 74 71 79 72 74 72 74 72 72 72 72 72 72 72 74 74 74 68 64 66 67 67 68 65 68 63 66 59 67 74 74 74 66 70 66 63
73 61 65 70 70 71 76 80 93 79 73 72 66 70 65 69 69 70 74 74 76 78 74 67 70 72 74 72 73 69 69 70 66 63 64 63 67 77 73 66 63 60 62
82 64 70 69 70 71 68 70 76 73 72 75 70 64 65 67 69 64 65 71 75 78 76 74 73 76 72 74 78 84 94 78 68 67 66 67 77 71 64 63 63 62 62
63 75 73 68 67 71 77 77 77 78 75 75 72 70 73 72 76 74 73 76 79 81 80 78 78 82 87 80 81 87 89 94 88 72 70 68 66 65 67 66 67 67 69
34 52 63 61 59 65 76 77 77 86 85 76 72 71 74 70 72 70 76 76 74 80 79 74 77 80 85 95 91 76 89 95 88 89 73 74 70 69 71 72 72 73 73
32 36 58 67 64 60 63 58 65 63 58 62 72 76 68 71 73 82 88 84 72 67 74 80 65 54 56 61 72 85 89 89 94 99 92 84 81 79 78 78 78 76 75
39 37 42 56 68 65 65 74 67 64 64 67 75 88 86 88 91 90 85 79 68 68 60 43 44 50 62 75 80 87 98 97 91 97 99 91 88 90 87 85 83 81 79

GFSSE_925_rhum_072.txt.gz
RH
83 84 91 90 94 97 98 95 93 93 93 97 96 96 92 92 96 95 98 90 93 86 82 86 88 91 98 100 98 93 91 91 93 89 87 88 92 94 91 84 90 88 97
83 87 88 87 95 95 96 94 90 91 87 94 97 93 98 97 98 97 95 95 90 85 89 89 90 93 96 97 95 88 71 90 90 85 80 83 88 93 96 78 82 92 95
86 87 89 88 89 89 92 71 93 93 87 95 98 94 96 97 98 90 92 94 86 85 90 91 94 96 85 80 80 82 83 89 82 78 72 78 92 93 93 93 95 94 92
87 89 90 92 90 92 90 77 94 90 87 90 96 96 96 98 98 95 94 94 88 87 95 97 93 83 82 82 84 81 83 81 78 78 66 60 84 88 87 85 82 83 85
91 91 92 89 90 91 86 88 97 88 92 90 92 95 98 98 94 97 95 96 96 95 96 81 71 76 78 78 79 78 79 80 80 68 68 59 79 90 91 88 80 85 84
87 82 90 89 89 87 85 93 96 95 91 92 91 89 92 91 90 97 96 96 96 83 70 71 63 66 71 76 78 77 79 74 59 56 66 72 85 95 94 92 88 86 88
86 87 92 86 88 84 85 94 89 97 94 94 95 92 83 84 95 97 97 97 83 68 56 55 54 53 52 51 49 49 50 56 58 55 61 77 91 97 97 96 95 89 85
85 89 89 86 88 84 74 94 85 89 92 95 95 95 97 91 96 99 96 97 60 47 45 48 50 51 50 49 48 48 52 55 58 57 54 68 90 97 95 90 93 92 77
83 87 90 89 84 76 68 92 90 88 78 86 91 93 94 99 96 96 89 74 56 49 48 47 47 45 46 50 47 47 46 45 51 54 52 54 74 97 87 85 88 89 80
84 87 92 90 86 72 59 74 92 92 84 77 75 84 83 87 94 96 68 64 58 51 53 50 49 46 43 42 45 42 40 38 42 46 48 48 53 92 89 98 91 83 85
92 88 91 91 85 74 61 61 86 94 91 83 78 66 68 67 74 68 64 56 50 50 49 48 47 45 41 38 39 42 38 38 37 39 42 45 47 60 69 68 77 81 86
100 100 100 89 86 73 64 64 72 92 100 91 74 73 62 55 58 57 58 57 55 51 49 47 45 43 43 43 42 41 47 52 47 46 47 44 47 54 62 63 75 86 81
100 100 100 99 87 70 58 61 65 77 99 97 79 76 75 69 56 56 55 52 48 48 46 44 41 45 48 53 50 55 59 62 61 64 64 60 57 55 60 63 69 73 77
100 100 99 99 91 77 62 59 79 74 94 100 91 82 75 70 66 63 56 56 52 50 49 55 61 59 65 68 69 69 69 70 70 70 70 69 68 63 62 65 69 71 76
89 75 95 95 92 85 70 55 79 81 82 93 98 86 76 76 74 73 76 71 59 51 54 70 72 72 72 71 70 70 71 72 72 72 71 71 71 67 66 61 70 70 70
58 64 67 58 64 85 88 71 63 71 81 88 93 88 80 70 72 74 71 69 66 54 70 74 75 74 73 74 74 74 73 72 71 69 66 60 67 72 73 72 64 73 77
60 68 63 59 48 55 82 86 79 70 73 81 78 69 62 63 66 68 67 65 67 66 66 70 70 69 68 72 73 73 72 65 61 62 60 61 68 75 74 68 69 71 75
75 76 64 50 45 43 65 73 83 88 86 74 69 69 69 64 65 66 66 64 63 66 65 63 65 67 70 72 72 64 64 61 64 60 61 60 64 65 72 78 76 71 70
63 54 57 47 52 68 83 73 72 74 76 77 93 88 76 74 72 67 68 69 62 60 60 59 61 65 70 69 66 60 62 66 65 68 63 66 65 65 71 75 69 65 69
80 60 54 62 56 70 70 84 74 63 75 82 78 82 78 75 74 70 70 72 69 71 71 70 70 70 67 63 65 64 66 67 66 68 68 66 68 67 74 74 65 70 70
63 76 64 65 67 69 68 63 61 76 72 68 72 77 77 74 70 74 73 73 76 76 76 77 79 71 72 72 71 70 68 63 64 68 68 64 62 71 83 76 75 67 65
77 83 64 72 77 75 82 65 70 67 67 71 74 78 74 66 71 75 78 73 74 76 80 81 79 77 71 69 77 82 92 75 72 71 67 67 69 79 79 73 68 66 63
68 59 58 62 67 79 72 78 78 82 91 91 80 82 77 67 70 75 74 77 79 80 81 78 80 80 80 84 81 85 88 92 88 74 71 69 74 72 69 68 71 68 65
36 38 67 59 61 64 67 85 98 93 91 95 90 91 83 78 69 73 74 89 83 84 76 73 84 76 79 83 85 88 91 97 93 89 77 74 70 69 71 72 74 72 69
37 36 36 67 59 57 67 60 68 77 78 73 74 83 95 96 96 87 69 73 85 82 74 68 68 77 69 64 64 75 85 92 100 99 96 88 85 81 77 78 78 77 75
40 40 39 39 65 82 70 72 79 69 68 62 73 77 80 88 90 93 100 90 80 72 73 74 69 54 42 53 69 81 94 95 94 99 96 94 90 86 86 87 85 81 80

GFSSE_925_rhum_075.txt.gz
RH
90 87 87 90 94 96 85 87 93 89 88 94 89 94 94 90 81 94 98 88 86 88 86 87 93 89 86 92 96 97 97 94 79 75 82 91 95 97 95 86 91 89 95
93 93 89 90 97 95 89 85 90 84 88 92 90 91 94 95 98 98 98 91 87 88 88 88 98 95 94 94 92 94 96 80 71 68 73 84 89 94 82 72 88 92 98
96 97 96 88 89 91 80 85 89 84 88 90 90 94 90 95 97 97 95 90 90 89 89 91 96 96 94 85 79 93 91 74 70 62 60 80 81 87 84 84 79 76 94
96 98 97 91 90 89 76 91 88 85 80 95 91 94 96 96 89 94 93 88 91 92 94 96 96 85 85 81 83 95 77 76 69 51 77 80 80 92 88 86 85 80 74
100 99 97 90 90 90 76 92 91 73 65 96 91 90 94 90 92 93 93 90 94 96 97 93 83 81 89 87 92 95 80 77 67 71 83 89 86 92 92 90 87 87 88
98 97 91 90 92 78 79 93 93 76 89 93 97 94 91 91 95 92 96 92 91 94 90 75 74 78 81 88 92 86 75 61 58 70 89 92 90 96 97 96 90 90 89
93 92 93 90 86 70 85 95 89 94 92 95 94 95 90 86 92 93 99 99 86 84 74 64 64 65 63 60 57 57 58 60 55 60 76 92 91 96 97 97 96 90 90
86 87 89 89 82 77 94 91 86 94 94 93 88 91 90 96 89 98 96 96 93 78 61 55 54 53 51 48 48 51 55 57 55 51 60 84 94 96 94 84 89 90 84
84 88 91 89 89 74 94 88 86 82 93 90 91 84 83 93 94 100 96 96 92 77 57 52 52 52 51 48 46 46 44 47 53 50 51 62 83 96 84 95 87 83 72
83 86 89 89 90 74 87 92 91 83 73 85 88 91 93 94 94 96 95 95 80 57 58 55 52 50 46 47 45 42 39 40 44 46 48 50 58 96 90 95 84 78 79
87 92 88 89 83 64 64 93 92 88 79 68 84 87 91 98 98 97 80 70 54 55 53 52 49 47 45 42 42 41 39 40 38 41 44 47 50 66 69 64 73 77 77
87 92 90 90 80 63 58 81 97 98 94 83 71 67 69 72 72 65 60 54 54 53 50 50 47 44 40 42 41 41 49 53 52 52 52 49 52 61 65 66 68 74 73
99 92 95 94 83 71 57 64 92 99 94 91 76 69 62 68 68 61 58 58 56 54 51 47 44 43 46 47 47 52 60 63 64 66 66 64 60 60 67 67 69 71 74
86 100 99 100 90 74 60 56 66 91 99 90 79 77 73 66 57 57 57 54 51 48 48 46 46 47 59 66 65 67 69 70 70 70 70 70 70 68 64 69 67 68 77
80 81 100 98 92 80 68 60 64 67 90 96 94 80 74 69 64 59 58 61 55 53 51 60 66 69 70 72 71 70 71 72 72 72 71 69 66 68 73 70 66 72 80
82 73 92 95 83 83 76 66 81 82 75 93 100 92 83 72 75 73 74 72 68 54 54 62 76 77 76 76 75 74 74 72 70 65 64 60 61 64 72 72 71 69 83
86 83 70 69 70 70 71 68 69 90 96 96 99 99 92 83 72 74 77 73 70 66 62 75 77 74 71 72 74 73 73 67 63 64 66 65 62 63 65 70 70 72 80
56 72 70 89 73 66 79 74 75 71 72 86 98 100 98 84 70 71 71 70 67 72 70 69 68 69 69 72 72 70 66 64 67 67 67 66 65 66 64 67 68 77 80
69 68 73 61 73 68 82 69 72 76 81 80 76 69 74 81 69 68 68 69 68 67 68 67 63 64 69 72 71 66 61 64 69 68 69 68 68 68 65 69 72 71 72
84 80 82 66 62 56 68 75 78 78 74 67 71 77 81 83 83 74 70 70 70 66 63 64 63 64 70 66 68 67 62 65 66 67 66 69 70 70 73 75 76 71 72
85 90 86 75 61 52 55 83 82 74 70 77 61 62 71 72 89 86 76 70 72 71 70 72 71 72 72 72 75 66 68 66 65 67 67 63 63 68 78 80 75 76 72
87 82 71 65 68 64 72 68 76 80 80 62 65 61 67 68 78 86 78 74 73 76 76 78 80 79 78 75 71 75 68 65 70 68 65 66 65 70 83 83 80 72 68
66 63 62 67 66 67 70 77 79 81 83 80 79 82 84 82 97 100 77 75 76 78 76 77 77 76 75 79 77 75 75 72 80 77 73 69 72 76 78 77 74 71 69
40 44 72 59 63 63 67 82 77 83 96 91 95 89 95 98 97 95 99 88 87 87 94 91 76 72 73 84 88 79 75 87 80 68 78 76 72 72 72 72 73 74 73
46 43 40 45 76 61 64 74 80 89 84 80 83 78 86 80 88 84 86 99 100 100 89 83 72 66 70 77 78 72 73 92 97 90 78 78 86 77 76 78 79 79 78
50 48 48 50 71 86 90 79 78 65 72 93 80 86 85 82 86 91 91 99 100 96 90 81 74 73 77 68 54 63 76 80 88 96 90 81 85 87 82 81 81 82 82

GFSSE_925_rhum_078.txt.gz
RH
66 78 88 90 95 93 96 95 93 91 88 84 94 96 77 72 80 97 98 90 88 88 87 85 87 89 94 97 96 97 96 78 73 76 83 89 95 98 86 83 81 84 97
66 77 87 88 95 96 92 87 86 83 88 83 90 95 95 93 93 98 96 91 89 87 88 91 84 84 94 97 96 97 76 64 64 67 66 61 82 90 77 79 91 94 97
67 74 90 89 90 91 82 89 81 85 90 86 85 88 92 94 97 98 93 90 88 87 91 88 89 94 96 97 92 95 77 63 56 68 65 63 74 86 84 81 79 90 96
69 76 80 90 90 86 78 91 78 83 88 86 80 83 87 95 97 95 93 90 89 89 91 95 96 96 92 93 90 88 73 60 55 67 60 64 69 91 90 88 87 82 79
70 74 79 89 88 82 80 90 82 73 88 87 83 87 92 95 93 93 91 89 90 92 96 97 95 87 82 89 91 86 71 62 65 66 71 72 73 91 91 85 83 88 89
73 76 87 89 90 80 85 90 86 67 92 88 88 90 90 87 93 92 92 88 90 95 98 89 83 84 84 86 89 72 59 60 72 69 74 78 79 93 95 94 92 91 91
71 74 91 88 91 73 88 90 82 60 92 94 91 90 87 90 92 93 96 91 93 97 88 80 78 78 80 85 79 62 58 60 64 69 72 72 82 92 95 97 91 89 93
73 76 83 89 84 70 92 91 75 69 82 99 96 95 98 89 93 94 96 99 98 97 81 70 64 56 52 51 52 56 57 62 62 66 73 73 90 96 97 96 95 89 89
73 79 83 90 83 84 93 88 65 62 85 92 96 94 88 89 92 94 98 94 96 96 74 59 55 52 49 48 48 50 47 55 56 60 64 71 84 95 94 90 85 80 73
83 84 85 88 79 90 99 87 79 62 82 83 81 85 85 87 94 95 98 99 95 72 61 56 52 52 49 46 43 40 39 46 54 58 58 65 73 95 91 94 76 78 75
85 90 88 88 78 72 93 97 88 71 76 86 84 83 86 89 87 93 84 95 77 62 58 55 51 45 43 43 41 39 38 42 49 51 54 48 56 75 71 68 71 75 74
76 98 94 87 77 71 81 98 93 91 80 72 78 86 74 73 73 72 90 85 72 63 58 56 54 48 44 46 48 41 49 50 46 50 54 51 54 66 69 67 71 75 76
93 96 98 92 80 68 71 93 95 92 82 76 68 69 68 75 86 77 77 83 78 64 66 66 60 53 50 49 50 47 54 57 55 59 61 64 61 63 71 69 69 76 75
93 90 99 97 86 70 66 84 96 100 90 91 79 71 74 76 78 71 69 71 70 65 61 59 52 52 54 57 54 57 62 62 61 66 64 69 69 68 65 66 70 70 75
96 93 96 98 94 82 72 71 89 95 99 89 84 81 74 71 72 70 66 65 62 60 55 53 54 55 60 66 67 66 65 64 64 65 66 66 65 67 70 72 69 73 83
64 82 88 100 99 88 77 78 76 86 96 99 90 87 84 79 79 73 69 68 66 62 58 57 62 66 67 69 67 67 67 67 65 64 63 63 63 63 66 73 71 71 82
76 77 80 94 99 88 91 88 91 90 89 98 100 100 96 90 82 78 74 74 72 70 58 63 67 73 70 71 68 66 66 64 62 62 64 63 66 70 65 63 68 70 72
84 86 79 78 81 86 77 90 92 95 98 96 100 99 99 97 90 77 74 75 73 72 67 68 72 71 66 64 64 64 64 62 61 60 63 65 65 69 70 70 68 70 77
88 83 77 73 82 78 89 93 78 78 90 90 92 90 97 96 91 84 77 76 78 74 74 70 68 64 62 66 66 62 62 62 60 62 62 64 71 76 72 75 72 77 78
80 81 65 77 96 84 80 66 85 90 80 97 95 87 84 82 82 82 80 76 76 75 70 71 64 63 64 64 66 64 62 61 61 62 62 62 65 74 79 84 82 86 80
68 78 84 76 78 86 95 74 74 70 90 87 81 93 90 89 90 92 91 86 76 73 68 64 65 66 70 75 70 65 61 58 63 65 64 62 66 75 80 83 80 87 90
84 81 80 88 78 81 83 71 71 76 96 90 89 91 92 96 85 88 80 96 89 78 73 67 71 76 78 74 66 68 58 52 57 65 63 65 69 75 81 87 87 87 89
94 91 89 88 82 75 68 77 82 89 86 81 86 96 95 90 92 97 90 89 99 92 83 78 80 80 74 77 74 63 58 52 57 55 67 65 67 71 76 85 83 83 81
88 78 83 89 76 69 74 72 78 83 89 87 86 86 88 88 99 96 96 100 98 100 95 92 85 83 80 78 77 73 74 69 61 47 61 67 70 69 72 78 79 80 78
51 52 62 87 88 82 85 84 75 79 87 89 84 85 99 96 84 80 70 91 98 100 100 100 99 90 83 76 78 81 74 74 71 63 50 44 71 71 73 77 78 81 78
65 62 62 78 97 96 84 74 73 71 84 96 95 93 93 91 92 83 88 99 90 99 100 98 97 94 87 80 75 70 64 70 64 67 63 55 56 64 78 81 80 81 84

GFSSE_925_rhum_081.txt.gz
RH
58 85 86 91 97 93 90 88 65 53 58 75 98 88 74 79 95 97 98 92 89 87 85 85 86 87 86 99 99 94 93 82 72 71 83 84 95 88 84 89 93 95 94
55 81 87 88 96 95 94 89 86 80 66 81 94 95 95 96 94 98 97 90 89 87 82 87 90 91 92 97 96 90 61 52 55 57 48 49 64 75 74 85 90 98 97
54 78 92 87 90 90 82 83 84 86 83 80 86 90 93 94 96 98 95 89 88 88 89 79 88 94 96 94 95 75 45 53 61 61 60 67 81 86 81 79 84 92 94
53 78 80 88 88 83 82 85 83 86 90 75 87 86 86 94 98 97 93 89 86 86 82 84 93 96 92 91 76 63 43 60 62 60 56 62 72 90 88 89 87 83 82
63 73 79 89 89 82 84 85 83 87 85 77 90 86 87 94 98 95 91 86 87 84 91 96 91 94 89 91 86 59 52 60 62 62 64 69 77 91 90 84 85 90 91
75 74 83 86 86 79 81 87 78 86 87 79 87 85 86 95 96 93 85 85 86 94 92 89 87 84 85 89 77 57 55 67 65 65 69 76 88 89 94 92 92 94 92
76 80 85 81 88 75 84 88 78 78 86 85 80 84 90 92 92 95 86 87 92 94 96 88 86 90 84 86 66 55 54 64 62 64 65 73 86 91 94 95 92 93 95
71 76 84 85 85 76 92 88 76 59 89 87 90 89 90 88 91 90 88 88 95 96 90 81 76 78 76 69 57 54 53 61 56 64 67 78 90 94 96 95 90 87 86
90 75 82 86 90 77 93 88 75 47 92 89 92 94 92 85 87 95 95 98 98 92 80 70 58 51 51 50 51 48 48 59 55 59 62 76 81 94 88 78 78 77 71
87 93 87 88 84 84 98 92 68 55 84 95 98 95 92 84 89 90 93 98 99 89 69 58 54 53 49 46 43 39 40 51 52 57 58 64 72 94 90 96 76 79 74
78 76 99 85 77 72 88 92 72 67 83 93 92 91 86 87 90 91 86 96 93 80 67 60 55 52 48 45 41 38 37 44 48 48 51 49 59 79 74 71 74 78 74
86 71 77 93 81 70 87 93 80 76 78 72 85 84 84 77 73 72 92 92 89 69 62 57 51 44 41 48 42 37 46 42 42 48 52 52 58 67 71 68 72 75 73
87 79 80 72 86 69 82 89 73 70 60 64 70 77 64 64 72 78 91 93 88 65 72 59 50 48 46 41 42 42 45 48 48 53 54 61 61 64 68 71 70 72 72
77 72 71 75 80 78 74 86 83 64 58 58 63 63 60 63 72 64 67 67 66 60 58 60 56 48 46 46 44 45 51 54 54 56 58 64 67 67 67 75 78 83 75
77 79 77 68 89 85 61 82 91 82 64 62 59 58 62 67 70 64 62 61 61 57 52 53 48 44 46 48 51 52 56 56 55 56 58 64 61 64 68 69 71 76 85
76 94 77 75 98 98 58 78 87 93 82 78 69 67 62 62 65 60 57 57 57 55 52 48 46 48 48 54 57 58 58 58 57 55 56 59 62 60 60 65 68 67 71
92 75 62 97 87 97 64 64 77 91 92 86 80 72 71 70 68 64 62 63 63 59 52 50 49 53 56 55 56 57 57 55 55 55 54 56 57 63 67 65 63 66 72
91 82 86 90 72 96 84 74 71 73 82 89 88 91 83 81 74 72 71 69 65 62 60 50 54 58 60 58 58 56 56 56 54 51 52 55 56 59 63 68 71 66 69
85 93 86 82 71 91 83 79 85 81 84 79 87 90 95 90 86 77 66 66 67 67 64 59 60 60 59 57 57 54 53 54 53 51 54 54 56 64 67 69 74 73 73
85 88 97 89 88 81 83 75 80 85 86 86 87 84 89 92 87 81 76 73 72 73 68 66 61 60 57 55 57 58 61 60 58 53 54 54 53 61 67 72 77 82 85
83 90 92 91 80 81 86 82 74 75 77 82 89 86 84 81 77 79 80 81 81 76 70 66 62 58 59 61 64 65 68 60 55 56 58 52 50 63 70 76 74 81 88
90 83 88 89 75 79 80 73 78 76 72 78 90 90 88 88 88 86 86 95 93 79 79 75 61 61 60 64 70 62 66 55 55 59 55 55 54 64 72 78 80 79 88
87 88 88 89 90 85 84 82 78 78 78 81 92 91 91 93 92 94 88 93 94 87 79 79 90 67 72 74 71 66 62 61 50 53 63 55 57 60 68 79 81 82 82
91 86 91 93 88 66 81 90 88 86 83 84 84 86 84 79 93 95 98 95 88 95 99 91 87 100 81 79 79 70 67 67 59 53 57 59 60 60 64 75 77 79 80
97 97 90 90 90 88 82 84 86 93 84 87 88 92 78 72 91 83 76 92 99 91 94 100 100 99 100 94 89 89 79 79 72 66 58 49 67 64 61 64 71 75 80
72 71 70 77 86 86 87 86 86 89 91 88 94 93 80 80 89 86 66 64 99 76 79 82 86 100 97 95 92 89 78 71 71 69 74 59 52 52 65 71 75 75 78

GFSSE_925_rhum_084.txt.gz
RH
83 71 79 80 77 68 61 56 55 56 81 88 92 82 79 89 93 97 97 93 90 87 88 96 97 98 98 90 94 95 82 69 75 73 83 91 97 100 92 90 83 90 99
79 74 83 85 85 83 70 61 54 54 65 88 90 95 95 94 95 98 96 91 88 86 83 85 84 97 97 94 94 57 44 50 54 59 50 53 68 79 82 85 95 95 98
75 84 81 88 85 85 78 70 65 62 56 85 89 93 93 92 96 98 94 90 85 85 86 88 86 84 96 95 57 40 59 62 64 67 67 66 76 86 83 83 86 89 96
74 82 85 86 88 89 80 82 81 78 66 77 87 88 87 95 97 98 92 89 84 75 80 86 90 91 93 74 47 46 60 61 63 63 68 75 85 89 90 92 92 86 86
74 74 76 86 86 83 85 83 82 86 79 77 86 88 87 93 95 96 89 83 79 78 84 88 91 88 88 66 50 41 61 63 65 69 72 79 85 93 93 91 91 91 92
78 77 72 79 87 79 85 85 82 86 81 73 92 88 87 94 91 94 82 84 80 85 91 84 86 85 84 69 47 50 64 66 68 67 72 77 83 87 93 93 93 93 93
77 76 78 78 83 79 84 88 74 87 82 67 90 86 86 92 91 87 84 85 85 93 86 87 78 80 86 72 52 53 64 63 65 67 71 78 88 91 95 91 92 94 94
82 81 83 81 81 77 83 90 71 84 83 73 82 82 89 90 92 86 86 88 94 91 90 87 87 92 86 72 55 50 61 60 64 68 73 71 87 94 96 92 84 87 86
90 90 88 82 83 78 83 91 78 77 85 82 82 87 92 83 88 90 89 92 98 96 92 82 82 77 63 56 51 48 58 58 61 66 71 67 74 95 86 78 76 75 78
71 76 93 98 85 81 87 90 78 58 89 87 91 95 88 83 86 91 92 92 96 92 82 70 56 50 47 46 45 39 50 53 58 58 67 68 67 90 80 89 76 76 72
72 90 96 87 83 99 82 94 83 63 95 94 98 94 88 83 88 91 97 92 94 84 69 61 54 49 45 42 38 36 38 48 52 52 54 49 60 75 70 70 72 73 69
84 60 88 84 68 84 86 85 80 73 96 94 99 93 89 84 90 88 91 97 95 76 62 56 49 46 44 41 37 35 44 40 45 49 52 52 59 67 72 70 74 72 73
71 74 75 70 78 83 86 98 85 82 92 90 91 88 82 79 85 88 89 90 82 64 57 52 47 42 39 48 43 39 45 47 46 50 50 58 61 64 70 77 71 69 78
69 64 66 56 75 69 92 95 88 74 76 74 86 82 78 74 77 86 82 73 64 55 56 52 49 41 45 44 44 45 45 53 54 54 57 59 62 65 66 66 76 74 71
84 61 64 74 70 71 90 83 88 68 64 66 75 71 65 72 71 76 71 69 73 61 65 60 58 50 47 47 47 46 49 55 56 56 58 59 62 58 61 63 69 75 77
80 70 72 91 91 66 76 89 86 66 60 59 65 63 63 71 69 64 64 63 63 60 54 54 52 46 45 46 52 55 57 58 57 54 57 56 61 63 60 59 60 63 70
80 86 80 90 92 84 65 92 87 73 63 62 60 61 63 65 67 64 59 59 56 55 53 50 48 46 50 51 56 58 58 58 56 56 56 56 57 58 65 66 67 63 65
79 92 96 93 90 78 94 95 82 70 75 70 67 64 66 66 65 61 59 59 60 60 58 52 50 50 56 58 58 58 57 56 56 54 52 52 57 60 66 69 71 72 69
81 89 96 89 83 69 59 77 81 75 73 76 78 74 75 76 72 72 72 71 69 65 63 60 51 55 59 61 59 58 57 55 54 53 51 52 56 59 65 68 72 75 74
80 91 95 89 88 81 72 70 65 76 78 76 81 84 82 86 84 80 72 67 69 68 67 65 60 60 62 61 58 57 59 55 54 54 54 54 55 54 60 69 76 76 78
86 90 97 91 68 87 99 77 70 71 80 86 80 83 85 84 82 86 79 74 75 77 73 70 67 65 61 59 63 60 57 59 52 54 58 58 51 58 65 67 80 80 77
94 90 98 97 88 69 87 83 79 75 67 69 77 84 81 84 81 81 81 80 79 81 79 77 75 76 64 60 63 69 82 71 62 62 58 55 54 59 67 75 81 77 75
95 98 99 99 92 91 92 89 84 83 81 78 76 77 82 81 80 84 82 85 86 86 80 72 74 80 90 71 66 72 88 82 69 60 56 56 55 60 67 73 82 86 88
99 97 100 100 98 92 89 87 91 84 82 84 88 88 87 86 81 79 77 80 83 87 84 78 82 83 96 94 84 81 71 78 69 76 64 58 56 57 64 70 72 80 82
97 100 89 98 99 86 88 87 88 85 92 89 89 96 90 86 79 82 82 84 83 81 83 73 81 91 90 95 92 96 96 93 84 76 72 65 62 58 60 65 71 73 78
93 93 95 97 84 87 85 89 97 88 90 82 86 88 89 87 81 82 92 82 80 96 84 93 98 100 99 89 98 98 97 95 93 86 91 84 71 55 63 63 68 73 76

GFSSE_925_rhum_087.txt.gz
RH
91 71 76 73 72 69 67 79 90 89 79 77 76 80 87 83 96 93 88 84 94 96 97 97 98 91 92 94 94 95 99 90 74 83 90 95 98 99 89 81 83 86 88
79 76 65 63 69 74 71 61 70 84 85 85 89 89 96 95 97 99 94 90 89 94 96 98 98 93 94 91 82 56 52 60 57 40 59 65 80 82 80 85 93 93 96
72 66 66 69 66 68 70 65 60 68 85 87 88 93 97 93 97 98 93 89 86 86 79 92 97 96 94 53 56 66 66 70 72 72 51 59 74 88 88 89 88 94 96
76 70 68 70 72 74 75 69 61 56 74 87 86 88 85 94 94 97 92 87 82 83 82 83 79 80 60 38 60 64 66 68 71 76 75 74 90 91 92 93 91 88 87
80 74 76 79 77 81 80 79 75 68 60 81 87 85 89 91 89 94 89 83 75 81 85 86 82 72 56 39 61 65 68 75 73 79 76 70 77 93 93 95 94 94 92
84 82 78 69 83 82 84 81 82 84 75 75 86 87 88 90 86 91 84 81 75 83 84 92 86 80 59 44 57 65 69 70 76 74 77 74 88 94 94 96 96 96 94
88 83 80 74 78 79 89 79 83 84 82 72 87 88 86 89 84 83 82 79 79 87 90 86 84 84 64 46 56 66 67 70 75 73 73 68 91 94 93 92 94 96 96
81 89 84 81 79 78 84 80 81 84 85 64 87 86 87 87 83 82 82 84 88 87 81 85 79 84 72 49 52 64 65 67 78 73 74 58 89 95 94 83 90 94 94
75 81 99 98 94 85 84 81 81 74 83 66 80 84 85 88 84 84 82 87 89 86 86 85 88 92 74 52 47 59 61 64 71 73 72 58 73 96 87 75 74 72 71
96 94 96 98 97 99 100 98 87 67 84 80 78 82 94 88 86 82 82 84 91 90 87 85 84 72 52 48 43 51 58 60 64 64 74 64 66 89 79 68 68 66 67
93 93 85 81 79 75 77 72 93 80 79 87 81 90 93 86 84 83 82 83 94 90 76 70 56 47 44 42 36 38 53 53 54 57 56 50 60 69 66 65 67 69 68
89 81 86 77 72 69 86 83 68 98 70 89 95 99 90 83 87 88 88 84 92 83 69 54 49 47 43 39 36 34 42 45 52 54 54 53 59 64 67 67 68 70 71
84 80 72 76 71 57 92 87 75 63 91 83 94 98 90 85 85 92 91 91 93 83 62 54 50 45 40 41 41 35 47 43 46 46 51 53 60 63 67 70 70 72 71
76 75 68 65 56 70 77 79 70 65 82 87 93 98 87 85 86 89 93 92 94 74 57 48 42 38 38 46 46 44 44 50 50 50 55 58 59 62 64 66 70 75 79
81 71 64 68 75 79 62 80 72 73 70 88 87 90 90 82 86 91 86 77 66 57 50 48 44 40 43 46 47 46 46 52 56 57 58 59 58 60 60 61 62 71 78
80 76 65 70 91 85 98 85 85 78 96 91 91 87 86 80 83 85 82 73 55 54 60 60 55 55 49 47 46 48 49 54 57 57 51 56 56 61 62 58 60 62 65
82 84 72 74 84 87 91 89 78 91 86 79 81 80 80 75 74 78 70 65 66 63 59 60 56 53 48 46 47 53 58 59 59 57 54 55 57 58 63 65 66 68 65
75 86 74 79 78 86 86 87 69 98 78 70 72 74 67 72 70 67 65 65 66 60 56 53 51 49 48 52 54 57 58 57 56 58 56 52 51 57 64 68 70 72 72
82 86 82 84 81 83 97 91 72 91 89 72 67 66 66 67 67 64 62 61 58 56 55 54 53 50 52 59 60 60 59 59 55 55 54 52 51 61 67 70 71 72 74
82 86 86 88 85 81 83 99 76 90 93 93 63 61 63 63 64 63 60 62 65 66 65 63 57 53 56 59 60 60 59 60 58 52 54 53 55 57 59 62 68 73 71
93 96 89 91 91 94 83 86 99 91 97 96 84 67 72 73 71 71 74 72 74 70 66 65 65 60 62 64 64 62 63 63 55 52 51 58 56 54 53 57 70 79 78
100 100 98 86 88 94 81 73 78 86 84 96 89 86 78 79 81 83 78 70 76 77 73 71 70 70 68 64 64 73 83 70 62 57 60 58 56 54 56 56 77 84 77
97 98 99 96 91 93 96 89 90 83 79 80 84 84 88 74 70 66 74 74 76 80 82 83 82 79 78 73 69 70 90 89 79 67 66 56 55 56 58 66 80 85 84
99 100 100 100 100 92 92 94 93 90 87 88 77 92 85 78 83 84 74 70 72 72 71 71 73 77 82 79 81 82 84 91 94 91 71 63 57 56 60 73 72 83 87
94 93 98 99 100 100 92 98 95 93 97 91 92 93 92 87 78 81 78 80 77 72 79 81 83 80 74 71 82 89 88 98 99 97 93 77 64 61 64 71 70 74 78
95 94 96 96 95 99 100 99 97 99 96 93 89 82 79 82 88 77 82 88 93 98 100 96 95 95 98 95 90 87 88 94 98 97 98 94 86 76 74 72 74 74 74

GFSSE_925_rhum_090.txt.gz
RH
92 87 88 96 86 86 91 85 85 72 69 72 86 93 98 95 98 87 65 89 95 94 92 97 93 97 99 94 97 96 92 87 96 93 94 92 97 99 90 80 82 88 94
81 86 89 95 92 81 91 84 84 78 77 85 95 95 100 100 100 88 85 97 97 96 97 96 92 94 92 92 95 92 78 53 66 73 77 84 83 86 83 93 88 91 96
76 80 85 90 91 80 80 84 86 86 81 86 90 98 98 94 99 95 89 94 96 96 97 94 93 91 85 82 86 89 83 71 65 56 54 59 77 91 92 91 92 94 94
76 71 73 85 89 78 73 69 71 82 86 85 85 90 92 94 91 95 91 90 90 85 93 98 94 56 54 78 92 90 79 76 78 73 66 84 93 93 92 92 92 90 87
78 70 70 68 76 74 72 66 62 64 80 84 82 85 87 93 86 94 89 82 81 78 83 87 57 38 57 73 79 75 78 72 78 76 63 68 83 94 95 95 95 93 92
79 73 67 67 67 68 67 69 70 64 59 85 86 82 87 92 84 92 82 80 81 80 84 81 62 46 60 66 70 78 79 77 78 75 70 77 87 93 95 96 96 95 94
87 82 80 76 69 80 80 79 73 84 80 72 84 86 84 88 85 83 87 79 76 84 88 83 74 52 43 65 69 72 75 79 77 73 63 78 92 93 94 96 96 95 96
87 89 87 86 81 78 85 82 79 82 88 75 78 86 83 86 87 76 82 77 81 83 90 87 84 57 44 60 68 69 71 74 76 74 61 66 89 96 92 92 90 86 83
87 88 92 93 96 94 97 96 95 86 85 84 70 83 82 85 86 75 78 79 83 81 79 84 85 71 47 53 65 66 69 75 76 74 61 60 79 95 84 70 68 70 73
82 81 94 95 94 98 94 88 89 90 90 89 70 80 80 85 86 81 80 82 79 81 89 76 86 86 54 46 61 62 64 68 74 71 74 62 71 92 78 70 68 67 68
97 92 90 91 92 88 81 72 74 85 79 86 75 80 81 84 85 82 81 83 82 85 87 85 87 71 50 44 43 59 59 64 63 65 60 53 67 82 73 65 67 68 67
100 94 93 94 87 87 77 67 64 64 62 71 88 80 80 89 87 80 81 83 85 86 88 86 74 50 44 41 36 50 54 55 56 58 57 54 61 66 64 64 66 68 71
92 91 88 89 90 87 83 77 71 60 63 55 54 89 93 94 90 84 80 86 90 90 80 70 56 49 42 38 35 36 44 45 50 53 54 52 58 63 65 64 66 71 74
82 75 72 74 74 81 74 63 55 46 54 53 61 84 100 93 91 90 84 87 93 88 74 58 52 46 42 39 39 37 46 46 45 48 52 55 58 62 66 66 68 72 79
77 77 76 70 67 57 61 74 70 63 59 49 60 67 87 100 95 92 88 87 93 86 65 54 50 43 38 45 45 44 44 48 52 51 52 57 61 60 61 65 68 69 76
68 69 67 60 56 58 69 85 91 76 62 53 59 65 89 84 99 96 95 92 93 87 61 48 43 42 38 45 46 46 46 47 56 57 57 56 54 59 61 62 62 63 68
65 66 69 65 67 71 72 84 92 93 70 61 67 77 73 90 97 90 87 92 79 76 52 49 50 54 48 49 48 48 48 51 54 58 60 57 56 56 60 64 65 67 70
67 72 64 67 66 67 74 80 85 92 95 79 97 99 75 86 86 91 87 83 68 56 52 62 63 61 58 51 48 48 53 58 59 60 60 58 53 51 53 64 68 71 73
65 72 76 77 60 66 81 88 88 82 100 99 94 99 76 81 88 82 87 77 59 64 62 63 61 59 53 51 52 53 56 59 60 59 60 57 55 50 56 64 70 73 74
72 76 73 69 70 73 80 98 97 82 86 76 80 85 85 85 81 77 80 66 65 69 65 60 55 53 52 53 62 63 61 61 60 60 59 53 54 53 58 64 68 70 70
79 86 82 82 77 77 84 87 89 83 98 94 83 83 89 84 77 74 68 66 66 62 57 56 55 55 57 58 62 65 64 62 62 60 58 55 56 59 57 57 56 60 68
95 94 96 92 91 93 83 87 94 86 97 99 94 92 78 63 67 70 64 62 61 60 62 64 64 61 59 62 68 73 83 73 66 63 60 59 57 57 57 57 54 57 75
99 97 99 98 97 94 85 90 90 90 95 100 100 99 88 72 65 67 64 67 74 75 73 69 66 68 71 70 66 70 95 91 81 73 70 65 61 60 60 55 54 69 83
99 97 100 99 100 99 95 97 91 94 98 96 100 97 89 81 75 71 69 81 77 78 76 75 78 78 78 84 85 75 71 73 88 84 75 71 68 73 72 63 63 73 84
100 99 100 100 99 100 99 98 100 99 100 99 99 100 99 97 93 86 85 83 79 78 76 81 80 88 86 75 82 85 98 95 89 94 95 90 76 72 76 80 75 75 75
100 100 100 100 100 97 100 97 100 100 100 100 100 100 100 99 94 92 87 84 89 87 88 84 81 77 75 86 88 90 94 94 99 97 97 93 84 83 73 75 81 81 80

GFSSE_925_rhum_093.txt.gz
RH
88 84 85 86 86 87 89 75 69 71 81 93 96 97 99 95 90 80 69 86 91 94 96 93 93 87 90 91 91 97 85 91 92 88 86 92 97 94 88 86 85 92 97
80 85 85 87 89 90 86 83 72 69 74 90 99 98 98 98 99 88 93 96 95 94 98 91 90 95 89 98 90 78 78 80 83 87 86 86 88 93 94 94 89 93 90
83 86 85 85 88 87 87 83 81 72 74 88 94 96 93 95 99 91 94 96 95 96 97 88 92 91 92 96 86 86 79 54 58 63 61 63 90 94 91 94 94 92 92
82 85 85 86 85 86 85 86 84 81 83 85 88 91 96 92 98 92 94 97 95 95 96 93 93 87 88 92 96 95 78 73 65 64 69 83 92 92 92 93 90 88 88
89 87 86 84 85 76 72 81 86 86 84 83 86 85 88 94 87 93 92 94 92 90 92 89 88 92 96 96 96 82 74 79 75 63 70 75 84 94 95 94 93 94 93
81 82 82 86 85 72 66 62 64 78 87 85 82 87 85 93 82 92 86 85 85 84 82 63 45 72 84 84 86 79 73 78 76 68 65 75 86 93 94 96 96 95 95
77 77 81 80 74 72 73 69 64 62 67 86 85 86 86 93 88 88 81 78 76 78 78 70 44 67 71 76 84 80 77 78 74 65 68 78 92 94 94 96 96 96 96
86 89 75 71 71 74 77 78 76 83 87 75 82 87 84 86 87 81 80 81 76 81 82 75 51 54 66 74 77 74 76 77 76 68 65 75 92 95 95 97 97 97 97
77 87 94 89 89 92 95 94 91 90 95 92 76 82 88 82 84 81 85 75 78 83 85 82 65 47 59 70 72 72 73 76 76 71 57 67 88 96 94 83 86 86 81
78 82 84 88 95 95 95 92 92 91 92 96 91 74 86 84 84 82 81 77 82 82 85 84 80 50 49 66 68 69 71 76 75 73 70 62 83 96 81 70 69 69 68
100 98 84 87 95 96 90 84 82 78 67 77 87 82 83 85 85 82 80 76 82 78 81 80 82 73 48 55 65 66 66 69 73 70 70 59 74 94 87 67 68 69 69
99 100 98 96 93 88 84 76 78 76 67 59 61 87 87 85 87 85 78 77 79 80 90 81 81 85 56 48 53 62 61 66 64 64 60 56 64 79 73 64 66 69 72
98 100 100 96 93 85 80 69 65 67 58 57 53 48 77 88 88 87 80 79 83 82 85 87 88 76 51 46 42 53 58 57 56 57 57 56 58 83 72 66 67 70 72
93 92 93 94 90 87 81 74 71 65 65 52 51 51 60 82 96 90 84 81 85 86 86 90 85 59 46 42 37 38 53 51 48 51 52 54 57 66 72 69 69 74 77
79 81 79 83 83 84 81 74 59 58 61 55 53 50 53 79 95 98 87 87 87 88 91 86 71 51 46 42 38 37 40 45 46 47 50 55 59 62 64 66 76 84 93
81 72 69 69 66 71 69 59 57 57 57 61 66 53 46 61 79 98 97 92 88 88 91 80 63 51 47 43 45 46 44 46 48 52 51 53 58 61 61 65 67 72 74
55 73 69 68 69 74 63 59 63 65 68 63 72 69 59 52 73 74 96 100 80 90 93 75 68 55 46 41 45 47 47 47 48 53 59 59 57 59 58 62 65 66 70
35 58 70 73 69 62 58 59 67 74 78 80 74 79 86 62 68 84 87 99 97 98 92 85 64 58 49 44 45 49 49 48 51 54 56 60 60 58 56 60 64 68 70
37 56 67 72 70 66 66 72 78 80 83 83 88 87 93 94 91 96 82 94 83 82 89 92 62 58 59 59 58 52 50 51 55 60 62 63 62 59 53 58 62 67 72
53 62 75 76 73 74 72 86 94 97 99 96 90 94 99 98 100 100 90 80 82 95 84 86 64 68 65 59 54 51 51 53 58 61 62 62 62 60 53 56 62 66 72
74 76 87 89 79 84 89 96 95 92 85 94 90 98 100 100 100 100 97 79 76 92 78 62 68 71 68 57 60 68 69 66 64 62 62 62 62 57 56 57 62 63 64
100 96 91 92 94 94 95 90 90 84 81 81 87 91 95 98 99 90 95 88 81 79 73 73 72 64 60 58 68 77 84 74 65 64 64 62 60 59 57 60 60 58 58
93 97 98 97 92 86 92 94 92 93 97 92 96 89 84 90 94 96 91 80 75 71 71 71 64 64 66 63 66 71 94 91 83 75 70 68 63 63 62 61 62 60 65
98 91 97 94 96 99 98 100 100 100 96 97 90 100 96 91 93 92 91 79 76 74 69 65 63 67 70 71 76 70 75 76 87 84 77 75 68 63 64 66 64 64 64
100 99 100 99 100 100 100 99 97 99 100 96 90 100 98 92 91 93 80 74 78 74 80 69 84 84 81 86 78 79 84 86 85 87 92 90 80 71 69 68 64 60 64
100 100 98 100 98 100 98 100 100 96 100 100 99 100 100 100 97 94 86 90 90 92 93 73 70 72 77 98 97 93 81 88 96 100 98 94 91 81 76 78 74 75 80

GFSSE_925_rhum_096.txt.gz
RH
90 91 80 79 78 81 85 94 95 78 84 95 99 98 99 99 96 94 90 90 89 95 98 96 89 93 89 92 97 96 95 90 88 86 87 91 92 92 92 88 87 91 98
84 90 86 79 82 81 84 86 88 91 89 91 97 98 98 98 96 88 94 93 94 97 85 87 85 91 86 87 98 85 64 80 87 88 84 82 85 94 92 88 88 86 92
82 89 86 76 86 85 84 84 83 88 89 92 98 94 91 93 98 96 94 95 95 98 86 88 90 85 89 88 74 64 66 67 72 76 66 66 82 92 93 94 93 93 95
86 92 86 78 87 87 84 82 78 81 86 86 92 94 93 91 96 96 95 94 96 97 87 93 92 92 95 90 81 56 47 49 53 57 64 79 92 93 93 92 90 90 90
90 89 87 81 83 85 85 83 80 78 82 86 86 87 88 87 97 94 94 91 90 98 88 94 90 92 94 95 89 80 73 67 64 68 71 76 87 93 94 94 93 94 93
95 88 88 83 83 80 82 86 83 82 80 84 86 86 87 92 97 89 90 91 91 96 84 82 94 95 92 90 80 76 75 69 62 62 68 80 91 92 93 94 95 95 95
98 89 87 82 84 78 71 69 73 76 84 85 84 87 88 90 91 82 84 90 91 86 81 50 92 96 88 82 78 73 76 74 68 64 69 81 93 92 93 95 95 95 95
83 82 82 84 84 78 72 68 69 70 73 83 84 84 87 85 89 83 78 85 86 80 78 52 68 81 79 84 78 75 76 75 69 64 70 79 94 93 94 96 96 96 96
67 79 77 84 87 94 95 90 90 92 98 88 72 86 85 84 86 88 77 77 75 74 77 66 52 71 76 83 75 74 76 76 74 62 66 75 91 94 94 90 88 92 94
99 77 75 75 82 87 89 89 93 91 92 86 84 76 85 86 85 85 77 81 77 78 82 82 55 57 72 78 73 72 76 77 76 67 65 69 92 95 91 73 75 75 72
98 99 98 73 81 85 86 87 85 81 76 77 77 85 75 84 86 84 82 79 76 79 82 86 78 51 59 73 72 70 73 76 76 73 70 64 86 96 90 70 72 74 68
93 98 99 100 99 88 92 84 80 74 65 64 71 67 80 87 87 83 83 82 78 80 81 82 83 69 53 64 70 68 68 71 71 68 66 60 72 95 95 69 68 70 70
95 92 98 100 100 96 87 84 78 75 66 54 54 49 58 69 84 89 85 84 78 77 81 80 82 83 74 54 61 65 64 63 68 64 62 58 62 94 92 73 67 71 72
82 96 100 99 98 92 88 78 72 74 66 62 57 56 50 51 65 79 90 82 79 75 85 91 81 79 85 60 50 51 60 60 57 57 57 58 58 84 91 83 73 71 73
86 85 91 99 96 89 84 80 70 70 70 67 66 63 62 50 62 70 75 88 83 79 82 89 90 85 84 57 49 42 46 56 55 52 51 55 57 62 71 74 75 77 79
52 81 82 91 88 88 87 85 80 78 65 57 56 60 66 66 65 69 78 84 85 81 83 85 87 90 84 58 47 40 38 43 45 46 47 51 57 60 64 69 69 70 80
30 35 75 79 84 86 82 80 76 62 54 56 56 62 65 65 77 94 82 88 88 91 84 89 88 89 77 59 54 44 40 41 46 48 52 51 53 57 61 64 66 66 67
29 30 29 40 70 72 73 78 68 59 63 59 63 66 71 74 74 87 100 99 86 95 100 90 88 90 79 63 55 46 48 48 48 48 50 57 60 59 58 61 64 67 68
29 28 28 49 68 73 72 71 69 71 72 75 75 74 75 80 80 91 98 100 98 95 92 88 88 93 85 74 55 48 47 49 49 49 52 54 57 62 63 59 61 63 67
29 38 52 66 74 81 82 79 82 85 85 92 93 91 81 81 83 97 97 95 100 99 89 86 92 88 84 78 65 52 51 54 51 52 55 60 63 64 64 63 59 61 67
75 76 73 77 78 85 93 97 100 99 100 93 91 86 99 90 87 100 99 99 100 99 92 81 96 97 86 78 75 69 62 56 54 53 56 63 64 63 63 63 60 60 63
100 98 92 89 92 94 95 95 96 94 92 89 90 87 93 93 87 100 98 98 94 79 79 73 74 93 83 75 74 80 87 75 69 67 66 65 63 62 63 61 60 62 68
99 100 100 100 99 100 99 99 100 100 100 98 94 95 86 92 87 90 100 100 100 96 93 94 92 84 72 73 72 70 94 92 83 73 68 66 64 64 61 61 65 69 69
100 100 99 99 92 90 89 100 98 99 100 98 98 96 90 94 91 86 96 97 100 98 87 75 90 81 77 80 79 69 74 75 88 87 79 76 71 67 62 62 67 69 65
99 100 100 100 99 100 99 99 98 100 94 99 100 98 88 92 100 97 98 97 96 98 100 93 85 71 80 77 71 72 81 86 87 86 85 83 78 70 71 64 66 71 68
100 99 95 95 100 98 100 99 100 98 98 96 100 100 98 100 100 100 100 100 100 100 100 99 95 71 75 76 80 79 73 84 94 99 99 92 88 69 71 72 75 74 70

GFSSE_925_rhum_099.txt.gz
RH
93 95 82 78 81 88 77 73 75 83 82 96 98 96 98 99 95 91 90 83 84 98 96 97 96 95 96 95 96 97 93 94 93 89 82 87 94 96 89 85 87 94 90
92 90 82 83 78 85 86 80 73 83 86 94 93 92 92 95 98 96 93 92 89 97 97 89 89 84 83 88 97 81 83 85 85 84 77 81 82 93 85 85 86 94 94
87 93 91 76 80 78 85 83 85 79 82 85 92 90 87 88 98 95 91 92 93 96 88 85 91 84 86 97 92 63 75 79 82 76 60 77 83 94 95 87 92 95 95
89 89 95 82 85 86 86 82 88 85 84 84 89 89 85 86 97 93 95 94 95 94 83 85 84 86 83 87 65 55 54 60 61 54 80 84 82 93 91 91 91 91 89
97 89 86 83 86 87 84 82 79 83 84 84 87 89 84 82 93 92 90 87 93 94 84 90 88 89 82 80 63 45 45 52 59 67 86 90 84 90 92 93 93 94 92
98 98 86 82 84 84 83 82 81 77 80 82 86 83 87 85 93 94 85 88 93 92 84 90 89 90 87 84 82 76 66 59 64 64 86 86 89 93 93 94 94 94 94
99 98 91 84 80 84 85 84 82 79 80 83 86 87 89 87 90 85 81 91 92 94 82 82 95 95 87 83 78 80 68 62 57 66 86 93 89 92 92 94 95 95 95
100 92 82 84 82 82 78 82 84 85 87 87 85 84 86 85 88 89 75 92 91 93 83 67 95 95 82 77 78 77 72 69 61 65 73 91 91 92 93 95 96 96 96
99 94 83 77 86 86 83 83 83 80 78 78 85 85 82 85 85 84 85 78 90 87 80 62 86 96 80 80 75 75 73 72 61 65 69 88 89 92 94 93 93 95 96
94 97 96 83 82 82 85 80 76 79 81 77 69 68 80 88 85 86 85 75 84 82 84 77 51 81 82 82 74 74 75 75 72 60 69 86 91 93 93 92 90 90 87
80 91 98 97 83 76 73 78 78 76 77 75 73 75 69 77 86 89 90 77 76 79 76 82 64 62 76 81 74 73 77 79 76 68 66 68 87 94 92 82 82 77 70
56 82 90 99 98 94 86 81 76 82 74 68 65 73 80 70 77 86 89 81 78 77 77 83 86 65 64 94 84 74 79 76 75 73 68 61 76 94 95 82 76 76 70
31 56 87 91 98 99 96 92 89 81 71 60 55 62 56 60 68 82 89 87 84 79 78 79 89 91 82 81 79 75 70 73 74 71 67 62 65 95 94 94 75 71 74
26 30 75 89 96 99 96 90 85 79 69 60 56 56 74 66 71 71 71 84 86 81 77 79 85 93 84 70 66 71 68 66 64 68 63 63 61 82 92 94 75 72 75
26 26 58 90 97 99 99 90 84 76 75 68 69 68 65 64 69 74 79 81 78 81 77 77 82 90 90 88 80 63 63 63 62 60 56 58 58 59 82 84 80 74 73
28 23 43 84 92 100 97 92 85 76 75 76 74 71 65 63 65 71 84 86 91 83 78 75 73 85 84 83 87 69 56 51 58 58 55 51 55 58 64 72 79 75 74
33 21 26 36 80 91 92 94 92 88 86 84 75 55 54 54 57 72 80 90 89 95 94 83 80 86 89 89 90 66 53 46 43 53 48 47 49 57 60 64 69 75 72
37 28 19 28 48 67 82 88 88 86 85 79 63 63 66 69 72 94 96 100 99 94 99 95 93 93 96 87 89 71 59 49 46 44 46 49 52 51 55 59 62 67 68
36 31 28 29 34 40 61 77 77 78 79 68 69 71 71 74 79 96 96 96 100 100 100 100 100 99 87 92 88 77 72 60 51 54 50 49 51 56 58 59 58 60 65
39 33 31 37 44 64 82 85 84 83 78 75 71 70 70 72 85 98 97 96 97 97 99 100 100 99 97 96 78 67 66 66 51 51 53 51 50 53 57 60 63 61 61
52 43 41 70 70 87 91 96 99 97 90 95 96 76 78 78 73 98 99 99 97 99 96 100 100 97 97 85 91 85 80 67 63 52 57 54 52 56 60 64 65 65 61
88 97 95 94 94 92 92 92 93 90 91 90 89 89 88 87 92 100 99 98 98 100 98 100 100 97 88 92 85 76 74 60 67 63 59 56 54 57 64 64 64 65 62
95 98 99 99 100 100 99 99 99 100 99 96 93 98 96 89 86 99 97 97 100 100 99 98 98 92 93 96 88 76 89 77 70 60 62 57 62 65 65 64 64 64 64
100 100 100 97 98 100 97 97 99 96 96 94 97 88 86 94 96 95 99 97 95 100 100 100 99 96 88 88 97 83 66 76 85 80 78 73 70 69 67 65 64 65 66
100 100 100 100 100 99 99 99 100 100 97 92 97 98 99 95 99 96 100 100 98 100 92 100 99 99 96 89 87 83 89 81 81 88 83 83 80 76 74 70 72 72 73
100 99 96 94 95 97 100 100 100 100 100 99 100 98 96 99 99 100 100 100 100 99 88 95 96 92 94 98 90 81 75 75 77 88 93 90 90 72 68 71 73 72 74

GFSSE_925_rhum_102.txt.gz
RH
81 86 80 86 90 78 72 70 78 80 80 85 97 95 94 98 96 80 75 87 88 88 90 93 94 96 97 97 96 94 92 95 98 92 83 93 97 98 95 88 86 88 94
88 80 82 80 86 81 65 67 76 77 81 88 90 89 90 93 98 92 85 79 92 94 97 96 96 96 96 87 95 99 91 90 87 83 72 68 84 92 84 85 87 87 87
83 79 88 80 81 85 75 65 70 80 85 87 86 86 86 86 92 98 94 85 94 91 95 90 92 93 82 90 96 94 84 84 83 69 63 60 73 95 75 77 91 97 96
88 81 82 78 82 83 81 74 72 72 82 82 83 83 86 85 89 98 92 84 95 94 88 78 86 81 84 98 92 81 78 75 66 46 59 60 65 92 91 90 90 90 90
92 85 82 84 83 86 84 80 84 80 77 77 77 84 80 79 85 88 96 85 94 92 84 81 81 83 82 92 84 67 52 50 46 66 65 66 65 88 93 93 93 91 84
91 91 86 85 85 85 86 82 84 84 83 83 82 84 83 84 84 83 87 84 94 93 84 85 82 87 64 70 66 60 49 51 61 64 65 74 66 89 94 95 95 94 94
98 99 90 86 85 82 84 83 80 78 81 82 85 84 86 85 87 84 87 84 92 94 86 69 79 84 70 82 90 78 64 57 65 65 67 72 76 92 93 94 94 94 94
96 99 97 88 83 80 82 83 83 83 83 83 84 84 86 88 88 85 85 84 91 94 88 65 92 93 90 91 96 90 66 62 67 65 69 72 83 91 92 94 95 95 95
96 98 99 87 88 86 82 84 89 89 85 81 79 78 84 83 86 87 86 79 84 92 90 71 79 90 93 83 92 90 74 63 62 62 67 71 84 91 93 95 96 96 96
88 91 98 98 88 86 92 76 70 67 64 61 66 74 78 83 87 82 86 88 78 87 87 79 65 90 91 88 84 88 78 73 64 67 66 66 78 91 93 94 95 96 95
48 81 87 97 99 94 89 89 73 72 69 71 70 69 68 84 80 83 84 86 80 80 81 82 73 65 85 89 85 81 81 74 66 62 62 72 81 91 92 94 94 93 83
38 43 84 89 97 100 100 97 90 87 82 77 78 80 83 79 73 74 77 84 83 81 78 77 82 61 68 73 82 81 84 69 66 65 64 65 76 88 92 94 92 92 82
33 36 44 89 90 93 100 100 98 86 84 74 66 71 67 90 84 82 74 86 86 81 84 85 89 92 75 60 64 68 66 68 65 66 67 66 65 90 91 95 88 87 82
32 35 41 60 98 92 95 100 92 91 81 70 58 64 71 93 96 88 71 74 78 75 78 74 72 78 83 65 60 67 63 62 64 64 63 66 61 67 96 96 87 77 81
32 36 38 49 86 99 95 100 94 84 76 74 79 71 65 72 81 89 92 73 76 78 77 81 71 67 72 76 66 60 62 60 58 58 62 65 62 60 77 94 94 85 75
29 33 37 43 70 97 96 97 98 91 83 82 77 80 77 77 82 81 69 82 81 73 75 78 76 68 71 69 72 69 58 56 56 55 56 56 58 59 59 73 92 94 95
35 36 38 35 47 86 100 100 99 100 94 82 79 79 76 71 71 75 79 85 91 89 77 78 82 82 88 86 84 77 75 62 51 48 52 54 53 53 56 60 71 79 82
40 40 38 34 39 60 95 98 100 100 99 96 89 80 76 70 67 71 74 76 80 86 92 94 91 97 100 96 92 84 75 62 50 45 43 49 50 52 54 57 60 66 74
43 39 38 38 40 48 67 75 89 94 93 87 84 77 74 71 72 73 75 76 78 93 95 93 94 99 99 100 99 94 86 72 54 48 45 45 49 55 58 58 56 60 62
62 47 46 41 42 48 58 75 83 87 90 87 85 80 76 73 76 80 77 78 78 81 89 95 98 97 96 99 100 100 90 78 66 60 52 51 50 54 58 64 64 58 58
68 65 51 41 41 59 78 93 89 83 83 85 86 87 84 80 77 79 82 83 86 82 77 81 84 93 98 98 99 97 94 88 75 66 55 52 56 55 58 63 68 70 68
80 73 71 61 71 82 97 96 87 86 86 86 88 91 89 88 87 85 85 87 84 89 82 82 88 93 97 96 91 81 77 67 73 65 65 66 61 57 61 64 67 71 71
98 100 99 100 100 99 98 98 99 98 99 98 96 95 93 96 96 92 94 96 97 92 92 86 90 95 94 97 94 78 86 69 48 48 59 52 56 65 64 64 70 68 72
100 98 100 100 99 99 100 99 98 90 82 82 89 89 86 89 88 89 92 95 95 98 99 96 98 97 96 95 95 90 71 62 65 73 75 69 69 68 64 68 68 67 73
100 99 100 100 100 100 100 99 99 97 94 99 100 99 100 99 100 100 97 97 98 99 100 99 100 100 100 97 98 93 83 88 85 85 75 79 82 74 76 77 77 80 76
100 96 92 87 91 97 100 100 99 100 100 100 99 99 99 100 100 100 98 97 99 97 99 99 93 100 100 100 100 94 92 83 87 86 91 84 84 69 82 88 87 83 78

GFSSE_925_rhum_108.txt.gz
RH
76 78 73 76 76 80 85 77 75 77 84 91 96 98 84 88 84 58 56 56 67 89 92 94 96 97 96 94 87 86 85 95 78 73 83 87 94 92 90 93 93 87 89
76 87 78 75 77 77 83 78 76 76 81 90 92 90 91 91 92 66 73 70 80 90 92 96 91 97 97 95 96 95 92 85 74 59 54 72 81 84 87 90 86 97 98
76 86 84 74 75 77 81 78 78 78 80 82 85 81 86 88 84 83 77 76 95 94 94 93 87 95 90 84 98 98 86 79 61 60 66 73 66 76 74 84 85 97 98
82 84 90 81 70 77 72 76 79 80 80 84 84 83 84 81 88 87 86 80 93 87 84 88 90 89 86 84 98 98 81 75 47 58 62 64 72 82 82 82 91 87 90
85 87 86 84 73 74 79 71 73 77 81 85 83 82 81 78 79 82 82 79 88 90 87 87 85 84 81 80 87 83 69 62 44 59 60 60 68 80 91 88 86 92 90
85 90 93 88 83 76 74 77 74 71 74 79 83 78 78 82 82 80 78 77 75 90 90 86 84 84 79 75 73 60 52 41 57 60 61 64 74 76 95 96 86 93 94
85 92 95 95 88 80 81 81 80 77 76 75 77 75 83 81 83 81 85 87 79 87 88 83 79 77 80 68 67 52 37 36 63 60 60 64 73 73 94 95 96 94 93
71 88 93 99 88 82 83 82 83 80 80 84 82 80 78 81 83 83 83 85 80 79 86 85 85 75 78 52 61 64 56 46 60 59 62 67 74 77 93 95 95 95 96
41 63 87 90 98 88 81 82 83 82 80 78 73 73 74 76 77 78 82 81 83 80 84 86 83 66 69 61 72 72 63 49 54 61 60 65 70 75 93 95 96 96 96
35 38 46 82 88 92 93 89 81 80 78 75 76 75 76 76 78 78 79 80 80 82 86 88 84 62 60 66 74 78 77 61 50 59 60 63 70 72 92 93 93 96 96
30 33 33 42 77 85 92 91 93 83 82 82 78 77 76 74 76 76 74 76 80 81 78 86 88 77 67 78 77 83 82 71 53 60 60 60 64 75 91 90 88 95 96
28 28 29 33 38 75 83 92 93 93 79 73 72 72 76 67 73 76 76 75 74 81 82 81 88 82 77 78 84 86 77 70 62 60 58 56 61 64 90 94 89 94 95
23 24 26 30 34 47 79 81 89 84 85 84 79 80 81 80 75 72 70 73 79 80 87 84 89 86 83 80 86 74 66 64 65 65 59 58 60 60 82 93 86 87 93
23 25 27 28 34 37 60 82 84 85 82 83 81 78 78 74 80 76 72 74 72 80 83 84 85 84 84 87 70 70 69 66 66 64 59 58 59 61 62 92 97 92 95
25 26 26 27 28 32 39 77 83 85 81 83 80 77 74 76 68 73 79 78 81 82 79 84 87 87 84 83 80 61 61 67 61 61 59 58 60 60 52 70 96 98 96
30 30 29 30 32 34 34 58 84 87 84 83 76 70 69 70 67 68 67 66 72 75 82 81 79 81 80 79 76 74 58 51 57 57 55 56 56 61 60 51 66 95 97
44 38 34 33 33 33 34 38 75 86 86 86 75 72 69 68 68 71 73 75 74 72 72 70 77 76 76 75 72 72 72 60 52 55 53 52 52 56 56 56 53 60 92
56 56 56 52 39 36 35 35 45 75 86 87 83 73 68 68 69 68 68 67 68 68 69 72 72 69 72 77 75 72 75 80 68 53 52 51 51 52 53 53 51 53 57
74 70 73 67 60 47 35 36 37 61 77 89 85 82 75 66 67 69 68 65 63 63 66 70 72 80 86 84 83 77 72 75 77 66 55 49 49 46 51 52 50 50 53
81 85 85 81 82 59 44 36 36 47 78 85 87 87 78 71 69 67 66 64 64 64 66 69 76 78 75 87 91 92 89 78 77 86 77 68 54 44 43 50 50 52 53
88 91 90 97 91 88 52 41 40 45 58 75 82 83 76 70 70 69 68 69 69 69 69 69 70 76 82 83 94 96 97 95 94 92 85 72 61 50 45 42 45 51 57
96 99 95 96 91 96 93 76 38 53 60 64 71 78 76 78 79 80 82 82 82 79 77 75 73 75 78 82 89 86 91 84 98 99 95 83 73 58 47 47 47 47 51
97 99 97 98 96 100 92 91 69 64 67 70 75 86 85 89 89 88 88 86 90 93 89 87 85 81 85 84 82 86 96 88 85 84 98 90 80 75 60 55 50 54 55
97 93 94 95 96 99 99 96 93 100 91 93 96 99 99 97 91 91 93 94 96 94 97 100 97 89 87 86 88 85 85 82 90 87 79 90 85 82 73 66 59 52 56
97 97 88 90 92 98 99 99 99 100 100 99 99 96 96 97 97 98 98 99 98 97 98 99 99 99 98 97 90 89 91 94 96 93 89 84 80 79 73 67 66 61 51
95 92 92 89 88 89 97 99 99 100 97 96 90 92 92 93 93 93 95 97 93 90 91 99 99 99 99 98 99 97 96 88 84 95 97 89 90 86 75 64 62 63 62

GFSSE_925_rhum_111.txt.gz
RH
79 76 75 73 76 75 81 78 80 83 88 86 91 89 80 85 69 52 57 71 75 90 96 96 97 94 94 84 80 79 76 68 76 84 84 88 96 96 91 90 90 91 97
84 82 82 74 76 76 80 78 78 81 84 89 95 89 89 90 78 64 60 67 81 92 93 97 88 95 91 91 88 90 83 70 58 58 68 73 84 94 93 88 88 97 98
84 92 92 78 76 77 80 78 78 79 81 87 87 88 86 89 82 73 72 76 87 91 93 88 86 94 85 80 91 96 79 66 56 69 76 68 61 76 85 84 82 96 98
83 88 86 86 76 74 75 77 77 78 79 83 84 86 85 86 86 85 79 64 86 92 88 90 89 91 91 78 96 94 75 59 52 65 72 76 62 58 74 72 87 90 93
87 89 85 87 80 71 73 68 75 79 78 82 84 82 80 83 84 84 82 72 79 87 83 86 85 86 84 80 91 75 62 49 56 65 66 72 67 68 86 85 93 94 87
84 92 95 92 89 80 74 78 73 74 78 80 83 84 79 81 78 85 82 73 63 89 89 82 85 85 84 80 68 62 56 41 60 63 72 72 71 74 96 98 86 94 94
74 87 93 96 93 88 79 77 78 77 75 76 81 84 77 81 82 87 82 82 79 80 88 87 82 81 81 69 63 55 39 35 62 62 67 62 72 72 77 91 94 94 94
45 72 85 93 94 88 84 83 84 82 78 76 78 79 78 82 81 83 82 81 82 71 86 86 82 82 73 66 50 42 38 37 63 61 66 65 73 69 87 94 91 94 95
35 34 46 79 88 86 89 85 80 81 83 80 77 77 78 78 77 80 82 81 82 79 79 86 85 85 66 65 48 51 55 46 59 62 73 66 70 79 88 93 91 95 96
27 34 32 35 71 89 92 87 88 84 79 80 80 77 76 78 79 81 79 78 77 81 81 85 88 84 62 60 54 56 62 55 45 59 66 72 68 79 89 93 95 95 96
25 28 27 29 31 52 81 91 89 89 86 80 80 82 80 80 78 78 75 72 73 76 78 83 88 87 74 61 57 61 65 66 55 54 65 65 66 78 89 82 94 95 96
24 21 23 24 24 31 45 81 91 90 87 83 74 70 70 68 67 67 66 73 73 75 80 78 83 90 85 77 72 75 75 67 63 52 61 65 60 72 85 80 91 95 96
22 24 24 25 26 26 35 50 81 90 89 87 87 86 86 81 82 77 79 78 81 80 82 83 81 86 89 85 80 81 76 71 65 53 55 65 59 66 83 81 81 89 96
26 28 29 28 29 29 29 35 54 77 85 85 84 84 84 86 84 83 83 82 81 84 83 88 87 82 84 82 81 81 78 75 69 57 54 68 61 59 70 86 90 84 91
33 34 33 32 31 31 33 33 38 73 70 81 86 82 79 76 75 73 75 81 86 87 86 85 86 86 86 82 77 80 78 69 72 69 54 66 64 60 60 64 89 97 95
62 62 61 57 42 35 34 33 32 52 72 77 86 89 81 72 72 71 64 68 76 79 82 82 85 86 86 87 84 81 80 74 64 68 58 60 62 60 61 62 61 90 96
70 71 71 69 70 65 48 36 34 34 55 70 84 86 88 74 70 67 64 68 67 72 72 74 74 80 83 84 82 81 76 76 75 61 62 58 58 58 59 62 61 56 83
72 72 73 70 68 73 65 59 36 35 38 70 63 82 86 77 74 70 70 72 69 69 68 67 69 75 77 78 79 78 79 78 73 74 61 62 58 54 55 56 57 57 56
78 83 81 79 77 79 75 64 51 36 36 54 61 70 79 75 74 72 70 71 69 66 65 65 68 70 72 72 72 75 76 76 75 75 77 67 63 54 53 54 54 54 54
79 90 97 94 92 84 77 76 59 48 38 36 62 76 79 78 75 75 75 74 71 65 65 66 70 71 73 73 74 72 72 72 78 82 80 77 65 59 53 50 50 53 52
81 91 94 94 93 89 100 99 83 74 43 38 54 68 75 76 80 90 81 79 75 75 75 74 74 74 75 80 89 91 92 86 86 90 92 85 79 74 62 59 60 48 50
81 87 95 98 96 95 99 99 100 82 68 70 59 66 79 97 99 100 93 85 87 84 83 84 88 89 85 82 85 88 87 69 77 74 84 95 89 83 74 68 55 49 50
95 94 94 95 98 99 99 100 95 72 63 67 74 83 100 99 100 96 90 88 87 91 97 100 99 99 100 94 89 89 92 86 85 73 88 97 93 90 83 73 67 61 52
94 94 89 94 93 91 98 99 100 100 99 100 99 99 99 100 97 94 92 89 90 94 95 97 99 97 99 97 91 91 91 87 88 82 76 78 80 92 87 82 72 64 60
92 92 89 84 84 84 93 98 100 99 99 99 100 97 97 100 97 97 93 91 87 92 93 95 88 92 97 100 100 92 87 93 97 94 90 75 81 86 88 85 82 73 63
90 87 82 74 72 69 74 90 97 97 96 98 95 89 76 68 67 70 78 80 82 82 87 94 95 91 82 90 99 100 98 86 75 86 90 84 82 77 85 83 85 78 72

GFSSE_925_rhum_114.txt.gz
RH
78 82 78 78 76 75 79 79 81 85 85 88 86 80 78 76 57 56 71 69 86 95 97 96 92 90 94 86 83 86 80 82 85 84 81 87 94 95 90 86 92 95 98
86 85 86 80 78 74 77 79 79 81 84 87 94 82 84 86 63 57 58 66 86 96 97 97 96 97 95 83 85 82 66 56 58 65 70 79 89 94 86 86 88 96 99
85 87 90 84 81 78 78 78 79 80 83 88 92 89 89 89 80 68 58 72 84 91 97 91 90 97 87 88 85 80 66 46 62 71 70 62 70 78 83 79 83 92 98
84 83 83 83 82 76 76 77 80 80 81 84 88 88 86 89 86 82 74 58 85 92 94 89 90 93 81 74 93 80 70 51 66 71 72 68 62 52 60 67 84 92 94
79 85 84 78 85 78 72 69 75 79 80 84 85 85 84 84 88 87 84 79 68 88 86 89 86 86 82 80 74 80 66 54 58 69 70 70 70 52 62 88 90 84 78
82 89 91 86 92 87 78 78 70 75 78 82 87 88 84 82 83 83 84 82 61 86 85 87 84 83 82 78 60 58 57 50 61 71 67 70 73 69 77 72 72 86 92
59 81 92 94 91 89 88 81 78 77 74 77 80 84 83 78 80 84 85 83 74 73 87 86 85 85 80 80 64 49 46 41 62 71 74 75 74 76 84 76 80 94 92
34 34 58 88 93 85 87 86 83 80 80 78 78 78 82 77 80 82 85 82 84 80 80 89 87 85 80 78 64 54 38 35 61 66 68 72 71 79 88 93 87 94 94
29 32 31 38 74 93 88 85 83 83 83 81 79 80 82 83 82 81 83 84 81 82 75 84 87 85 85 70 60 43 37 36 57 65 67 69 74 78 92 87 91 94 95
23 26 25 24 28 42 89 94 90 84 80 81 80 77 77 78 78 79 80 80 82 80 82 81 87 86 87 67 59 48 50 54 45 63 67 74 76 88 92 88 88 94 95
21 21 21 23 22 21 30 70 92 93 88 83 79 80 79 78 76 77 78 76 75 77 78 82 85 89 91 78 63 58 55 59 57 50 59 67 74 92 92 88 80 94 94
25 25 26 27 27 26 24 30 60 91 98 92 82 75 76 77 76 74 74 76 76 78 80 81 82 86 91 87 77 71 65 61 65 60 52 66 67 87 91 91 80 91 94
30 31 32 31 29 30 31 30 30 46 80 92 92 88 83 81 77 78 76 72 80 84 84 83 86 88 94 92 86 79 73 69 62 62 58 61 66 86 87 96 84 84 95
56 61 56 47 42 36 33 32 31 30 43 67 83 94 91 86 83 83 85 82 81 75 82 83 84 84 87 93 92 86 80 76 71 58 55 52 59 71 86 91 94 83 95
66 65 62 60 59 58 52 41 37 34 32 45 68 77 94 90 84 81 86 84 84 76 75 79 85 78 86 85 88 89 87 83 80 70 69 65 55 66 68 72 87 94 95
72 66 63 60 60 64 64 60 48 40 36 35 55 63 78 92 88 81 79 78 81 83 78 75 83 78 81 83 76 82 83 82 84 74 62 63 67 61 66 68 66 80 94
73 73 68 65 62 61 62 67 63 52 40 37 36 60 57 77 91 88 76 74 66 75 77 78 78 74 79 76 76 76 76 80 89 86 82 69 62 62 64 65 68 68 70
72 76 78 80 79 78 70 60 70 63 50 39 37 47 61 59 76 91 81 72 67 75 76 74 72 73 76 81 79 78 78 79 80 80 82 80 78 65 63 64 67 65 66
77 83 87 91 93 90 84 78 68 71 60 47 40 37 46 62 77 87 87 77 76 79 76 70 69 70 72 72 74 74 74 76 75 75 76 81 82 65 63 63 70 65 64
79 86 93 96 96 93 96 97 77 64 65 57 43 42 42 66 81 84 84 94 89 86 79 72 70 73 76 77 80 79 75 73 71 69 67 69 76 81 74 65 62 60 61
76 80 88 94 93 100 99 98 99 100 79 70 80 86 81 79 83 98 98 92 92 88 94 92 90 88 83 83 86 82 82 82 78 74 70 71 73 72 83 76 70 60 55
83 81 85 89 88 93 98 100 100 100 98 100 95 90 90 96 99 97 100 100 100 100 100 100 100 99 99 95 94 92 88 75 69 65 66 69 69 72 84 84 77 67 62
86 87 93 87 86 90 98 97 93 99 100 100 98 100 98 90 98 95 97 100 99 100 99 99 94 96 99 96 93 90 90 90 90 70 72 82 84 88 86 88 85 80 73
87 85 85 83 77 80 92 95 95 100 99 100 100 100 100 95 97 98 98 98 99 96 93 99 89 99 100 99 96 93 98 94 90 82 66 73 74 81 80 90 89 82 76
86 85 78 72 65 64 76 86 86 96 100 92 94 98 98 99 94 90 86 82 86 89 93 90 90 90 92 100 100 100 93 94 90 90 90 72 66 76 70 75 83 83 77
87 80 75 58 51 46 48 48 53 59 64 61 56 55 54 51 46 56 51 50 51 51 56 70 78 86 96 96 98 99 100 99 97 97 96 91 85 74 78 78 81 78 78

GFSSE_925_rhum_117.txt.gz
RH
82 82 79 80 79 78 77 77 80 84 81 76 77 74 72 64 51 62 65 65 86 93 95 95 92 92 96 96 96 95 95 92 88 83 79 86 93 94 87 89 91 93 95
88 86 84 84 82 78 76 78 77 81 87 85 89 81 88 83 60 54 65 76 91 94 93 97 96 94 95 97 97 67 60 70 72 71 73 86 88 88 89 90 90 95 97
84 76 78 83 81 78 77 78 79 79 82 89 94 88 92 90 78 68 59 71 84 93 94 92 92 95 93 91 89 80 56 52 58 60 61 63 79 83 82 84 91 91 98
84 79 75 78 84 77 78 80 80 79 82 86 89 88 88 89 86 82 76 67 83 89 92 90 90 91 80 79 84 81 62 65 71 70 65 62 59 59 61 66 76 90 97
82 84 79 78 84 78 75 75 80 80 82 83 86 86 84 86 87 87 86 84 64 85 86 89 87 87 82 78 70 80 74 59 69 68 70 68 68 66 69 86 90 82 76
78 85 90 86 85 88 83 80 73 76 82 84 86 86 85 82 83 86 85 81 72 76 84 88 88 87 84 82 75 73 69 65 58 69 64 68 73 79 73 62 68 78 83
34 40 78 94 92 91 91 84 78 77 74 76 84 85 87 85 84 84 85 82 78 60 84 86 84 86 83 80 72 57 62 61 59 70 70 70 73 92 91 86 90 95 95
28 31 30 52 87 95 92 89 85 82 81 79 78 76 79 83 79 82 84 85 83 84 71 85 88 88 83 76 72 60 50 50 54 69 70 72 74 93 90 84 78 92 94
22 22 23 23 26 45 90 93 90 86 84 82 83 78 80 81 79 80 79 80 84 82 83 77 85 88 85 84 72 61 52 40 46 65 68 68 73 92 94 94 92 94 94
20 21 22 22 22 21 23 63 91 96 93 88 82 81 80 82 79 79 79 78 77 78 80 81 78 85 88 87 78 66 50 45 45 56 67 68 72 88 93 97 90 94 95
27 28 30 30 28 27 25 23 33 76 97 98 94 87 84 82 82 82 80 78 79 80 78 82 84 83 86 88 86 68 61 56 61 53 58 66 72 78 94 96 93 93 94
38 40 41 36 33 31 32 31 28 28 55 87 97 96 87 82 80 81 82 80 79 80 81 84 84 86 89 93 92 82 71 59 58 60 58 56 63 72 94 94 97 94 95
66 58 57 55 50 42 37 35 34 32 29 33 68 85 94 94 89 80 75 75 77 74 77 84 86 88 90 94 95 92 83 75 67 60 59 62 57 68 88 90 89 95 95
70 66 62 61 60 58 57 52 43 37 36 34 30 54 74 94 94 90 87 84 85 80 77 77 80 83 84 84 87 91 92 86 82 78 74 62 64 63 78 90 89 93 95
67 66 61 60 59 57 56 60 59 52 41 38 36 34 62 71 85 93 90 86 88 87 80 79 75 78 84 80 89 90 86 85 82 82 80 77 64 60 58 82 87 97 98
68 67 66 66 68 65 60 57 55 64 62 48 39 37 36 61 69 71 92 90 83 85 83 78 73 74 75 76 82 88 87 86 81 82 84 83 71 70 71 60 71 81 95
69 70 69 73 74 70 66 64 61 57 71 65 52 40 37 38 72 71 73 90 87 81 82 82 78 86 85 78 80 79 84 77 80 80 82 79 81 73 65 69 64 71 83
71 74 79 83 85 76 74 73 69 62 68 68 61 51 42 38 44 58 71 81 87 88 85 83 86 85 85 74 74 76 82 83 85 84 88 87 85 82 76 71 66 64 74
74 79 87 92 93 83 93 96 87 75 70 75 70 59 45 46 54 88 91 92 96 89 91 95 90 85 80 76 77 77 77 78 77 77 75 71 69 70 72 72 71 66 66
75 78 83 88 87 94 97 97 98 97 92 98 96 94 93 82 86 82 90 99 99 97 93 94 89 85 83 82 84 83 79 78 77 74 71 68 64 59 58 66 74 73 66
75 81 87 85 85 91 90 96 99 98 98 99 100 100 99 95 86 99 98 96 100 100 99 100 94 94 92 93 91 83 78 73 67 62 62 66 60 55 57 61 67 73 78
81 84 85 83 82 83 93 96 100 98 96 99 98 95 99 99 92 87 99 99 100 100 96 99 96 99 100 99 96 87 93 76 64 68 68 70 70 71 78 74 74 73 77
81 83 82 80 72 76 90 87 89 95 95 98 98 99 99 100 100 100 100 100 100 97 96 98 100 94 98 97 96 97 92 95 85 74 69 72 73 69 67 67 74 81 84
81 81 74 68 63 66 82 85 88 98 100 99 99 97 92 92 90 83 84 92 98 99 100 98 98 99 94 100 94 95 90 98 89 88 68 74 76 77 74 70 67 69 76
81 79 66 56 51 48 51 60 63 64 67 61 54 49 45 41 50 59 51 49 48 54 73 88 88 92 94 99 99 99 98 96 95 94 92 87 82 72 75 82 83 76 75
84 74 68 52 48 43 42 42 44 44 42 40 38 37 38 37 39 40 38 38 42 43 48 47 46 51 60 88 88 98 99 99 96 95 90 87 90 82 70 69 72 80 78

GFSSE_925_rhum_120.txt.gz
RH
78 85 80 78 79 79 78 73 75 81 80 75 76 75 74 60 54 59 60 67 86 92 96 94 92 95 96 93 93 96 93 92 91 87 82 90 89 92 91 85 92 94 96
88 81 79 80 78 78 79 78 76 78 80 82 84 82 87 78 60 55 60 72 85 89 91 95 93 94 88 96 91 88 88 84 83 79 87 91 88 88 88 91 92 98 98
85 82 77 79 80 77 78 80 79 76 79 83 88 87 92 91 80 69 59 67 80 86 92 93 93 92 87 94 87 76 61 58 60 64 67 82 88 91 88 88 91 92 95
87 84 78 77 79 77 74 80 82 80 80 85 90 89 88 89 89 83 78 65 72 84 85 86 88 84 83 84 90 80 56 60 67 66 61 62 63 71 73 71 78 89 85
75 88 90 83 87 84 75 73 78 81 81 83 85 85 84 84 86 90 91 86 76 68 82 85 84 87 79 77 75 85 71 62 71 70 67 64 65 69 81 89 92 94 83
52 58 89 92 88 83 88 82 79 75 81 83 84 84 82 82 82 81 86 84 80 65 78 83 86 88 84 81 79 77 80 64 63 65 68 68 70 71 78 57 69 75 92
29 31 31 74 87 96 94 93 88 84 80 79 80 79 79 82 82 82 82 83 81 77 65 86 89 88 86 81 77 68 78 72 57 64 68 67 72 81 96 84 73 79 89
21 21 22 23 30 63 93 94 91 89 87 87 84 80 79 81 85 81 80 80 81 78 80 72 83 86 86 85 77 72 67 70 59 60 69 70 71 80 96 97 83 94 95
22 21 21 21 22 23 26 65 88 94 92 88 89 88 86 85 86 86 84 83 80 80 80 81 78 81 86 86 83 74 68 68 56 50 68 68 69 75 95 96 97 94 95
28 29 29 27 25 24 24 25 29 56 91 97 94 90 88 88 86 84 83 84 83 81 82 81 81 79 83 88 85 83 67 63 52 44 58 67 68 74 95 92 97 96 95
42 44 42 37 33 30 28 27 26 27 31 67 92 97 96 90 88 87 85 83 82 83 83 83 81 83 84 86 91 89 77 64 54 54 52 58 67 72 89 97 97 97 95
61 61 60 58 55 48 40 34 31 29 28 29 37 65 87 93 92 86 84 84 82 80 82 84 85 82 86 89 90 93 91 75 67 58 60 58 58 66 82 90 95 88 96
71 63 61 58 58 57 55 54 46 40 35 31 30 31 47 72 89 96 93 90 88 83 80 77 76 81 85 88 89 92 94 89 80 70 63 61 67 65 68 94 83 91 85
69 66 61 56 55 55 53 50 52 54 51 43 36 35 35 41 65 76 89 93 90 87 89 87 83 81 83 81 84 82 85 89 86 80 74 72 74 70 78 88 91 90 97
65 63 61 64 64 61 58 55 51 48 52 60 54 42 39 38 37 58 69 72 90 91 87 88 86 82 81 78 79 81 83 83 91 89 84 79 78 80 67 77 87 92 96
66 64 66 68 72 68 62 60 61 56 54 61 64 60 47 41 39 41 67 70 68 82 87 86 88 84 84 86 78 77 81 80 88 88 83 81 82 83 79 74 75 84 87
66 68 70 77 81 73 70 72 72 75 72 72 72 65 58 48 42 40 46 52 66 79 87 90 83 88 94 96 86 88 80 76 79 82 84 84 80 80 81 78 73 70 73
70 72 76 79 81 73 78 80 76 83 87 93 91 82 70 53 47 52 66 84 82 82 93 96 88 90 97 95 88 82 81 75 73 81 85 85 83 78 66 70 52 52 61
73 77 82 83 80 81 86 88 86 92 99 99 98 99 99 99 99 92 89 93 94 97 97 94 97 99 96 93 92 82 81 83 80 80 77 74 73 75 73 66 66 66 71
71 75 79 79 76 80 81 85 94 97 95 90 92 99 100 95 94 97 99 91 90 94 99 100 98 100 98 92 93 92 88 84 80 76 72 70 69 68 67 67 62 61 59
73 74 80 79 76 78 85 94 97 88 93 89 92 90 92 100 99 100 98 92 98 98 98 98 99 98 100 98 100 91 87 80 75 70 67 69 70 65 67 69 73 73 70
78 79 76 79 73 82 92 94 99 98 95 99 99 99 97 100 100 100 99 99 98 99 100 95 94 90 90 88 96 99 94 76 75 71 67 64 62 64 69 69 68 67 70
82 78 73 69 64 76 87 85 88 91 92 98 88 86 80 82 77 76 81 91 97 98 99 99 100 99 99 98 95 94 95 97 92 70 69 67 77 84 82 82 81 80 77
85 77 66 57 52 54 67 69 79 93 82 69 62 52 42 47 53 47 42 42 46 59 74 91 95 96 98 99 98 98 98 100 96 93 77 74 78 78 71 65 66 82 93
83 74 57 49 44 42 42 49 50 50 47 41 40 37 36 36 36 34 34 36 38 43 46 54 55 54 86 99 99 97 96 93 100 96 94 84 85 83 75 66 75 88 91
82 71 61 48 44 39 37 38 39 39 40 38 38 38 38 36 33 32 31 31 31 32 36 45 52 54 55 60 63 66 95 98 95 93 92 90 91 82 70 72 93 97 90